[[[{"header":{"parameterUnit":"kt","parameterCategory":2,"dx":1,"dy":1,"la1":29.587661999999998,"la2":31.0,"lo1":-88.76705300000003,"lo2":-86.6583820000003,"nx":115,"ny":88,"refTime":"2022-10-13T12:00:00:Z","depth":0,"parameterNumber":1,"parameterNumberName":"U-component_of_WINDS"},"data":[-3.1771,-3.2172,-3.2417,-3.279,-3.3124,-3.2687,-3.2996,-3.3664,-3.2996,-3.2906,-3.3021,-3.2287,-3.1874,-3.2275,-3.1771,-3.1121,-3.0343,-3.025,-2.977,-2.9185,-2.9133,-2.9018,-2.8861,-2.8507,-2.7994,-2.7795,-2.7742,-2.7648,-2.769,-2.7638,-2.7596,-2.7596,-2.7596,-2.7596,-2.7596,-2.7596,-2.7596,-2.7648,-2.7815,-2.7929,-2.7868,-2.8129,-2.8274,-2.864,-2.9086,-2.9246,-2.8923,-2.8101,-2.7646,-2.6345,-2.4222,-2.2577,-2.1382,-2.0313,-1.9302,-1.9027,-1.9027,-1.9027,-1.9027,-1.9027,-1.9027,-1.9027,-1.9027,-1.9027,-1.9014,-1.9014,-1.8876,-1.8876,-1.8829,-1.8829,-1.8835,-1.8835,-1.8928,-1.8928,-1.8915,-1.8922,-1.8987,-1.9014,-1.9014,-1.9014,-1.8974,-1.8895,-1.8876,-1.8842,-1.8842,-1.8802,-1.8796,-1.8796,-1.8697,-1.8756,-1.8763,-1.8618,-1.8486,-1.8413,-1.8281,-1.8219,-1.806,-1.7921,-1.7756,-1.753,-1.7364,-1.7324,-1.7318,-1.7318,-1.7318,-1.7318,-1.7318,-1.7318,-1.7318,-1.7318,-1.7318,-1.7318,-1.7318,-1.7351,-1.7377,-3.1046,-3.1241,-3.2056,-3.252,-3.2572,-3.2469,-3.2572,-3.2778,-3.306,-3.3342,-3.3124,-3.2144,-3.1783,-3.1627,-3.1201,-3.0643,-3.0291,-3.0146,-2.9666,-2.9133,-2.8705,-2.8548,-2.835,-2.7983,-2.7795,-2.7638,-2.7596,-2.7596,-2.7596,-2.7596,-2.7596,-2.7596,-2.7596,-2.7596,-2.7596,-2.7596,-2.7596,-2.7637,-2.7731,-2.7846,-2.8223,-2.86,-2.8564,-2.8825,-2.9298,-2.9747,-2.9329,-2.8446,-2.7129,-2.543,-2.3239,-2.1746,-2.0588,-1.9787,-1.9116,-1.8967,-1.8947,-1.8908,-1.8941,-1.8915,-1.8941,-1.8981,-1.9027,-1.902,-1.9,-1.8882,-1.8717,-1.8591,-1.842,-1.8361,-1.8367,-1.84,-1.8552,-1.8644,-1.8723,-1.8724,-1.8862,-1.8987,-1.8987,-1.8987,-1.8849,-1.873,-1.8618,-1.8446,-1.8394,-1.8341,-1.8328,-1.8341,-1.8394,-1.8506,-1.8453,-1.8308,-1.8196,-1.8229,-1.8222,-1.8126,-1.7941,-1.7822,-1.7769,-1.753,-1.7338,-1.7324,-1.7318,-1.7318,-1.7318,-1.7318,-1.7318,-1.7318,-1.7318,-1.7318,-1.7318,-1.7318,-1.7318,-1.7318,-1.7318,-3.0123,-3.055,-3.1305,-3.1759,-3.1926,-3.1707,-3.1901,-3.2366,-3.2442,-3.2454,-3.2351,-3.2235,-3.1989,-3.1627,-3.1472,-3.1018,-3.0186,-3.0146,-2.9509,-2.8914,-2.8433,-2.8182,-2.7983,-2.7732,-2.7585,-2.7596,-2.7596,-2.7596,-2.7596,-2.7596,-2.7596,-2.7596,-2.7596,-2.7596,-2.7596,-2.7596,-2.7596,-2.7606,-2.7835,-2.8003,-2.818,-2.8164,-2.8137,-2.7352,-2.7211,-2.6794,-2.6326,-2.4781,-2.3915,-2.283,-2.128,-1.9984,-1.9593,-1.9095,-1.8739,-1.8637,-1.8644,-1.8611,-1.8598,-1.8585,-1.8572,-1.8565,-1.8598,-1.867,-1.869,-1.8534,-1.8367,-1.8328,-1.8156,-1.8179,-1.8179,-1.813,-1.8268,-1.8367,-1.844,-1.8512,-1.8631,-1.8723,-1.8717,-1.8703,-1.8598,-1.844,-1.8374,-1.8216,-1.8189,-1.8156,-1.8278,-1.8331,-1.8331,-1.8334,-1.8077,-1.7879,-1.7699,-1.7747,-1.7974,-1.7928,-1.7851,-1.7802,-1.7782,-1.755,-1.7338,-1.7324,-1.7318,-1.7318,-1.7318,-1.7318,-1.7318,-1.7318,-1.7318,-1.7318,-1.7318,-1.7318,-1.7318,-1.7318,-1.7318,-2.9446,-2.999,-3.0643,-3.1098,-3.142,-3.1046,-3.1397,-3.2005,-3.1667,-3.1472,-3.1432,-3.1771,-3.1771,-3.1225,-3.1121,-3.0822,-3.0042,-2.9729,-2.9185,-2.8652,-2.8182,-2.7942,-2.7627,-2.7638,-2.7585,-2.7596,-2.7596,-2.7596,-2.7596,-2.7596,-2.7596,-2.7596,-2.7596,-2.7596,-2.7596,-2.7596,-2.7596,-2.7606,-2.7805,-2.7962,-2.8013,-2.7851,-2.7448,-2.6441,-2.6072,-2.57,-2.3997,-2.2168,-2.1263,-2.0547,-1.8964,-1.8251,-1.8193,-1.8272,-1.8292,-1.8292,-1.8358,-1.8378,-1.8384,-1.8398,-1.8341,-1.8295,-1.8281,-1.8305,-1.8232,-1.8084,-1.8024,-1.8011,-1.7991,-1.7985,-1.7978,-1.7985,-1.8018,-1.8133,-1.8193,-1.8259,-1.8325,-1.8338,-1.8338,-1.8292,-1.8239,-1.8193,-1.8173,-1.807,-1.8051,-1.8038,-1.81,-1.81,-1.7998,-1.7952,-1.764,-1.7568,-1.7397,-1.7518,-1.7698,-1.7792,-1.7813,-1.7813,-1.765,-1.7517,-1.7351,-1.7331,-1.7318,-1.7318,-1.7318,-1.7318,-1.7318,-1.7318,-1.7318,-1.7318,-1.7318,-1.7318,-1.7318,-1.7318,-1.7318,-2.9174,-2.9331,-3.0475,-3.089,-3.0942,-3.0942,-3.0982,-3.0982,-3.1046,-3.0746,-3.0498,-3.085,-3.089,-3.0706,-3.0614,-3.0354,-2.999,-2.9405,-2.8924,-2.8391,-2.8088,-2.7784,-2.7638,-2.7596,-2.7596,-2.7596,-2.7596,-2.7596,-2.7596,-2.7596,-2.7596,-2.7596,-2.7596,-2.7596,-2.7596,-2.7596,-2.7165,-2.6912,-2.6836,-2.695,-2.7233,-2.7524,-2.7438,-2.5784,-2.5466,-2.5203,-2.3401,-2.1998,-2.0624,-1.9862,-1.8876,-1.7697,-1.7827,-1.8067,-1.813,-1.8156,-1.8103,-1.8097,-1.8084,-1.8077,-1.8123,-1.8212,-1.8278,-1.813,-1.7952,-1.7807,-1.7682,-1.7587,-1.762,-1.7675,-1.7682,-1.7688,-1.7734,-1.78,-1.7902,-1.7899,-1.7958,-1.7998,-1.7991,-1.7978,-1.7974,-1.7846,-1.782,-1.7761,-1.7666,-1.7509,-1.7482,-1.7495,-1.7476,-1.7482,-1.7397,-1.739,-1.7499,-1.7687,-1.7713,-1.7618,-1.7741,-1.766,-1.7485,-1.7324,-1.7331,-1.7324,-1.7318,-1.7318,-1.7318,-1.7318,-1.7318,-1.7318,-1.7318,-1.7318,-1.7318,-1.7318,-1.7318,-1.7318,-1.7318,-2.8861,-2.9226,-3.0071,-3.0643,-3.089,-3.0879,-3.0879,-3.0879,-3.0879,-3.0787,-3.0643,-3.0787,-3.0787,-3.0539,-3.0498,-3.0343,-3.0042,-2.9394,-2.8872,-2.8507,-2.8193,-2.7889,-2.7638,-2.7596,-2.7596,-2.7596,-2.7596,-2.7596,-2.7596,-2.7596,-2.7596,-2.7596,-2.7596,-2.7596,-2.748,-2.727,-2.6577,-2.5408,-2.4712,-2.4553,-2.4503,-2.4499,-2.3647,-2.2387,-2.2123,-2.1247,-1.9759,-1.9233,-1.8566,-1.8261,-1.8125,-1.739,-1.7476,-1.7635,-1.7721,-1.7754,-1.7761,-1.7774,-1.778,-1.7699,-1.7728,-1.7708,-1.7633,-1.7679,-1.7568,-1.7522,-1.741,-1.7318,-1.7318,-1.7318,-1.7318,-1.7331,-1.7464,-1.7536,-1.7569,-1.7602,-1.7662,-1.7728,-1.7734,-1.7728,-1.7675,-1.7596,-1.7469,-1.739,-1.7318,-1.7318,-1.7318,-1.7318,-1.7318,-1.7318,-1.7318,-1.7318,-1.7593,-1.7808,-1.76,-1.7465,-1.7519,-1.7458,-1.7318,-1.7318,-1.7318,-1.7318,-1.7318,-1.7318,-1.7318,-1.7318,-1.7318,-1.7318,-1.7318,-1.7318,-1.7318,-1.7318,-1.7318,-1.7318,-1.7318,-2.8589,-2.9018,-2.977,-3.0354,-3.0643,-3.0475,-3.0423,-3.0412,-3.0423,-3.0371,-3.0423,-3.0579,-3.0487,-3.0423,-3.0371,-3.0123,-2.9822,-2.9509,-2.8935,-2.8559,-2.8088,-2.7889,-2.7742,-2.7596,-2.7596,-2.7596,-2.7596,-2.7596,-2.7596,-2.7596,-2.7596,-2.7596,-2.7596,-2.7113,-2.6955,-2.685,-2.4986,-2.3601,-2.3071,-2.3018,-2.2982,-2.3,-2.1829,-2.0876,-2.0434,-1.9483,-1.8361,-1.768,-1.7566,-1.7452,-1.7378,-1.7318,-1.7318,-1.7318,-1.7318,-1.7318,-1.7318,-1.7318,-1.7318,-1.7324,-1.7357,-1.739,-1.7371,-1.7324,-1.7318,-1.7344,-1.7344,-1.7318,-1.7318,-1.7318,-1.7318,-1.7318,-1.7357,-1.7444,-1.7451,-1.7423,-1.7436,-1.7476,-1.7476,-1.7469,-1.7463,-1.7397,-1.7384,-1.7318,-1.721,-1.7264,-1.7318,-1.7318,-1.7318,-1.7318,-1.7318,-1.7372,-1.7539,-1.7754,-1.7593,-1.7486,-1.7425,-1.7318,-1.7318,-1.7318,-1.7318,-1.7318,-1.7318,-1.7318,-1.7318,-1.7318,-1.7318,-1.7318,-1.7318,-1.7318,-1.7318,-1.7318,-1.7318,-1.7318,-1.7318,-2.8433,-2.8589,-2.9655,-3.0094,-3.0094,-2.9602,-2.9331,-2.9279,-2.9279,-2.9331,-2.9331,-2.999,-2.9978,-2.9383,-2.9279,-2.929,-2.9133,-2.8319,-2.8193,-2.813,-2.7879,-2.7732,-2.7585,-2.7596,-2.7596,-2.7596,-2.7596,-2.7596,-2.7596,-2.7596,-2.7596,-2.7596,-2.7596,-2.6797,-2.5945,-2.5355,-2.4245,-2.2646,-2.1955,-2.1743,-2.1423,-2.1796,-2.073,-1.993,-1.9288,-1.8545,-1.7855,-1.7318,-1.7318,-1.7318,-1.7318,-1.7318,-1.7318,-1.7318,-1.7318,-1.7318,-1.7318,-1.7318,-1.7318,-1.7318,-1.7318,-1.7318,-1.7318,-1.7318,-1.7318,-1.7318,-1.7318,-1.7318,-1.7318,-1.7318,-1.7318,-1.7318,-1.7318,-1.7318,-1.7318,-1.7318,-1.7318,-1.721,-1.721,-1.721,-1.721,-1.6995,-1.6942,-1.7157,-1.7043,-1.7043,-1.6881,-1.6989,-1.721,-1.7264,-1.715,-1.721,-1.7479,-1.7701,-1.7754,-1.7701,-1.7593,-1.7318,-1.7318,-1.7318,-1.7318,-1.7318,-1.7318,-1.7318,-1.7318,-1.7318,-1.7318,-1.7318,-1.7318,-1.7318,-1.7318,-1.7318,-1.7318,-1.7318,-1.7318,-2.8088,-2.8391,-2.8809,-2.9405,-2.999,-2.9457,-2.9185,-2.9238,-2.9614,-2.9562,-2.9342,-2.977,-2.9718,-2.929,-2.9133,-2.9081,-2.86,-2.8193,-2.8234,-2.7795,-2.7638,-2.7585,-2.7596,-2.7596,-2.7596,-2.7596,-2.7596,-2.7596,-2.7596,-2.7596,-2.7596,-2.7596,-2.7533,-2.6682,-2.5681,-2.4774,-2.3813,-2.1796,-2.1157,-2.0722,-1.9823,-1.9395,-1.902,-1.8492,-1.817,-1.8009,-1.7533,-1.7318,-1.7318,-1.7318,-1.7318,-1.7318,-1.7318,-1.7318,-1.7318,-1.7318,-1.7318,-1.7318,-1.7318,-1.7318,-1.7318,-1.7318,-1.7318,-1.7318,-1.7318,-1.7318,-1.7318,-1.7318,-1.7318,-1.7318,-1.7318,-1.7318,-1.7318,-1.7318,-1.7318,-1.7264,-1.721,-1.6875,-1.6821,-1.6881,-1.6828,-1.6344,-1.6128,-1.6445,-1.672,-1.6553,-1.6445,-1.6828,-1.7109,-1.6935,-1.6821,-1.7096,-1.7318,-1.7372,-1.7432,-1.7479,-1.7372,-1.7318,-1.7318,-1.7318,-1.7318,-1.715,-1.7264,-1.7318,-1.7318,-1.7318,-1.7318,-1.7318,-1.7318,-1.7318,-1.7318,-1.7318,-1.7318,-1.7318,-1.7318,-2.7784,-2.813,-2.8287,-2.8809,-2.9405,-2.8935,-2.8768,-2.8924,-2.9144,-2.9144,-2.9029,-2.9342,-2.9238,-2.9029,-2.882,-2.86,-2.8182,-2.814,-2.8046,-2.7648,-2.7585,-2.7596,-2.7596,-2.7596,-2.7596,-2.7596,-2.7596,-2.7596,-2.7596,-2.7596,-2.7596,-2.7596,-2.748,-2.6955,-2.6156,-2.4986,-2.3813,-2.1317,-2.057,-1.993,-1.8438,-1.8338,-1.8123,-1.7479,-1.7479,-1.7425,-1.7318,-1.7318,-1.7318,-1.7318,-1.7318,-1.7318,-1.7318,-1.7318,-1.7318,-1.7318,-1.7318,-1.7318,-1.7318,-1.7318,-1.7318,-1.7318,-1.7318,-1.7318,-1.7318,-1.7318,-1.7318,-1.7318,-1.7318,-1.7318,-1.7318,-1.7318,-1.7318,-1.7318,-1.7264,-1.721,-1.6989,-1.666,-1.6385,-1.6391,-1.629,-1.5859,-1.5692,-1.6015,-1.5967,-1.5805,-1.5907,-1.6236,-1.6511,-1.6391,-1.6331,-1.6666,-1.6881,-1.6888,-1.6834,-1.6613,-1.6451,-1.672,-1.6881,-1.6989,-1.7043,-1.6935,-1.7043,-1.7264,-1.7318,-1.7318,-1.7318,-1.7318,-1.7318,-1.7318,-1.7318,-1.7318,-1.7318,-1.7318,-1.7318,-2.7648,-2.769,-2.814,-2.838,-2.8443,-2.7889,-2.7942,-2.8287,-2.7994,-2.7994,-2.835,-2.8496,-2.8433,-2.8402,-2.8391,-2.814,-2.7795,-2.769,-2.7638,-2.7648,-2.7596,-2.7596,-2.7596,-2.7596,-2.7596,-2.7596,-2.7596,-2.7596,-2.7596,-2.7596,-2.7596,-2.7596,-2.7596,-2.7428,-2.7386,-2.5935,-2.4342,-2.2859,-2.2655,-2.153,-2.0197,-1.9555,-1.876,-1.8009,-1.7533,-1.7318,-1.7318,-1.7318,-1.7318,-1.7318,-1.7318,-1.7318,-1.7318,-1.7318,-1.7318,-1.7318,-1.7318,-1.7318,-1.7318,-1.7318,-1.7318,-1.7318,-1.7318,-1.7318,-1.7318,-1.7318,-1.7318,-1.7318,-1.7318,-1.7318,-1.7318,-1.7318,-1.7318,-1.7264,-1.7157,-1.7043,-1.666,-1.6331,-1.6015,-1.5913,-1.5698,-1.5476,-1.5476,-1.5416,-1.5266,-1.5213,-1.5368,-1.553,-1.5698,-1.5692,-1.5692,-1.5907,-1.6074,-1.629,-1.6559,-1.6068,-1.5799,-1.6116,-1.6331,-1.6284,-1.6337,-1.6606,-1.6929,-1.715,-1.7264,-1.7318,-1.7318,-1.7318,-1.7318,-1.7318,-1.7318,-1.7264,-1.7318,-1.7318,-1.7318,-2.7784,-2.8088,-2.7879,-2.8036,-2.8287,-2.7847,-2.7679,-2.7795,-2.7648,-2.769,-2.7847,-2.8182,-2.8182,-2.7889,-2.7837,-2.769,-2.7638,-2.7596,-2.7596,-2.7596,-2.7596,-2.7596,-2.7596,-2.7596,-2.7596,-2.7596,-2.7596,-2.7596,-2.7596,-2.7596,-2.748,-2.748,-2.7596,-2.7428,-2.7323,-2.7007,-2.605,-2.4721,-2.4193,-2.3442,-2.1628,-2.0517,-1.9295,-1.8967,-1.7748,-1.7372,-1.7318,-1.7318,-1.7318,-1.7318,-1.7318,-1.7318,-1.7318,-1.7318,-1.7318,-1.7318,-1.7318,-1.7318,-1.7318,-1.7318,-1.7318,-1.7318,-1.7318,-1.7318,-1.7318,-1.7318,-1.7318,-1.7318,-1.7318,-1.7318,-1.7318,-1.7264,-1.721,-1.6995,-1.6881,-1.6613,-1.623,-1.5853,-1.559,-1.5315,-1.4991,-1.4668,-1.4722,-1.4776,-1.4614,-1.456,-1.4722,-1.4829,-1.5045,-1.5153,-1.5153,-1.5207,-1.5315,-1.5799,-1.6284,-1.5847,-1.547,-1.5739,-1.5745,-1.5686,-1.5847,-1.6331,-1.6654,-1.6821,-1.6989,-1.7264,-1.721,-1.7049,-1.7103,-1.721,-1.721,-1.7103,-1.7103,-1.7103,-1.7157,-2.8245,-2.8652,-2.814,-2.8088,-2.8339,-2.7784,-2.7596,-2.7596,-2.7596,-2.7596,-2.7648,-2.7889,-2.7889,-2.769,-2.7596,-2.7596,-2.7596,-2.7596,-2.7596,-2.7596,-2.7596,-2.7596,-2.7596,-2.7596,-2.7596,-2.7596,-2.7596,-2.7596,-2.7596,-2.7596,-2.7375,-2.6787,-2.6471,-2.6366,-2.5777,-2.5144,-2.4774,-2.4034,-2.3866,-2.3177,-2.1689,-2.0303,-1.9502,-1.8967,-1.7533,-1.7372,-1.7318,-1.7318,-1.7318,-1.7318,-1.7318,-1.7318,-1.7318,-1.7318,-1.7318,-1.7318,-1.7318,-1.7318,-1.7318,-1.7318,-1.7318,-1.7318,-1.7318,-1.7318,-1.7318,-1.7318,-1.7318,-1.7318,-1.7318,-1.715,-1.7096,-1.6989,-1.6881,-1.6613,-1.6344,-1.6015,-1.5692,-1.5266,-1.5003,-1.4722,-1.4344,-1.4128,-1.4182,-1.4236,-1.4128,-1.4015,-1.4074,-1.4182,-1.4452,-1.4668,-1.4608,-1.4662,-1.4662,-1.5039,-1.5422,-1.5368,-1.5147,-1.5207,-1.5207,-1.5207,-1.5207,-1.5739,-1.6062,-1.6331,-1.6499,-1.6714,-1.6828,-1.6774,-1.6613,-1.6397,-1.6451,-1.6673,-1.678,-1.6774,-1.6995,-2.8705,-2.9185,-2.8652,-2.8496,-2.8559,-2.7942,-2.769,-2.7742,-2.7638,-2.7596,-2.7596,-2.7585,-2.7638,-2.7596,-2.7596,-2.7596,-2.7596,-2.7596,-2.7596,-2.7596,-2.7533,-2.7428,-2.727,-2.7323,-2.748,-2.727,-2.7533,-2.7533,-2.7533,-2.706,-2.5892,-2.5144,-2.4933,-2.3919,-2.3442,-2.3451,-2.3133,-2.3018,-2.2912,-2.1902,-2.0997,-1.993,-1.9234,-1.8016,-1.7533,-1.7318,-1.7318,-1.7318,-1.7318,-1.7318,-1.7318,-1.7318,-1.7318,-1.7318,-1.7318,-1.7318,-1.7318,-1.7318,-1.7318,-1.7318,-1.7318,-1.7318,-1.7318,-1.7318,-1.7318,-1.7318,-1.7318,-1.7318,-1.715,-1.6989,-1.6707,-1.6439,-1.6224,-1.5961,-1.5751,-1.5482,-1.5213,-1.4787,-1.4457,-1.4128,-1.4015,-1.4015,-1.4074,-1.4074,-1.4015,-1.4015,-1.4074,-1.4074,-1.4285,-1.4339,-1.4231,-1.4177,-1.4177,-1.4339,-1.4673,-1.4781,-1.4829,-1.4829,-1.4722,-1.4668,-1.4673,-1.4889,-1.5261,-1.553,-1.5955,-1.6224,-1.6391,-1.623,-1.6021,-1.5698,-1.5644,-1.5913,-1.6074,-1.6236,-1.6559,-2.8966,-2.9822,-2.9238,-2.9238,-2.9562,-2.8611,-2.814,-2.8088,-2.7679,-2.7543,-2.7596,-2.7491,-2.7491,-2.7543,-2.7386,-2.7218,-2.7428,-2.7596,-2.7596,-2.7596,-2.7428,-2.6745,-2.6313,-2.685,-2.6787,-2.5734,-2.6577,-2.7113,-2.6587,-2.5355,-2.3928,-2.323,-2.3177,-2.2806,-2.254,-2.2221,-2.2062,-2.2062,-2.2115,-2.1902,-2.1362,-2.0303,-1.9555,-1.886,-1.8063,-1.7318,-1.7318,-1.7318,-1.7318,-1.7318,-1.7318,-1.7318,-1.7318,-1.7318,-1.7318,-1.7318,-1.7318,-1.7318,-1.7318,-1.7318,-1.7318,-1.7318,-1.7318,-1.7318,-1.7264,-1.7318,-1.7318,-1.7157,-1.6935,-1.666,-1.6439,-1.6015,-1.5692,-1.5422,-1.5105,-1.5003,-1.4787,-1.4457,-1.4128,-1.4015,-1.4015,-1.4015,-1.4015,-1.4015,-1.4015,-1.4015,-1.4015,-1.4015,-1.4069,-1.4069,-1.4069,-1.4069,-1.4069,-1.4236,-1.4452,-1.4511,-1.4511,-1.4511,-1.429,-1.4236,-1.4344,-1.4506,-1.4673,-1.4997,-1.5422,-1.5745,-1.6015,-1.5745,-1.5536,-1.5428,-1.5428,-1.5482,-1.5422,-1.5692,-1.5961,-2.6684,-2.748,-2.7156,-2.7323,-2.7774,-2.6914,-2.6546,-2.6451,-2.6198,-2.5945,-2.5787,-2.5787,-2.5619,-2.5302,-2.5417,-2.5408,-2.5408,-2.525,-2.5417,-2.525,-2.5197,-2.4818,-2.4448,-2.4827,-2.5091,-2.4298,-2.488,-2.5628,-2.4986,-2.3442,-2.2009,-2.1583,-2.1317,-2.121,-1.9983,-2.0197,-2.0357,-2.0418,-2.0357,-2.0311,-2.0044,-1.9349,-1.8706,-1.8599,-1.7748,-1.7372,-1.7318,-1.7318,-1.7318,-1.7318,-1.7318,-1.7318,-1.7318,-1.7318,-1.7318,-1.7318,-1.7318,-1.7318,-1.7318,-1.7318,-1.7318,-1.7318,-1.7318,-1.7157,-1.6881,-1.6666,-1.6505,-1.6565,-1.629,-1.5961,-1.5692,-1.5374,-1.5159,-1.4883,-1.4506,-1.4403,-1.429,-1.4069,-1.4015,-1.4015,-1.4015,-1.4015,-1.4015,-1.4015,-1.4015,-1.4015,-1.4015,-1.4015,-1.4015,-1.4015,-1.4015,-1.4015,-1.4069,-1.4128,-1.4236,-1.4349,-1.4403,-1.4349,-1.4128,-1.4236,-1.4182,-1.4182,-1.429,-1.456,-1.5045,-1.5374,-1.5536,-1.5482,-1.5374,-1.532,-1.5266,-1.4937,-1.4668,-1.4937,-1.5422,-2.3609,-2.4137,-2.4243,-2.4578,-2.5187,-2.4712,-2.4333,-2.4395,-2.4386,-2.3813,-2.3866,-2.3486,-2.3336,-2.3124,-2.2965,-2.2708,-2.2752,-2.3027,-2.3186,-2.3239,-2.3124,-2.2859,-2.2266,-2.2327,-2.2806,-2.2381,-2.2646,-2.2381,-2.1787,-2.1743,-2.089,-1.9823,-1.9456,-1.8974,-1.8123,-1.817,-1.7318,-1.7425,-1.7533,-1.7533,-1.7587,-1.7587,-1.7479,-1.7479,-1.7372,-1.7318,-1.7318,-1.7318,-1.7318,-1.7318,-1.7318,-1.7318,-1.7318,-1.7318,-1.7318,-1.7318,-1.7318,-1.7318,-1.7264,-1.721,-1.715,-1.7096,-1.6995,-1.6828,-1.6445,-1.5961,-1.5751,-1.5536,-1.5476,-1.5315,-1.5057,-1.4733,-1.4457,-1.4236,-1.4128,-1.4074,-1.4015,-1.4015,-1.4015,-1.4015,-1.4015,-1.4015,-1.4015,-1.4015,-1.4015,-1.4015,-1.4015,-1.4015,-1.4015,-1.4015,-1.4015,-1.4015,-1.4015,-1.4015,-1.4128,-1.429,-1.4344,-1.429,-1.4344,-1.4452,-1.456,-1.4668,-1.4506,-1.4614,-1.4781,-1.5159,-1.5428,-1.5428,-1.5266,-1.5213,-1.5261,-1.4776,-1.4182,-1.4403,-1.4895,-2.3627,-2.4137,-2.464,-2.523,-2.5537,-2.5082,-2.4774,-2.4774,-2.4236,-2.3866,-2.3857,-2.3442,-2.3124,-2.3018,-2.2699,-2.2434,-2.254,-2.2389,-2.2274,-2.2168,-2.2168,-2.153,-2.1202,-2.1468,-2.1636,-2.073,-2.1362,-2.1103,-1.9341,-1.8813,-1.8338,-1.8123,-1.7909,-1.7533,-1.7432,-1.7318,-1.7318,-1.7318,-1.7318,-1.7318,-1.7318,-1.7318,-1.7318,-1.7318,-1.7318,-1.7318,-1.7318,-1.7318,-1.7318,-1.7318,-1.7318,-1.7318,-1.7318,-1.7318,-1.7318,-1.7318,-1.7318,-1.7318,-1.721,-1.6989,-1.6768,-1.6606,-1.6176,-1.5961,-1.5692,-1.5584,-1.5482,-1.5476,-1.5213,-1.4787,-1.4679,-1.4403,-1.4128,-1.4015,-1.4015,-1.4015,-1.4015,-1.4015,-1.4015,-1.4015,-1.4015,-1.4015,-1.4015,-1.4015,-1.4015,-1.4015,-1.4015,-1.4015,-1.4015,-1.4015,-1.4015,-1.4015,-1.4074,-1.4128,-1.429,-1.4506,-1.456,-1.4614,-1.4722,-1.4883,-1.4991,-1.5099,-1.5315,-1.5422,-1.5536,-1.5536,-1.5428,-1.5482,-1.5266,-1.5213,-1.5261,-1.4991,-1.4344,-1.429,-1.4565,-2.0936,-2.1718,-2.2,-2.2638,-2.3256,-2.3115,-2.3009,-2.2965,-2.2691,-2.2381,-2.2115,-2.1849,-2.1476,-2.0951,-2.0578,-2.025,-1.9983,-2.0044,-2.0036,-1.9983,-2.0036,-1.9395,-1.8974,-1.9448,-1.9295,-1.9242,-1.9448,-1.8874,-1.7486,-1.7318,-1.7425,-1.7318,-1.7318,-1.7318,-1.7318,-1.7318,-1.7318,-1.7318,-1.7318,-1.7318,-1.7318,-1.7318,-1.7318,-1.7318,-1.7318,-1.7318,-1.7318,-1.7318,-1.7318,-1.7318,-1.7318,-1.7318,-1.7432,-1.7539,-1.7754,-1.7801,-1.7801,-1.7587,-1.6989,-1.6714,-1.6385,-1.6122,-1.5799,-1.5476,-1.5266,-1.5159,-1.5051,-1.4829,-1.4452,-1.4403,-1.4403,-1.4128,-1.4015,-1.4015,-1.4015,-1.4015,-1.4015,-1.4015,-1.4015,-1.4015,-1.4015,-1.4015,-1.4015,-1.4015,-1.4015,-1.4015,-1.4015,-1.4015,-1.4015,-1.4069,-1.4128,-1.4236,-1.4457,-1.4619,-1.4937,-1.5099,-1.5153,-1.5207,-1.5261,-1.5315,-1.5422,-1.5368,-1.5584,-1.6021,-1.629,-1.6344,-1.6236,-1.5967,-1.5482,-1.5164,-1.5213,-1.5093,-1.4506,-1.4128,-1.4236,-1.8063,-1.8921,-1.9135,-1.9777,-2.0624,-2.0837,-2.0997,-2.0837,-2.0997,-2.0578,-2.0311,-2.009,-1.967,-1.8928,-1.8499,-1.807,-1.8063,-1.7962,-1.7748,-1.7694,-1.7748,-1.7748,-1.764,-1.7962,-1.764,-1.7318,-1.7587,-1.7748,-1.7318,-1.7318,-1.7318,-1.7318,-1.7318,-1.7318,-1.7318,-1.7318,-1.7318,-1.7318,-1.7318,-1.7318,-1.7318,-1.7318,-1.7318,-1.7318,-1.7318,-1.7318,-1.7318,-1.7318,-1.7318,-1.7318,-1.7318,-1.7432,-1.7754,-1.8123,-1.8284,-1.8231,-1.8177,-1.7741,-1.6983,-1.66,-1.6224,-1.5853,-1.5476,-1.5159,-1.4895,-1.4679,-1.4511,-1.4231,-1.4069,-1.4015,-1.4015,-1.4015,-1.4015,-1.4015,-1.4015,-1.4015,-1.4015,-1.4015,-1.4015,-1.4015,-1.4015,-1.4015,-1.4074,-1.4182,-1.4236,-1.429,-1.4506,-1.4614,-1.4614,-1.456,-1.456,-1.4673,-1.4895,-1.5213,-1.553,-1.5584,-1.5745,-1.5799,-1.5907,-1.6021,-1.6021,-1.5853,-1.5961,-1.6505,-1.6828,-1.6666,-1.6613,-1.6559,-1.6021,-1.511,-1.5105,-1.5201,-1.4722,-1.429,-1.429,-1.8231,-1.8499,-1.9456,-1.9991,-2.0197,-2.0624,-2.0784,-2.0784,-2.0837,-2.073,-2.0624,-2.0204,-1.9937,-1.9563,-1.8767,-1.8284,-1.7962,-1.7694,-1.7479,-1.7425,-1.7372,-1.7318,-1.7318,-1.7318,-1.7318,-1.7318,-1.7318,-1.7318,-1.7318,-1.7318,-1.7318,-1.7318,-1.7318,-1.7318,-1.7318,-1.7318,-1.7318,-1.7318,-1.7318,-1.7318,-1.7318,-1.7318,-1.7318,-1.7318,-1.7372,-1.7432,-1.7425,-1.7479,-1.7425,-1.7318,-1.7318,-1.7855,-1.8499,-1.8867,-1.876,-1.8284,-1.8284,-1.7848,-1.7144,-1.6707,-1.6492,-1.6391,-1.5536,-1.4949,-1.4733,-1.4506,-1.4344,-1.4123,-1.4123,-1.4123,-1.4015,-1.4015,-1.4015,-1.4015,-1.4015,-1.4015,-1.4015,-1.4015,-1.4123,-1.4123,-1.429,-1.429,-1.4344,-1.4506,-1.4565,-1.4733,-1.5105,-1.5368,-1.5368,-1.5368,-1.5315,-1.5422,-1.5476,-1.5692,-1.5961,-1.6074,-1.6284,-1.6445,-1.6666,-1.6828,-1.6942,-1.672,-1.6613,-1.7096,-1.6935,-1.6606,-1.6445,-1.6337,-1.5859,-1.5213,-1.4943,-1.4883,-1.4668,-1.4457,-1.4236,-1.7873,-1.8338,-1.8813,-1.9456,-1.9991,-2.0303,-2.0525,-2.0784,-2.0837,-2.0837,-2.073,-2.057,-2.0258,-1.9983,-1.9456,-1.8981,-1.866,-1.8331,-1.807,-1.7801,-1.7432,-1.7318,-1.7318,-1.7318,-1.7318,-1.7318,-1.7311,-1.7318,-1.7318,-1.7318,-1.7318,-1.7318,-1.7318,-1.7318,-1.7318,-1.7318,-1.7318,-1.7318,-1.7318,-1.7318,-1.7318,-1.7318,-1.7318,-1.7318,-1.764,-1.7801,-1.7855,-1.807,-1.8231,-1.8231,-1.8284,-1.8653,-1.9341,-1.9242,-1.8974,-1.8653,-1.8445,-1.7848,-1.7144,-1.6654,-1.6391,-1.6015,-1.553,-1.5261,-1.5099,-1.4991,-1.4829,-1.4824,-1.4776,-1.4668,-1.4403,-1.4182,-1.4015,-1.4015,-1.4015,-1.4015,-1.4074,-1.4506,-1.4829,-1.4824,-1.4776,-1.4776,-1.4829,-1.5045,-1.5159,-1.5213,-1.5584,-1.5692,-1.5698,-1.5799,-1.5799,-1.6015,-1.6068,-1.6176,-1.6397,-1.6559,-1.6821,-1.6935,-1.7096,-1.721,-1.7318,-1.7264,-1.721,-1.6929,-1.6707,-1.6379,-1.5853,-1.5745,-1.5422,-1.4833,-1.4488,-1.4484,-1.4424,-1.4192,-1.4021,-1.7438,-1.7981,-1.821,-1.8867,-1.9723,-1.9937,-2.0303,-2.0784,-2.0837,-2.0837,-2.0837,-2.0837,-2.0517,-2.0204,-1.9991,-1.9777,-1.9288,-1.9028,-1.8813,-1.8338,-1.7801,-1.7493,-1.7327,-1.7307,-1.7307,-1.7206,-1.7219,-1.7259,-1.7311,-1.7318,-1.7318,-1.7318,-1.7318,-1.7318,-1.7318,-1.7318,-1.7318,-1.7318,-1.7318,-1.7318,-1.7318,-1.7318,-1.7432,-1.7587,-1.7962,-1.8284,-1.8499,-1.8867,-1.9135,-1.9242,-1.9242,-1.9295,-1.9502,-1.9242,-1.8974,-1.8767,-1.8445,-1.7855,-1.6989,-1.6714,-1.6445,-1.6122,-1.5961,-1.5799,-1.5745,-1.5638,-1.553,-1.5536,-1.5536,-1.5261,-1.4943,-1.456,-1.4446,-1.4446,-1.4446,-1.4398,-1.4446,-1.5045,-1.5428,-1.5476,-1.5482,-1.5536,-1.5482,-1.5584,-1.5745,-1.5799,-1.5859,-1.5913,-1.6021,-1.6068,-1.6284,-1.6606,-1.666,-1.672,-1.6881,-1.6995,-1.7096,-1.721,-1.7264,-1.7318,-1.7318,-1.7264,-1.7096,-1.6815,-1.6455,-1.5757,-1.5045,-1.4914,-1.4688,-1.4403,-1.4036,-1.3987,-1.3897,-1.3897,-1.3775,-1.7362,-1.716,-1.7953,-1.8599,-1.9159,-1.9762,-2.0128,-2.0707,-2.0667,-2.0667,-2.072,-2.076,-2.0575,-2.0685,-2.0021,-1.996,-1.9838,-1.9299,-1.9016,-1.8817,-1.8387,-1.7775,-1.7301,-1.7281,-1.7168,-1.695,-1.6924,-1.7101,-1.7167,-1.7252,-1.7285,-1.7239,-1.7278,-1.7305,-1.7272,-1.7258,-1.7318,-1.7318,-1.7318,-1.7318,-1.7318,-1.7318,-1.7593,-1.7962,-1.8231,-1.8445,-1.8867,-1.9135,-1.9295,-1.9884,-1.9937,-1.9616,-1.9135,-1.9135,-1.8867,-1.8438,-1.8231,-1.7916,-1.7318,-1.715,-1.7103,-1.6942,-1.6606,-1.6439,-1.6337,-1.6015,-1.5751,-1.5745,-1.559,-1.5638,-1.5482,-1.5422,-1.5315,-1.5201,-1.5363,-1.5368,-1.5422,-1.5476,-1.5536,-1.5536,-1.5584,-1.553,-1.5692,-1.6008,-1.6366,-1.6167,-1.6423,-1.6502,-1.66,-1.6483,-1.663,-1.6907,-1.7006,-1.7165,-1.7218,-1.7259,-1.7219,-1.7298,-1.7292,-1.7173,-1.7173,-1.7074,-1.6886,-1.6552,-1.5946,-1.5241,-1.4497,-1.3977,-1.3685,-1.3482,-1.3636,-1.3514,-1.3399,-1.3505,-1.3542,-1.709,-1.757,-1.7324,-1.7743,-1.8479,-1.8464,-1.8984,-1.9621,-1.9518,-1.9466,-1.9777,-1.9769,-1.9769,-1.9777,-1.9569,-1.9629,-1.9777,-1.931,-1.9102,-1.9154,-1.8767,-1.7928,-1.7182,-1.7171,-1.7073,-1.6783,-1.6996,-1.7018,-1.6903,-1.6812,-1.6857,-1.6904,-1.6976,-1.7115,-1.7068,-1.7213,-1.7318,-1.7311,-1.7318,-1.7318,-1.7318,-1.7318,-1.7694,-1.8123,-1.8284,-1.8767,-1.9502,-1.9884,-1.983,-1.9509,-1.9456,-1.9349,-1.9081,-1.8813,-1.8492,-1.8284,-1.7909,-1.764,-1.7372,-1.7318,-1.7318,-1.7264,-1.715,-1.6989,-1.6881,-1.6774,-1.6565,-1.6505,-1.6565,-1.6397,-1.6176,-1.6122,-1.5961,-1.5745,-1.6182,-1.6559,-1.6559,-1.6486,-1.6483,-1.6364,-1.6307,-1.627,-1.6192,-1.6375,-1.6532,-1.661,-1.6812,-1.6884,-1.7009,-1.6871,-1.6799,-1.6812,-1.6924,-1.695,-1.6956,-1.6923,-1.6857,-1.716,-1.718,-1.6924,-1.689,-1.6772,-1.6349,-1.5718,-1.5339,-1.4819,-1.4094,-1.3476,-1.328,-1.3339,-1.3215,-1.3241,-1.3257,-1.332,-1.331,-1.7049,-1.7655,-1.7022,-1.7158,-1.7718,-1.7507,-1.7921,-1.8757,-1.8459,-1.8591,-1.8765,-1.8692,-1.862,-1.859,-1.8503,-1.8641,-1.8729,-1.851,-1.8629,-1.8842,-1.8523,-1.7757,-1.7071,-1.6865,-1.665,-1.6528,-1.6737,-1.6886,-1.6743,-1.7001,-1.7039,-1.6961,-1.7249,-1.7182,-1.7098,-1.7384,-1.7459,-1.7307,-1.7459,-1.7545,-1.7545,-1.7538,-1.7864,-1.8458,-1.8412,-1.898,-2.0143,-2.0303,-1.9853,-1.9026,-1.8844,-1.8721,-1.8524,-1.8141,-1.7914,-1.7882,-1.7587,-1.7318,-1.7318,-1.7318,-1.7318,-1.7318,-1.7264,-1.7318,-1.7318,-1.7318,-1.7318,-1.7318,-1.7318,-1.7103,-1.6821,-1.6714,-1.6553,-1.617,-1.6536,-1.6923,-1.6989,-1.7134,-1.7016,-1.6871,-1.6772,-1.6622,-1.6498,-1.6541,-1.6541,-1.6541,-1.6561,-1.6607,-1.6732,-1.6686,-1.6653,-1.6693,-1.6679,-1.6686,-1.6666,-1.6599,-1.664,-1.6963,-1.6891,-1.6666,-1.6574,-1.6495,-1.587,-1.5226,-1.5193,-1.4917,-1.4092,-1.3336,-1.3389,-1.3531,-1.3408,-1.3225,-1.3245,-1.3163,-1.3187,-1.7307,-1.7023,-1.7142,-1.7262,-1.735,-1.7241,-1.7589,-1.8205,-1.8154,-1.8118,-1.8132,-1.7778,-1.7596,-1.7472,-1.7207,-1.7105,-1.6934,-1.7025,-1.7241,-1.7325,-1.7307,-1.7283,-1.7123,-1.6317,-1.6049,-1.6159,-1.6229,-1.6612,-1.7048,-1.7373,-1.798,-1.7698,-1.7646,-1.7702,-1.7315,-1.7775,-1.7654,-1.735,-1.772,-1.7888,-1.7909,-1.7962,-1.832,-1.9095,-1.8692,-1.9049,-2.0059,-1.9588,-1.8968,-1.8661,-1.8154,-1.7793,-1.7453,-1.7154,-1.7181,-1.7326,-1.7298,-1.7265,-1.7292,-1.7219,-1.7239,-1.7226,-1.7226,-1.7318,-1.7232,-1.72,-1.7206,-1.7213,-1.7232,-1.7205,-1.7145,-1.7132,-1.7079,-1.7072,-1.6806,-1.6653,-1.6612,-1.6632,-1.6594,-1.6541,-1.6515,-1.6482,-1.6422,-1.646,-1.6467,-1.6467,-1.6403,-1.6416,-1.6475,-1.6442,-1.6526,-1.6513,-1.6467,-1.6422,-1.6455,-1.64,-1.6356,-1.6542,-1.6482,-1.635,-1.6297,-1.6317,-1.5976,-1.5585,-1.5301,-1.4939,-1.4406,-1.3701,-1.3479,-1.3217,-1.3129,-1.3258,-1.3183,-1.3064,-1.2933,-1.7099,-1.7462,-1.7277,-1.7172,-1.7165,-1.6821,-1.6828,-1.6982,-1.6694,-1.6792,-1.699,-1.6828,-1.6779,-1.6729,-1.6582,-1.6631,-1.687,-1.6631,-1.6089,-1.5397,-1.5483,-1.592,-1.623,-1.6052,-1.6127,-1.6257,-1.6271,-1.643,-1.6687,-1.6589,-1.6645,-1.6933,-1.6894,-1.679,-1.6646,-1.691,-1.712,-1.7115,-1.7225,-1.7431,-1.7494,-1.7444,-1.7702,-1.8285,-1.7973,-1.8312,-1.8991,-1.8211,-1.7742,-1.7738,-1.7315,-1.7009,-1.6843,-1.6726,-1.6693,-1.6798,-1.6824,-1.6824,-1.6818,-1.6851,-1.6818,-1.6818,-1.6818,-1.6824,-1.6818,-1.6818,-1.6818,-1.6811,-1.6831,-1.6811,-1.6824,-1.6824,-1.6811,-1.6818,-1.6638,-1.6559,-1.6539,-1.6539,-1.6473,-1.6314,-1.6281,-1.6126,-1.6007,-1.5948,-1.5898,-1.5898,-1.5898,-1.5931,-1.6195,-1.6073,-1.6126,-1.6202,-1.6119,-1.6132,-1.6185,-1.6185,-1.6145,-1.6112,-1.6073,-1.6053,-1.6033,-1.6023,-1.5924,-1.5475,-1.5109,-1.4701,-1.4026,-1.3539,-1.3197,-1.2609,-1.2262,-1.2221,-1.2123,-1.2269,-1.2269,-1.6342,-1.708,-1.6776,-1.6631,-1.6535,-1.6053,-1.5866,-1.577,-1.5286,-1.528,-1.5521,-1.5425,-1.5376,-1.5328,-1.5177,-1.5322,-1.5653,-1.5611,-1.5038,-1.4227,-1.4366,-1.476,-1.5099,-1.5425,-1.5521,-1.5425,-1.5521,-1.5715,-1.6025,-1.6073,-1.6294,-1.6763,-1.6919,-1.6772,-1.6532,-1.6767,-1.6808,-1.6821,-1.7018,-1.7218,-1.7394,-1.7365,-1.7521,-1.7934,-1.7611,-1.7327,-1.7427,-1.6923,-1.6759,-1.6926,-1.6639,-1.6539,-1.6526,-1.646,-1.6453,-1.6519,-1.6539,-1.6539,-1.6539,-1.6552,-1.6566,-1.6546,-1.6546,-1.6539,-1.6539,-1.6559,-1.6559,-1.6552,-1.6539,-1.6539,-1.6539,-1.6539,-1.6416,-1.6244,-1.6218,-1.6192,-1.6172,-1.6192,-1.6126,-1.5974,-1.5984,-1.5855,-1.5649,-1.5554,-1.558,-1.5574,-1.5567,-1.5668,-1.5869,-1.5741,-1.5695,-1.5875,-1.5789,-1.5714,-1.5813,-1.5852,-1.5839,-1.5826,-1.578,-1.5741,-1.5708,-1.5659,-1.5389,-1.5066,-1.4719,-1.4251,-1.3559,-1.3094,-1.2803,-1.2366,-1.1978,-1.154,-1.1054,-1.1054,-1.12,-1.5128,-1.5625,-1.5576,-1.5673,-1.5625,-1.5196,-1.4857,-1.4857,-1.4415,-1.4264,-1.4312,-1.3688,-1.3639,-1.3348,-1.3288,-1.2706,-1.3046,-1.3827,-1.407,-1.3919,-1.4021,-1.4064,-1.4118,-1.4264,-1.4118,-1.3639,-1.3924,-1.4657,-1.5528,-1.6294,-1.7024,-1.7706,-1.7928,-1.7524,-1.6983,-1.7248,-1.72,-1.6696,-1.7088,-1.7542,-1.7698,-1.7706,-1.789,-1.8176,-1.7795,-1.7056,-1.5792,-1.603,-1.6232,-1.6212,-1.6354,-1.6519,-1.6433,-1.6255,-1.6235,-1.642,-1.6449,-1.6513,-1.65,-1.6473,-1.644,-1.644,-1.6493,-1.6447,-1.6427,-1.6447,-1.6453,-1.644,-1.6453,-1.648,-1.6467,-1.6453,-1.6225,-1.5714,-1.5681,-1.5639,-1.5649,-1.5561,-1.5541,-1.5616,-1.5629,-1.5541,-1.5534,-1.5528,-1.5528,-1.5528,-1.5528,-1.5609,-1.5629,-1.5616,-1.5528,-1.5603,-1.5603,-1.5596,-1.5541,-1.5541,-1.5506,-1.547,-1.5299,-1.4941,-1.4748,-1.4651,-1.436,-1.4167,-1.3827,-1.3634,-1.2949,-1.241,-1.2172,-1.2026,-1.1924,-1.1584,-1.1049,-1.0664,-1.0567,-1.4548,-1.5032,-1.5376,-1.5528,-1.5528,-1.5341,-1.5286,-1.5244,-1.476,-1.456,-1.4421,-1.3979,-1.3731,-1.3731,-1.3579,-1.3143,-1.2561,-1.31,-1.3451,-1.3542,-1.3827,-1.4015,-1.4064,-1.436,-1.4258,-1.3876,-1.4258,-1.4693,-1.5032,-1.5383,-1.5818,-1.6308,-1.6452,-1.6349,-1.6156,-1.6204,-1.6327,-1.6302,-1.6466,-1.6765,-1.6872,-1.6824,-1.6817,-1.6862,-1.6892,-1.6548,-1.6017,-1.607,-1.6043,-1.5816,-1.5806,-1.5852,-1.5852,-1.5773,-1.5767,-1.5839,-1.5859,-1.5859,-1.5859,-1.5852,-1.5859,-1.5859,-1.5859,-1.5859,-1.5852,-1.5852,-1.5859,-1.5859,-1.5859,-1.5852,-1.5859,-1.5865,-1.578,-1.5635,-1.5528,-1.5528,-1.5528,-1.5528,-1.5528,-1.5528,-1.5528,-1.5528,-1.5528,-1.5528,-1.5528,-1.5528,-1.5528,-1.5528,-1.5528,-1.5528,-1.5528,-1.5528,-1.5528,-1.5528,-1.5238,-1.4706,-1.4469,-1.433,-1.4118,-1.3531,-1.3191,-1.324,-1.3143,-1.2997,-1.2852,-1.2755,-1.241,-1.1827,-1.1535,-1.1292,-1.1146,-1.0854,-1.0514,-1.0275,-1.008,-1.3628,-1.3961,-1.4699,-1.5093,-1.5238,-1.5293,-1.5293,-1.5238,-1.4712,-1.4373,-1.4179,-1.3882,-1.3634,-1.344,-1.3634,-1.3343,-1.276,-1.2863,-1.296,-1.296,-1.3294,-1.3434,-1.3482,-1.3773,-1.3719,-1.3531,-1.3767,-1.4106,-1.4451,-1.4899,-1.5286,-1.577,-1.6004,-1.6004,-1.5866,-1.5811,-1.5856,-1.5957,-1.6083,-1.6209,-1.6398,-1.6314,-1.6169,-1.5941,-1.6093,-1.6093,-1.5971,-1.5921,-1.5829,-1.5541,-1.5528,-1.5528,-1.5528,-1.5528,-1.5528,-1.5528,-1.5528,-1.5528,-1.5528,-1.5528,-1.5528,-1.5528,-1.5528,-1.5548,-1.5528,-1.5528,-1.5528,-1.5534,-1.5534,-1.5528,-1.5528,-1.5528,-1.5528,-1.5528,-1.5528,-1.5528,-1.5528,-1.5528,-1.5528,-1.5528,-1.5528,-1.5528,-1.5528,-1.5528,-1.5528,-1.5528,-1.5528,-1.5528,-1.5528,-1.5528,-1.5528,-1.5528,-1.5528,-1.5286,-1.4706,-1.3822,-1.3434,-1.3191,-1.2997,-1.2561,-1.2512,-1.2658,-1.2221,-1.2075,-1.188,-1.1681,-1.1,-1.0514,-1.0416,-1.027,-1.0124,-0.9783,-0.9296,-0.969,-0.9588,-1.2463,-1.2658,-1.3579,-1.4366,-1.476,-1.4809,-1.4809,-1.4863,-1.4264,-1.3779,-1.3451,-1.3348,-1.3003,-1.2626,-1.3115,-1.324,-1.3148,-1.283,-1.2636,-1.2566,-1.2566,-1.2512,-1.2463,-1.2463,-1.2512,-1.2609,-1.2658,-1.3046,-1.3876,-1.4899,-1.5721,-1.6149,-1.6631,-1.6721,-1.6246,-1.6204,-1.6011,-1.5684,-1.5901,-1.6103,-1.6129,-1.6347,-1.6145,-1.5655,-1.5541,-1.5616,-1.5548,-1.5534,-1.5534,-1.5528,-1.5528,-1.5528,-1.5528,-1.5528,-1.5528,-1.5528,-1.5528,-1.5528,-1.5528,-1.5528,-1.5528,-1.5528,-1.5528,-1.5528,-1.5528,-1.5528,-1.5528,-1.5528,-1.5528,-1.5528,-1.5528,-1.5383,-1.5335,-1.5383,-1.5431,-1.5389,-1.5431,-1.5286,-1.5431,-1.5383,-1.5189,-1.5038,-1.5238,-1.5431,-1.5189,-1.5141,-1.5286,-1.5238,-1.5093,-1.5238,-1.5189,-1.5141,-1.5044,-1.4706,-1.3003,-1.2463,-1.2415,-1.2221,-1.2075,-1.2026,-1.2221,-1.2172,-1.1589,-1.1151,-1.0908,-1.0416,-0.9686,-0.9397,-0.9495,-0.9446,-0.9397,-0.9349,-0.9296,-0.9296,-0.9296,-1.3008,-1.3105,-1.3731,-1.4312,-1.476,-1.476,-1.5009,-1.5244,-1.4809,-1.4476,-1.433,-1.393,-1.359,-1.3333,-1.3422,-1.3616,-1.3738,-1.3449,-1.3174,-1.3046,-1.3008,-1.2809,-1.2463,-1.2463,-1.2463,-1.2463,-1.2366,-1.2555,-1.29,-1.3924,-1.4457,-1.4748,-1.5521,-1.5915,-1.577,-1.5721,-1.5673,-1.5534,-1.5649,-1.5708,-1.5756,-1.578,-1.5741,-1.5554,-1.5528,-1.5528,-1.5528,-1.5528,-1.5528,-1.5528,-1.5528,-1.5528,-1.5528,-1.5528,-1.5528,-1.5528,-1.5528,-1.5528,-1.5528,-1.5528,-1.5528,-1.5528,-1.5528,-1.5528,-1.5528,-1.5528,-1.5528,-1.5528,-1.5528,-1.5528,-1.5431,-1.4851,-1.4457,-1.4409,-1.4409,-1.4409,-1.4506,-1.4409,-1.4506,-1.4354,-1.407,-1.3288,-1.3337,-1.3488,-1.3628,-1.3585,-1.3482,-1.3288,-1.3337,-1.3434,-1.3434,-1.3288,-1.3288,-1.3046,-1.2561,-1.1978,-1.1346,-1.12,-1.0762,-1.047,-1.0177,-1.0177,-0.9885,-1.0275,-0.9885,-0.9544,-0.9349,-0.9296,-0.9397,-0.9349,-0.93,-0.9349,-0.9296,-0.9296,-0.9296,-1.3239,-1.3239,-1.3566,-1.3992,-1.4471,-1.4661,-1.4951,-1.5181,-1.491,-1.4667,-1.4424,-1.437,-1.4243,-1.4054,-1.3861,-1.3835,-1.3926,-1.3226,-1.2821,-1.2617,-1.1907,-1.136,-1.1033,-1.0765,-1.0562,-1.0518,-1.0514,-1.0607,-1.1,-1.187,-1.2755,-1.3385,-1.3973,-1.4506,-1.4851,-1.4893,-1.5141,-1.5528,-1.5528,-1.541,-1.5261,-1.5235,-1.5235,-1.5228,-1.5235,-1.5228,-1.5228,-1.5235,-1.5281,-1.5386,-1.5399,-1.5399,-1.5392,-1.5399,-1.5353,-1.5248,-1.5327,-1.5451,-1.5521,-1.5528,-1.5528,-1.5528,-1.5528,-1.5528,-1.5528,-1.5528,-1.5528,-1.5528,-1.5528,-1.5528,-1.548,-1.499,-1.4651,-1.4603,-1.4603,-1.4651,-1.4651,-1.4651,-1.4603,-1.4603,-1.4064,-1.3773,-1.3682,-1.3731,-1.3676,-1.3676,-1.3773,-1.3924,-1.3773,-1.3725,-1.3531,-1.3094,-1.2269,-1.2021,-1.2318,-1.188,-1.1637,-1.1389,-1.0664,-0.9982,-1.0031,-0.9739,-0.9296,-0.9349,-0.9397,-0.9397,-0.9296,-0.9296,-0.9296,-0.9296,-0.9296,-0.9296,-0.9296,-0.9296,-0.9296,-1.3304,-1.3298,-1.3367,-1.3658,-1.4134,-1.4598,-1.4794,-1.4794,-1.4774,-1.4474,-1.4052,-1.4448,-1.4559,-1.4546,-1.394,-1.3685,-1.3636,-1.2451,-1.182,-1.1637,-1.0118,-0.9344,-0.9364,-0.8548,-0.8039,-0.8178,-0.8268,-0.8689,-0.9121,-0.9902,-1.0887,-1.2159,-1.24,-1.2915,-1.3698,-1.3842,-1.4324,-1.5305,-1.5263,-1.5058,-1.4663,-1.4631,-1.4722,-1.482,-1.4826,-1.4859,-1.499,-1.4911,-1.5024,-1.521,-1.5284,-1.5284,-1.5237,-1.519,-1.5078,-1.4905,-1.5011,-1.5208,-1.5458,-1.5497,-1.5443,-1.553,-1.5469,-1.5482,-1.5528,-1.5476,-1.5443,-1.5484,-1.5456,-1.5511,-1.5489,-1.537,-1.5189,-1.5141,-1.5044,-1.5238,-1.5044,-1.5183,-1.5093,-1.5086,-1.4409,-1.4893,-1.4264,-1.4215,-1.4457,-1.3967,-1.3827,-1.3876,-1.3919,-1.3967,-1.3773,-1.3288,-1.2167,-1.1438,-1.173,-1.2123,-1.1735,-1.1832,-1.1248,-1.0616,-1.0275,-0.9787,-0.9296,-0.9296,-0.9296,-0.9296,-0.9296,-0.9296,-0.9296,-0.9296,-0.9296,-0.9296,-0.9296,-0.9296,-0.9446,-1.3841,-1.3835,-1.4258,-1.45,-1.4631,-1.4722,-1.4768,-1.4768,-1.4761,-1.4421,-1.3841,-1.3528,-1.3397,-1.3302,-1.2452,-1.2238,-1.2383,-1.1821,-1.147,-1.1402,-1.0997,-1.0558,-1.0202,-1.0005,-0.9887,-0.9892,-0.9887,-0.9934,-1.0074,-1.0261,-1.0815,-1.1508,-1.1932,-1.2222,-1.2495,-1.2501,-1.2959,-1.3754,-1.3244,-1.3145,-1.3722,-1.3716,-1.4213,-1.5126,-1.5256,-1.54,-1.5803,-1.5848,-1.5877,-1.5895,-1.5902,-1.5902,-1.5856,-1.5542,-1.5285,-1.5231,-1.4964,-1.4899,-1.4959,-1.4965,-1.5058,-1.5269,-1.5282,-1.5333,-1.5456,-1.5182,-1.4972,-1.4985,-1.5129,-1.5241,-1.516,-1.4755,-1.4312,-1.4264,-1.3628,-1.3309,-1.3089,-1.2415,-1.1929,-1.1832,-1.12,-1.0894,-1.0762,-1.0713,-1.0991,-1.1084,-1.0762,-1.0713,-1.0713,-1.0762,-1.1098,-1.1248,-1.1248,-1.085,-1.0076,-1.0177,-1.0226,-1.0027,-0.9934,-0.9934,-0.9787,-0.9592,-0.9296,-0.9349,-0.9349,-0.9397,-0.9349,-0.9345,-0.9397,-0.9446,-0.9397,-0.9349,-0.9349,-0.9349,-0.954,-1.3508,-1.3953,-1.4226,-1.4099,-1.3743,-1.4181,-1.4314,-1.4314,-1.3914,-1.3246,-1.2526,-1.2258,-1.2152,-1.2102,-1.1532,-1.1387,-1.1587,-1.0973,-1.063,-1.047,-0.9673,-0.9172,-0.8865,-0.8524,-0.8371,-0.8374,-0.8374,-0.8374,-0.842,-0.8878,-0.92,-0.9518,-1.0263,-1.0866,-1.1279,-1.1325,-1.183,-1.2737,-1.1585,-1.1446,-1.2313,-1.2536,-1.3228,-1.4365,-1.4535,-1.498,-1.5734,-1.5778,-1.585,-1.595,-1.595,-1.595,-1.5957,-1.5688,-1.5445,-1.5356,-1.5259,-1.52,-1.5207,-1.5324,-1.5331,-1.525,-1.5084,-1.5204,-1.5733,-1.517,-1.495,-1.5315,-1.4761,-1.4528,-1.4906,-1.4246,-1.3719,-1.3767,-1.3247,-1.2916,-1.2815,-1.2342,-1.1963,-1.1674,-1.1148,-1.0774,-1.0588,-1.0588,-1.0611,-1.066,-1.0669,-1.0763,-1.0845,-1.0132,-0.9798,-1.0612,-1.101,-1.0951,-1.0889,-1.0762,-1.0762,-1.0762,-1.0372,-1.008,-1.0031,-0.9544,-0.9495,-0.9641,-0.969,-0.9787,-1.0027,-1.0027,-1.0031,-1.0031,-0.9885,-0.9694,-0.9694,-0.969,-0.9871,-1.2932,-1.362,-1.362,-1.3104,-1.233,-1.3061,-1.3491,-1.3534,-1.2631,-1.1807,-1.1079,-1.0945,-1.0901,-1.0858,-1.0734,-1.0686,-1.0642,-0.9865,-0.9523,-0.9446,-0.7894,-0.7205,-0.7167,-0.6514,-0.6197,-0.6152,-0.6195,-0.6197,-0.6289,-0.7153,-0.7519,-0.7702,-0.8444,-0.9313,-1.0135,-1.018,-1.0637,-1.1487,-1.0253,-1.0071,-1.0974,-1.147,-1.2201,-1.3048,-1.361,-1.4351,-1.516,-1.5411,-1.5601,-1.5655,-1.5662,-1.5662,-1.5662,-1.5597,-1.5509,-1.5471,-1.5575,-1.5684,-1.5691,-1.5923,-1.5856,-1.5359,-1.509,-1.5136,-1.5721,-1.505,-1.4914,-1.5443,-1.4254,-1.3655,-1.4344,-1.3847,-1.3431,-1.3419,-1.3316,-1.3166,-1.3104,-1.2874,-1.2593,-1.2133,-1.2324,-1.2025,-1.1596,-1.1632,-1.1571,-1.1834,-1.1311,-1.1696,-1.1406,-1.0657,-1.0034,-1.053,-1.1043,-1.1495,-1.1647,-1.2117,-1.1846,-1.2123,-1.1231,-1.063,-1.063,-1.0005,-0.9716,-1.0043,-1.0066,-1.0263,-1.06,-1.0776,-1.0644,-1.063,-1.0341,-1.0118,-1.0061,-1.0214,-1.0279,-1.2539,-1.2674,-1.2717,-1.2152,-1.1333,-1.1468,-1.1979,-1.2631,0.0,0.0,0.0,-1.0297,-0.9951,-0.9869,-0.9134,-0.883,-0.883,-0.8661,-0.8614,-0.8574,-0.8259,-0.8144,-0.81,-0.7999,-0.7879,-0.7919,-0.7923,-0.7923,-0.7923,-0.8098,-0.8186,-0.8226,-0.8361,-0.8537,-0.8712,-0.8712,-0.88,-0.901,-0.9155,-0.9685,-1.0579,-1.1044,-1.1605,-1.2377,-1.374,-1.442,-1.4418,-1.5732,-1.6068,-1.5344,-1.5249,-1.5257,-1.5257,-1.486,-1.4991,-1.5745,-1.5579,-1.5437,-1.5401,-1.5444,-1.5437,-1.5344,-1.5464,-1.519,-1.4266,-1.4079,-1.3732,-1.3117,-1.3106,-1.3156,-1.329,-1.3348,-1.3401,-1.3401,-1.2656,-1.2146,-1.21,-1.1371,-1.0979,-1.0723,-1.0795,-1.0677,-1.0662,-1.0612,-1.065,-1.0581,-1.0401,-1.0049,-1.0016,-1.011,-1.0153,-1.0341,-1.054,-1.0558,-1.0694,-1.0764,-1.0698,-1.0778,-1.0624,-1.0415,-1.0373,-1.0229,-1.0182,-1.0312,-1.028,-1.034,-1.0378,-1.0494,-1.0415,-1.0415,-1.0326,-1.028,-1.028,-1.0605,-1.0767,-1.1066,-1.1573,-1.1573,-1.0983,0.0,-1.0736,-1.1048,-1.1103,-1.0094,-0.9658,-0.9596,-0.9123,-0.8961,-0.9004,-0.8574,-0.8354,-0.8354,-0.8354,-0.8354,-0.8354,-0.8354,-0.8354,-0.8354,-0.8354,-0.8354,-0.8354,-0.8354,-0.8354,-0.8354,-0.8354,-0.8354,-0.8354,-0.8354,-0.8443,-0.853,-0.8439,-0.8574,-0.9047,-0.9295,-0.9658,-1.0077,-1.0528,-1.1186,-1.202,-1.3007,0.0,0.0,0.0,0.0,0.0,0.0,0.0,0.0,0.0,0.0,-1.52,-1.4382,-1.3965,-1.4162,-1.4185,-1.4371,-1.4821,-1.4987,-1.4689,-1.3872,-1.3841,-1.3481,-1.2709,-1.2273,-1.2222,-1.266,-1.2431,-1.22,-1.2194,-1.1794,-1.1487,-1.1393,-1.0991,-1.059,-1.0451,-1.0407,-1.0317,-1.0045,-0.9996,-1.0037,-1.0089,-0.988,-0.9825,-0.9896,-1.0003,-1.0139,-1.0362,-1.0438,-1.0467,-1.0327,-1.0309,-1.0318,-1.0309,-1.0309,-1.0309,-1.0309,-1.0309,-1.0406,-1.064,-1.0686,-1.082,-1.1003,-1.1095,-1.1044,-1.1049,-1.0866,-1.0675,-1.0718,-1.0907,-1.0996,-0.9968,-1.0673,-1.0667,-1.0071,-0.9233,-1.01,-1.0178,-0.9642,-0.8872,-0.841,-0.8181,-0.8144,-0.8131,-0.8254,-0.8258,-0.8258,-0.8216,-0.8258,-0.8274,-0.831,-0.831,-0.8369,-0.8354,-0.8354,-0.8354,-0.8354,-0.8354,-0.8354,-0.8354,-0.8354,-0.8354,-0.8354,-0.8354,-0.8501,-0.8621,0.0,0.0,0.0,-0.9662,-0.974,-0.9816,-1.0264,-1.0818,-1.151,-1.2157,0.0,-1.4546,-1.4999,-1.5489,-1.6077,-1.6229,0.0,0.0,0.0,0.0,0.0,0.0,0.0,0.0,0.0,0.0,0.0,-1.3996,-1.3995,-1.3785,-1.3607,-1.3133,-1.226,-1.1446,-1.1267,-1.1922,-1.1367,-1.0984,-1.0984,-1.0989,-1.1058,-1.11,-1.1106,-1.0971,-1.0619,-1.0619,-1.0446,-1.0105,-1.0004,-1.0031,-1.0188,-1.0083,-1.0103,-1.0393,-1.0222,-1.0196,-1.0543,-1.0698,-1.0689,-1.0488,-1.0503,-1.0479,-1.0426,-1.0426,-1.0462,-1.0493,-1.0452,-1.0648,-1.0962,-1.1077,-1.1199,-1.1602,-1.1698,-1.1581,-1.1693,-1.133,-1.1143,-1.131,-1.1316,-1.123,-1.0794,-1.0659,-1.0659,-1.0089,-0.9129,-0.9051,-0.8972,-0.8879,-0.8979,-0.8786,-0.8314,-0.8,-0.7811,-0.7868,-0.7872,-0.7868,-0.7872,-0.7827,-0.7993,-0.8182,-0.8186,-0.8261,-0.8354,-0.8354,-0.8354,-0.8354,-0.8354,-0.8354,-0.8354,-0.8354,-0.8354,-0.8354,-0.8354,-0.8346,-0.8443,-0.8799,-0.9169,-0.94,-0.9612,-0.985,-1.0065,-1.0337,-1.0421,-1.0392,-1.1931,-1.2737,-1.2651,-1.4371,-1.4921,-1.4108,-1.4457,-1.4701,-1.4693,-1.4626,-1.4697,0.0,-1.4423,0.0,0.0,0.0,0.0,0.0,0.0,0.0,0.0,-1.2892,-1.1765,-1.01,-1.0308,-1.0517,-1.0413,-1.0482,-1.061,-1.0721,-1.0748,-1.0832,-1.1069,-1.11,-1.1057,-1.1014,-1.1014,-1.1014,-1.0874,-1.0927,-1.0879,-1.0838,-1.0573,-1.0524,-1.0826,-1.0866,-1.0863,-1.1014,-1.0997,-1.1097,-1.1041,-1.1036,-1.0998,-1.0987,-1.1003,-1.0972,-1.0998,-1.0992,-1.1026,-1.1069,-1.1134,-1.1167,-1.1146,-1.1206,-1.12,-1.1309,-1.1227,-1.1369,-1.197,-1.1953,-1.1786,-0.9937,-0.9844,-0.9766,-0.9738,-0.9668,-0.9376,-0.9166,-0.8974,-0.9075,-0.8874,-0.8487,-0.8366,-0.8394,-0.8488,-0.8533,-0.8407,-0.8118,-0.8082,-0.8045,-0.7961,-0.7919,-0.7963,-0.803,-0.803,-0.8034,-0.803,-0.803,-0.803,-0.8034,-0.803,-0.811,-0.8357,-0.8357,-0.8378,-0.8388,-0.9079,-0.9505,-0.9578,-0.9949,-1.0388,-1.0847,-1.0844,-1.0999,-1.1396,-1.2033,-1.2621,-1.307,-1.4018,-1.4511,-1.4566,-1.4797,-1.5002,-1.5195,-1.3602,-1.3287,0.0,0.0,0.0,0.0,0.0,0.0,0.0,0.0,0.0,0.0,0.0,-1.0168,-1.0355,-1.044,-1.0376,-1.0031,-1.0143,-1.0322,-1.0351,-1.0444,-1.0565,-1.0741,-1.0801,-1.0816,-1.0773,-1.0753,-1.0805,-1.0842,-1.0863,-1.091,-1.1041,-1.0747,-1.0497,-1.046,-1.0948,-1.1277,-1.133,-1.1606,-1.1818,-1.1824,-1.1824,-1.1861,-1.1818,-1.1867,-1.1824,-1.1818,-1.1867,-1.1818,-1.1861,-1.1861,-1.1818,-1.1867,-1.1824,-1.1824,-1.1867,-1.1824,-1.1991,-1.2367,-1.233,-1.2157,-0.9463,-0.9479,-0.9714,-1.0027,-1.0368,-1.0094,-0.9728,-0.9252,-0.9252,-0.9062,-0.8688,-0.8805,-0.883,-0.8807,-0.8761,-0.8605,-0.8217,-0.826,-0.8214,-0.798,-0.802,-0.8049,-0.8086,-0.809,-0.8086,-0.8086,-0.809,-0.8086,-0.809,-0.809,-0.8198,-0.8382,-0.8296,-0.8299,-0.8365,-0.9157,-0.9692,-0.9878,-1.0317,-1.0838,-1.1301,-1.1136,-1.1464,-1.2304,-1.2211,-1.2642,-1.3613,-1.3749,-1.4178,-1.4956,-1.489,-1.4957,-1.5125,-1.2629,0.0,0.0,0.0,0.0,0.0,0.0,0.0,0.0,0.0,-1.0339,-0.9412,0.0,-0.9562,0.0,-1.0543,-1.0273,-1.0174,-1.0102,0.0,0.0,-1.0032,-1.01,-1.023,-1.0401,-1.0506,-1.0415,-1.0447,-1.0463,-1.0352,-1.0497,-1.0732,-1.09,-1.087,-1.0678,-1.039,-1.0999,-1.153,-1.1541,-1.1929,-1.2269,-1.2215,-1.2269,-1.2215,-1.2275,-1.2221,-1.2233,-1.2227,-1.2227,-1.2227,-1.2233,-1.2269,-1.2305,-1.231,-1.237,-1.2389,-1.2542,-1.2615,-1.2615,-1.2566,-1.2481,-1.2397,-1.0395,-1.0498,-1.163,-1.1748,-1.1166,-1.0905,-1.0351,-0.9711,-0.9673,-0.9446,-0.9062,-0.9115,-0.8653,-0.7898,-0.775,0.0,-0.7849,-0.8071,-0.8353,-0.8694,-0.8694,-0.8759,-0.9016,-0.9016,-0.9021,-0.9016,-0.9021,-0.9021,-0.9012,-0.9052,-0.8824,-0.8379,-0.8131,-0.808,-0.8225,-0.8857,-0.955,-1.0279,-1.0638,-1.0839,-1.0939,-1.0915,-1.1268,-1.2044,-1.2299,-1.2693,-1.3257,-1.3626,-1.3835,-1.393,-1.3592,-1.3223,-1.2894,0.0,0.0,0.0,0.0,0.0,0.0,0.0,0.0,0.0,0.0,0.0,0.0,0.0,0.0,-1.0411,-1.0033,0.0,-1.0909,-1.0237,0.0,0.0,0.0,-0.9306,-0.9599,-0.9966,-1.0149,-1.0127,0.0,0.0,-0.941,-0.998,-1.0513,-1.0534,-1.1146,-1.1568,-1.1528,-1.158,-1.1638,-1.1678,-1.1696,-1.1754,-1.1883,-1.186,-1.186,-1.1871,-1.1708,-1.1819,-1.186,-1.1819,-1.176,-1.1819,-1.1754,-1.1831,-1.2038,-1.2146,-1.2247,-1.288,-1.2951,-1.2951,-1.297,-1.2658,-1.2385,-1.1495,-1.1476,-1.1926,-1.1983,-1.1814,-1.1328,-1.1426,-1.191,-1.1376,-1.0882,-1.0521,-1.0304,-0.9491,-0.8374,-0.8311,0.0,0.0,0.0,-0.8654,-0.8549,-0.8664,-0.8759,-0.8798,-0.8802,-0.8768,-0.8768,-0.8807,-0.8807,-0.8802,-0.8768,-0.8226,-0.712,0.0,0.0,-0.7369,-0.8528,-0.9383,-0.9817,-1.05,-1.085,-1.0888,-1.114,-1.1716,-1.2715,-1.3061,-1.3421,-1.3804,-1.4155,-1.3996,-1.3151,-1.3254,-1.2999,0.0,0.0,0.0,0.0,0.0,0.0,0.0,0.0,0.0,0.0,0.0,-1.0574,-0.9644,0.0,0.0,0.0,-0.9465,-0.9058,-0.8848,-0.8789,0.0,0.0,0.0,0.0,0.0,0.0,0.0,-0.879,-0.8895,-0.891,-0.8818,-0.9662,-1.0179,-0.9936,-1.021,-1.059,-1.0789,0.0,-1.1894,-1.1894,-1.2235,-1.2456,-1.2497,-1.2517,-1.2578,-1.282,-1.2853,-1.2853,-1.2813,-1.2658,-1.2497,-1.2497,-1.2497,-1.2528,-1.2601,-1.269,-1.2895,-1.3289,-1.3182,-1.3188,-1.3671,-1.3343,-1.3141,-1.2425,0.0,0.0,0.0,0.0,-1.198,-1.2244,-1.2919,-1.2146,-1.1619,-1.1315,-1.0794,0.0,0.0,0.0,0.0,0.0,0.0,-0.8816,-0.8488,-0.8861,-0.8908,-0.8772,-0.8772,-0.8777,-0.8767,-0.8709,-0.8618,-0.8393,-0.8203,-0.7455,-0.6171,0.0,0.0,0.0,0.0,-0.941,-0.9997,-1.0818,-1.1249,-1.1293,-1.1576,-1.211,-1.2896,-1.3359,-1.3711,-1.3996,-1.4119,-1.3746,-1.2843,-1.2731,0.0,0.0,0.0,0.0,0.0,0.0,0.0,0.0,0.0,0.0,0.0,0.0,0.0,0.0,0.0,0.0,0.0,0.0,0.0,-0.8136,-0.8275,-0.8258,0.0,0.0,0.0,0.0,0.0,0.0,0.0,0.0,0.0,-0.8002,-0.9016,-0.9749,0.0,0.0,-1.0336,-1.0796,-1.1485,-1.2042,-1.2265,-1.2524,0.0,-1.279,-1.292,-1.3105,-1.3345,-1.3496,-1.3443,-1.3166,-1.3134,-1.3032,-1.2694,-1.2899,-1.3165,-1.3144,-1.2981,-1.291,-1.3153,-1.2945,-1.292,-1.3469,-1.365,-1.3663,0.0,0.0,0.0,0.0,0.0,0.0,0.0,0.0,-1.1392,-1.1151,0.0,-1.0177,0.0,0.0,0.0,0.0,0.0,-0.8412,0.0,0.0,-0.9386,-0.9579,-0.929,-0.928,-0.929,-0.9316,-0.9121,-0.8721,-0.7957,-0.7325,0.0,0.0,0.0,0.0,0.0,0.0,-0.9748,-1.094,-1.1781,-1.2157,-1.2179,-1.2223,-1.2215,-1.2327,-1.2678,-1.3073,-1.3564,-1.3142,-1.2992,-1.3136,-1.1763,0.0,0.0,0.0,0.0,0.0,0.0,0.0,0.0,0.0,0.0,0.0,0.0,0.0,0.0,0.0,0.0,0.0,0.0,0.0,0.0,-0.9327,0.0,0.0,0.0,0.0,0.0,0.0,0.0,0.0,0.0,0.0,-0.6908,-0.809,-0.9166,-0.9162,0.0,0.0,0.0,0.0,-1.193,-1.267,-1.2272,-1.1956,-1.2229,-1.2571,-1.2844,-1.2851,0.0,0.0,-1.2082,-1.2712,-1.3081,-1.2067,-1.2718,-1.341,-1.3388,-1.2606,-1.2068,-1.2243,-1.2166,-1.2019,-1.2321,-1.304,-1.3479,0.0,0.0,0.0,0.0,0.0,0.0,0.0,0.0,0.0,-1.213,-1.1334,-1.0735,0.0,0.0,0.0,0.0,0.0,0.0,0.0,0.0,-0.9323,-0.9341,-0.8697,-0.8764,-0.8616,0.0,-0.7862,-0.7505,0.0,0.0,0.0,0.0,0.0,0.0,0.0,0.0,-0.9482,-1.0202,-1.1368,-1.2004,-1.199,-1.1603,-1.1706,-1.2353,-1.2101,-1.2034,-1.221,-1.2674,-1.2575,0.0,0.0,0.0,0.0,0.0,0.0,0.0,0.0,0.0,0.0,0.0,0.0,0.0,0.0,0.0,0.0,0.0,0.0,0.0,0.0,0.0,0.0,0.0,-0.8004,0.0,0.0,0.0,0.0,0.0,0.0,0.0,0.0,0.0,-0.8634,-0.9168,-0.9789,-1.043,-1.0486,-1.0759,-1.1496,0.0,0.0,0.0,0.0,0.0,0.0,0.0,-1.1917,-1.2167,-1.2374,-1.2381,-1.1926,-1.2301,-1.2542,-1.2159,0.0,0.0,-1.2731,-1.2353,-1.2164,-1.2218,-1.2455,-1.269,-1.2977,-1.3467,-1.3842,0.0,0.0,0.0,0.0,0.0,0.0,0.0,0.0,0.0,-1.2809,-1.1522,0.0,0.0,0.0,0.0,0.0,0.0,0.0,0.0,0.0,0.0,0.0,-0.8493,-0.8577,0.0,0.0,0.0,0.0,0.0,0.0,0.0,0.0,0.0,0.0,0.0,0.0,-0.9406,-0.9973,-1.1058,-1.1665,-1.1686,-1.1429,-1.16,-1.2265,-1.2006,-1.1717,-1.1589,0.0,0.0,0.0,0.0,0.0,0.0,0.0,0.0,0.0,0.0,0.0,0.0,0.0,0.0,0.0,0.0,0.0,0.0,0.0,0.0,0.0,0.0,0.0,0.0,0.0,-0.7568,0.0,0.0,0.0,0.0,0.0,0.0,0.0,0.0,0.0,0.0,0.0,-0.9682,-1.0283,-1.0259,-1.0477,-1.1218,-1.1204,-1.1211,0.0,0.0,0.0,0.0,0.0,0.0,0.0,0.0,0.0,0.0,0.0,0.0,0.0,0.0,-1.3224,-1.2546,-1.219,-1.1962,-1.2056,0.0,0.0,0.0,0.0,0.0,0.0,0.0,0.0,0.0,0.0,0.0,0.0,0.0,0.0,0.0,-1.1579,0.0,0.0,-0.8921,0.0,0.0,0.0,0.0,0.0,0.0,0.0,0.0,0.0,0.0,0.0,0.0,0.0,0.0,0.0,0.0,0.0,0.0,0.0,0.0,0.0,0.0,-0.9543,-1.0468,-1.1017,-1.1274,-1.13,-1.1761,-1.2023,-1.2071,-1.2287,-1.221,-1.1865,0.0,0.0,0.0,0.0,0.0,0.0,0.0,0.0,0.0,0.0,0.0,0.0,0.0,0.0,0.0,0.0,0.0,0.0,0.0,0.0,0.0,0.0,0.0,0.0,0.0,0.0,-0.781,-0.8021,-0.8054,0.0,0.0,0.0,0.0,0.0,0.0,0.0,0.0,0.0,0.0,-0.9574,-1.0613,-1.1333,-1.112,-1.116,-1.1898,-1.1703,-1.1589,-1.1942,-1.2536,-1.2851,0.0,0.0,0.0,0.0,0.0,0.0,0.0,0.0,0.0,0.0,0.0,0.0,0.0,0.0,0.0,0.0,0.0,0.0,0.0,0.0,0.0,0.0,0.0,0.0,0.0,0.0,0.0,0.0,0.0,0.0,0.0,0.0,0.0,0.0,0.0,0.0,0.0,0.0,0.0,0.0,0.0,0.0,0.0,0.0,0.0,0.0,0.0,0.0,0.0,0.0,0.0,0.0,0.0,0.0,-0.9566,-1.0481,-1.111,-1.1395,-1.1388,-1.1593,-1.1759,-1.2048,-1.1863,-1.1797,0.0,0.0,0.0,0.0,0.0,0.0,0.0,0.0,0.0,0.0,0.0,0.0,0.0,0.0,0.0,0.0,0.0,0.0,0.0,0.0,0.0,0.0,0.0,0.0,0.0,0.0,0.0,0.0,-0.8662,-0.855,-0.8098,0.0,0.0,0.0,0.0,0.0,0.0,0.0,0.0,0.0,0.0,-1.0598,-1.0982,-1.0965,-1.0965,-1.1226,-1.1382,-1.1517,-1.1638,-1.1814,-1.1882,-1.1751,0.0,0.0,0.0,0.0,0.0,0.0,0.0,0.0,0.0,0.0,0.0,0.0,0.0,0.0,0.0,0.0,0.0,0.0,0.0,0.0,0.0,0.0,0.0,0.0,0.0,0.0,0.0,0.0,0.0,0.0,0.0,0.0,0.0,0.0,0.0,0.0,0.0,0.0,0.0,0.0,0.0,0.0,0.0,0.0,0.0,0.0,0.0,0.0,0.0,0.0,0.0,0.0,0.0,-0.9842,-1.0507,-1.1291,-1.1638,-1.1517,-1.1863,-1.2184,-1.2424,-1.2432,-1.2322,0.0,0.0,0.0,0.0,0.0,0.0,0.0,0.0,0.0,0.0,0.0,0.0,0.0,0.0,0.0,0.0,0.0,0.0,0.0,0.0,0.0,0.0,0.0,0.0,0.0,0.0,0.0,0.0,-0.8354,-0.8417,-0.7987,0.0,0.0,0.0,0.0,0.0,0.0,0.0,0.0,0.0,0.0,-1.0719,-1.0854,-1.0966,0.0,0.0,-1.1369,-1.165,-1.168,-1.1785,-1.1821,-1.1649,-1.1987,0.0,0.0,0.0,0.0,0.0,0.0,0.0,0.0,0.0,0.0,0.0,0.0,0.0,0.0,0.0,0.0,0.0,0.0,0.0,0.0,0.0,0.0,0.0,0.0,0.0,0.0,0.0,0.0,0.0,0.0,0.0,0.0,0.0,0.0,0.0,0.0,0.0,0.0,0.0,0.0,0.0,0.0,0.0,0.0,0.0,0.0,0.0,0.0,0.0,0.0,0.0,0.0,-1.0219,-1.0556,-1.1587,-1.1952,-1.1638,-1.2592,-1.3167,-1.3167,-1.3749,-1.3548,0.0,0.0,0.0,0.0,0.0,0.0,0.0,0.0,0.0,0.0,0.0,0.0,0.0,0.0,0.0,0.0,0.0,0.0,0.0,0.0,0.0,0.0,0.0,0.0,0.0,0.0,0.0,0.0,0.0,0.0,0.0,0.0,0.0,0.0,0.0,0.0,0.0,0.0,0.0,0.0,0.0,-1.0903,-1.0939,-1.1145,-1.1334,0.0,-1.1696,-1.1929,-1.2052,-1.2289,-1.2337,-1.1946,0.0,0.0,0.0,0.0,0.0,0.0,0.0,0.0,0.0,0.0,0.0,0.0,0.0,0.0,0.0,0.0,0.0,0.0,0.0,0.0,0.0,0.0,0.0,0.0,0.0,0.0,0.0,0.0,0.0,0.0,0.0,0.0,0.0,0.0,0.0,0.0,0.0,0.0,0.0,0.0,0.0,0.0,0.0,0.0,0.0,0.0,0.0,0.0,0.0,0.0,0.0,0.0,0.0,0.0,-1.0776,-1.2109,-1.2752,-1.2688,-1.3844,-1.448,-1.448,-1.4607,0.0,0.0,0.0,0.0,0.0,0.0,0.0,0.0,0.0,0.0,0.0,0.0,0.0,0.0,0.0,0.0,0.0,0.0,0.0,0.0,0.0,0.0,0.0,0.0,0.0,0.0,0.0,-0.6904,0.0,0.0,0.0,0.0,0.0,0.0,0.0,0.0,0.0,0.0,0.0,0.0,0.0,0.0,-1.1105,-1.1677,-1.1468,-1.1382,0.0,0.0,-1.1944,-1.2162,-1.2339,-1.2372,0.0,0.0,0.0,0.0,0.0,0.0,0.0,0.0,0.0,0.0,0.0,0.0,0.0,0.0,0.0,0.0,0.0,0.0,0.0,0.0,0.0,0.0,0.0,0.0,0.0,0.0,0.0,0.0,0.0,0.0,0.0,0.0,0.0,0.0,0.0,0.0,0.0,0.0,0.0,0.0,0.0,0.0,0.0,0.0,0.0,0.0,0.0,0.0,0.0,0.0,0.0,0.0,0.0,0.0,-1.0713,-1.1728,-1.2847,-1.3583,-1.3899,-1.4851,-1.5452,-1.5642,-1.5652,-1.5129,0.0,0.0,0.0,0.0,0.0,0.0,0.0,0.0,0.0,0.0,0.0,0.0,0.0,0.0,0.0,0.0,0.0,0.0,0.0,0.0,0.0,0.0,0.0,0.0,0.0,0.0,0.0,0.0,0.0,0.0,0.0,0.0,0.0,0.0,0.0,0.0,0.0,0.0,0.0,0.0,0.0,0.0,-1.1913,-1.1675,0.0,0.0,0.0,-1.1854,-1.2049,0.0,0.0,0.0,0.0,0.0,0.0,0.0,0.0,0.0,0.0,0.0,0.0,0.0,0.0,0.0,0.0,0.0,0.0,0.0,0.0,0.0,0.0,0.0,0.0,0.0,0.0,0.0,0.0,0.0,0.0,0.0,0.0,0.0,0.0,0.0,0.0,0.0,0.0,0.0,0.0,0.0,0.0,0.0,0.0,0.0,0.0,0.0,0.0,0.0,0.0,0.0,0.0,0.0,0.0,0.0,0.0,0.0,-1.2798,-1.3719,-1.4463,-1.5063,-1.579,-1.6377,-1.6691,-1.6712,-1.6317,0.0,0.0,0.0,0.0,0.0,0.0,0.0,0.0,0.0,0.0,0.0,0.0,0.0,0.0,0.0,0.0,0.0,0.0,0.0,0.0,0.0,0.0,0.0,0.0,0.0,0.0,0.0,0.0,0.0,0.0,0.0,0.0,0.0,0.0,0.0,0.0,0.0,0.0,0.0,0.0,0.0,-1.1997,-1.1938,-1.1754,-1.1691,0.0,0.0,-1.1787,-1.2065,-1.2372,0.0,0.0,0.0,0.0,0.0,0.0,0.0,0.0,0.0,0.0,0.0,0.0,0.0,0.0,0.0,0.0,0.0,0.0,0.0,0.0,0.0,0.0,0.0,0.0,0.0,0.0,0.0,0.0,0.0,0.0,0.0,0.0,0.0,0.0,0.0,0.0,0.0,0.0,0.0,0.0,0.0,0.0,0.0,0.0,0.0,0.0,0.0,0.0,0.0,0.0,0.0,0.0,0.0,0.0,0.0,0.0,-1.2854,-1.4424,-1.5427,-1.5758,-1.6984,-1.7672,-1.7766,-1.7777,-1.7106,0.0,0.0,0.0,0.0,0.0,0.0,0.0,0.0,0.0,0.0,0.0,0.0,0.0,0.0,0.0,0.0,0.0,0.0,0.0,0.0,0.0,0.0,0.0,0.0,0.0,0.0,0.0,0.0,0.0,0.0,0.0,0.0,0.0,0.0,0.0,0.0,0.0,0.0,0.0,0.0,0.0,-1.1998,-1.2271,-1.192,0.0,0.0,0.0,0.0,-1.3269,-1.3505,0.0,0.0,0.0,0.0,0.0,0.0,0.0,0.0,0.0,0.0,0.0,0.0,0.0,0.0,0.0,0.0,0.0,0.0,0.0,0.0,0.0,0.0,0.0,0.0,0.0,0.0,0.0,0.0,0.0,0.0,0.0,0.0,0.0,0.0,0.0,0.0,0.0,0.0,0.0,0.0,0.0,0.0,0.0,0.0,0.0,0.0,0.0,0.0,0.0,0.0,0.0,0.0,0.0,0.0,0.0,0.0,-1.3814,-1.4893,-1.5838,-1.6691,-1.761,-1.8151,-1.8256,-1.8295,-1.7786,0.0,0.0,0.0,0.0,0.0,0.0,0.0,0.0,0.0,0.0,0.0,0.0,0.0,0.0,0.0,0.0,0.0,0.0,0.0,0.0,0.0,0.0,0.0,0.0,0.0,0.0,0.0,0.0,0.0,0.0,0.0,0.0,0.0,0.0,0.0,0.0,0.0,0.0,0.0,0.0,-1.185,-1.2179,-1.2482,0.0,0.0,0.0,0.0,0.0,0.0,-1.3643,-1.4138,0.0,0.0,0.0,0.0,0.0,0.0,0.0,0.0,0.0,0.0,0.0,0.0,0.0,0.0,0.0,0.0,0.0,0.0,0.0,0.0,0.0,0.0,0.0,0.0,0.0,0.0,0.0,0.0,0.0,0.0,0.0,0.0,0.0,0.0,0.0,0.0,0.0,0.0,0.0,0.0,0.0,0.0,0.0,0.0,0.0,0.0,0.0,0.0,0.0,0.0,0.0,0.0,0.0,0.0,0.0,-1.4879,-1.536,-1.6196,-1.7453,-1.8027,-1.8381,-1.8529,-1.8587,-1.8419,-1.7993,0.0,0.0,0.0,0.0,0.0,0.0,0.0,0.0,0.0,0.0,0.0,0.0,0.0,0.0,0.0,0.0,0.0,0.0,0.0,0.0,0.0,0.0,0.0,0.0,0.0,0.0,0.0,0.0,0.0,0.0,0.0,0.0,0.0,0.0,0.0,0.0,0.0,0.0,0.0,-1.1832,-1.2389,0.0,0.0,0.0,0.0,0.0,0.0,0.0,0.0,-1.4335,0.0,0.0,0.0,0.0,0.0,0.0,0.0,0.0,0.0,0.0,0.0,0.0,0.0,0.0,0.0,0.0,0.0,0.0,0.0,0.0,0.0,0.0,0.0,0.0,0.0,0.0,0.0,0.0,0.0,0.0,0.0,0.0,0.0,0.0,0.0,0.0,0.0,0.0,0.0,0.0,0.0,0.0,0.0,0.0,0.0,0.0,0.0,0.0,0.0,0.0,0.0,0.0,0.0,0.0,0.0,0.0,-1.5937,-1.6928,-1.7505,-1.863,-1.9139,-1.8984,-1.917,-1.8949,-1.8262,0.0,0.0,0.0,0.0,0.0,0.0,0.0,0.0,0.0,0.0,0.0,0.0,0.0,0.0,0.0,0.0,0.0,0.0,0.0,0.0,0.0,0.0,0.0,0.0,0.0,0.0,0.0,0.0,0.0,0.0,0.0,0.0,0.0,0.0,0.0,0.0,0.0,0.0,-1.0536,-1.1734,0.0,0.0,0.0,0.0,0.0,0.0,0.0,0.0,-1.4867,0.0,0.0,0.0,0.0,0.0,0.0,0.0,0.0,0.0,0.0,0.0,0.0,0.0,0.0,0.0,0.0,0.0,0.0,0.0,0.0,0.0,0.0,0.0,0.0,0.0,0.0,0.0,0.0,0.0,0.0,0.0,0.0,0.0,0.0,0.0,0.0,0.0,0.0,0.0,0.0,0.0,0.0,0.0,0.0,0.0,0.0,0.0,0.0,0.0,0.0,0.0,0.0,0.0,0.0,0.0,0.0,0.0,0.0,-1.7136,-1.7593,-1.8156,-1.8339,-1.825,-1.8729,-1.8788,0.0,0.0,0.0,0.0,0.0,0.0,0.0,0.0,0.0,0.0,0.0,0.0,0.0,0.0,0.0,0.0,0.0,0.0,0.0,0.0,0.0,0.0,0.0,0.0,0.0,0.0,0.0,0.0,0.0,0.0,0.0,0.0,0.0,0.0,0.0,0.0,0.0,0.0,0.0,0.0,0.0,0.0,0.0,0.0,0.0,0.0,0.0,0.0,0.0,0.0,0.0,0.0,0.0,0.0,0.0,0.0,0.0,0.0,0.0,0.0,0.0,0.0,0.0,0.0,0.0,0.0,0.0,0.0,0.0,0.0,0.0,0.0,0.0,0.0,0.0,0.0,0.0,0.0,0.0,0.0,0.0,0.0,0.0,0.0,0.0,0.0,0.0,0.0,0.0,0.0,0.0,0.0,0.0,0.0,0.0,0.0,0.0,0.0,0.0,0.0,0.0,0.0,0.0,0.0,0.0,0.0,0.0,0.0,-1.707,-1.7522,-1.7706,-1.7756,-1.7715,-1.8051,-1.8165,0.0,0.0,0.0,0.0,0.0,0.0,0.0,0.0,0.0,0.0,0.0,0.0,0.0,0.0,0.0,0.0,0.0,0.0,0.0,0.0,0.0,0.0,0.0,0.0,0.0,0.0,0.0,0.0,0.0,0.0,0.0,0.0,0.0,0.0,0.0,0.0,0.0,0.0,0.0,0.0,0.0,0.0,0.0,0.0,0.0,0.0,0.0,0.0,-1.5738,0.0,0.0,0.0,0.0,0.0,0.0,0.0,0.0,0.0,0.0,0.0,0.0,0.0,0.0,0.0,0.0,0.0,0.0,0.0,0.0,0.0,0.0,0.0,0.0,0.0,0.0,0.0,0.0,0.0,0.0,0.0,0.0,0.0,0.0,0.0,0.0,0.0,0.0,0.0,0.0,0.0,0.0,0.0,0.0,0.0,0.0,0.0,0.0,0.0,0.0,0.0,0.0,0.0,0.0,0.0,0.0,0.0,0.0,0.0,-1.6832,-1.703,-1.8134,-1.8633,-1.8497,-1.7373,-1.6951,0.0,0.0,0.0,0.0,0.0,0.0,0.0,0.0,0.0,0.0,0.0,0.0,0.0,0.0,0.0,0.0,0.0,0.0,0.0,0.0,0.0,0.0,0.0,0.0,0.0,0.0,0.0,0.0,0.0,0.0,0.0,0.0,0.0,0.0,0.0,0.0,0.0,0.0,0.0,0.0,0.0,0.0,0.0,0.0,0.0,0.0,0.0,0.0,0.0,0.0,0.0,0.0,0.0,0.0,0.0,0.0,0.0,0.0,0.0,0.0,0.0,0.0,0.0,0.0,0.0,0.0,0.0,0.0,0.0,0.0,0.0,0.0,0.0,0.0,0.0,0.0,0.0,0.0,0.0,0.0,0.0,0.0,0.0,0.0,0.0,0.0,0.0,0.0,0.0,0.0,0.0,0.0,0.0,0.0,0.0,0.0,0.0,0.0,0.0,0.0,0.0,0.0,0.0,0.0,0.0,0.0,0.0,0.0,-1.6824,-1.7459,-1.77,-1.8042,-1.8441,-1.7339,-1.6878,0.0,0.0,0.0,0.0,0.0,0.0,0.0,0.0,0.0,0.0,0.0,0.0,0.0,0.0,0.0,0.0,0.0,0.0,0.0,0.0,0.0,0.0,0.0,0.0,0.0,0.0,0.0,0.0,0.0,0.0,0.0,0.0,0.0,0.0,0.0,0.0,0.0,0.0,0.0,0.0,0.0,0.0,0.0,0.0,0.0,0.0,0.0,0.0,0.0,0.0,0.0,0.0,0.0,0.0,0.0,0.0,0.0,0.0,0.0,0.0,0.0,0.0,0.0,0.0,0.0,0.0,0.0,0.0,0.0,0.0,0.0,0.0,0.0,0.0,0.0,0.0,0.0,0.0,0.0,0.0,0.0,0.0,0.0,0.0,0.0,0.0,0.0,0.0,0.0,0.0,0.0,0.0,0.0,0.0,0.0,0.0,0.0,0.0,0.0,0.0,0.0,0.0,0.0,0.0,0.0,0.0,0.0,0.0,0.0,-1.7478,-1.7373,-1.7622,-1.8172,-1.7242,-1.6711,0.0,0.0,0.0,0.0,0.0,0.0,0.0,0.0,0.0,0.0,0.0,0.0,0.0,0.0,0.0,0.0,0.0,0.0,0.0,0.0,0.0,0.0,0.0,0.0,0.0,0.0,0.0,0.0,0.0,0.0,0.0,0.0,0.0,0.0,0.0,0.0,0.0,0.0,0.0,0.0,0.0,0.0,0.0,0.0,0.0,0.0,0.0,0.0,0.0,0.0,0.0,0.0,0.0,0.0,0.0,0.0,0.0,0.0,0.0,0.0,0.0,0.0,0.0,0.0,0.0,0.0,0.0,0.0,0.0,0.0,0.0,0.0,0.0,0.0,0.0,0.0,0.0,0.0,0.0,0.0,0.0,0.0,0.0,0.0,0.0,0.0,0.0,0.0,0.0,0.0,0.0,0.0,0.0,0.0,0.0,0.0,0.0,0.0,0.0,0.0,0.0,0.0,0.0,0.0,0.0,0.0,0.0,0.0,0.0,-1.6591,-1.7407,-1.7922,-1.8118,-1.6864,-1.5983,0.0,0.0,0.0,0.0,0.0,0.0,0.0,0.0,0.0,0.0,0.0,0.0,0.0,0.0,0.0,0.0,0.0,0.0,0.0,0.0,0.0,0.0,0.0,0.0,0.0,0.0,0.0,0.0,0.0,0.0,0.0,0.0,0.0,0.0,0.0,0.0,0.0,0.0,0.0,0.0,0.0,0.0,0.0,0.0,0.0,0.0,0.0,0.0,0.0,0.0,0.0,0.0,0.0,0.0,0.0,0.0,0.0,0.0,0.0,0.0,0.0,0.0,0.0,0.0,0.0,0.0,0.0,0.0,0.0,0.0,0.0,0.0,0.0,0.0,0.0,0.0,0.0,0.0,0.0,0.0,0.0,0.0,0.0,0.0,0.0,0.0,0.0,0.0,0.0,0.0,0.0,0.0,0.0,0.0,0.0,0.0,0.0,0.0,0.0,0.0,0.0,0.0,0.0,0.0,0.0,0.0,0.0,0.0,0.0,-1.758,-1.8268,-1.8717,-1.8934,-1.7265,-1.6466,-1.6594,0.0,0.0,0.0,0.0,0.0,0.0,0.0,0.0,0.0,0.0,0.0,0.0,0.0,0.0,0.0,0.0,0.0,0.0,0.0,0.0,0.0,0.0,0.0,0.0,0.0,0.0,0.0,0.0,0.0,0.0,0.0,0.0,0.0,0.0,0.0,0.0,0.0,0.0,0.0,0.0,0.0,0.0,0.0,0.0,0.0,0.0,0.0,0.0,0.0,0.0,0.0,0.0,0.0,0.0,0.0,0.0,0.0,0.0,0.0,0.0,0.0,0.0,0.0,0.0,0.0,0.0,0.0,0.0,0.0,0.0,0.0,0.0,0.0,0.0,0.0,0.0,0.0,0.0,0.0,0.0,0.0,0.0,0.0,0.0,0.0,0.0,0.0,0.0,0.0,0.0,0.0,0.0,0.0,0.0,0.0,0.0,0.0,0.0,0.0,0.0,0.0,0.0,0.0,0.0,0.0,0.0,0.0,0.0,-1.8008,-1.851,-1.8729,-1.8632,-1.7624,-1.6919,0.0,0.0,0.0,0.0,0.0,0.0,0.0,0.0,0.0,0.0,0.0,0.0,0.0,0.0,0.0,0.0,0.0,0.0,0.0,0.0,0.0,0.0,0.0,0.0,0.0,0.0,0.0,0.0,0.0,0.0,0.0,0.0,0.0,0.0,0.0,0.0,0.0,0.0,0.0,0.0,0.0,0.0,0.0,0.0,0.0,0.0,0.0,0.0,0.0,0.0,0.0,0.0,0.0,0.0,0.0,0.0,0.0,0.0,0.0,0.0,0.0,0.0,0.0,0.0,0.0,0.0,0.0,0.0,0.0,0.0,0.0,0.0,0.0,0.0,0.0,0.0,0.0,0.0,0.0,0.0,0.0,0.0,0.0,0.0,0.0,0.0,0.0,0.0,0.0,0.0,0.0,0.0,0.0,0.0,0.0,0.0,0.0,0.0,0.0,0.0,0.0,0.0,0.0,0.0,0.0,0.0,0.0,0.0,-1.8314,-1.7614,-1.7956,-1.7882,-1.7021,-1.7812,-1.7194,0.0,0.0,0.0,0.0,0.0,0.0,0.0,0.0,0.0,0.0,0.0,0.0,0.0,0.0,0.0,0.0,0.0,0.0,0.0,0.0,0.0,0.0,0.0,0.0,0.0,0.0,0.0,0.0,0.0,0.0,0.0,0.0,0.0,0.0,0.0,0.0,0.0,0.0,0.0,0.0,0.0,0.0,0.0,0.0,0.0,0.0,0.0,0.0,0.0,0.0,0.0,0.0,0.0,0.0,0.0,0.0,0.0,0.0,0.0,0.0,0.0,0.0,0.0,0.0,0.0,0.0,0.0,0.0,0.0,0.0,0.0,0.0,0.0,0.0,0.0,0.0,0.0,0.0,0.0,0.0,0.0,0.0,0.0,0.0,0.0,0.0,0.0,0.0,0.0,0.0,0.0,0.0,0.0,0.0,0.0,0.0,0.0,0.0,0.0,0.0,0.0,0.0,0.0,0.0,0.0,0.0,0.0,0.0,0.0,-1.9487,0.0,-1.9247,0.0,-1.8224,-1.7312,0.0,0.0,0.0,0.0,0.0,0.0,0.0,0.0,0.0,0.0,0.0,0.0,0.0,0.0,0.0,0.0,0.0,0.0,0.0,0.0,0.0,0.0,0.0,0.0,0.0,0.0,0.0,0.0,0.0,0.0,0.0,0.0,0.0,0.0,0.0,0.0,0.0,0.0,0.0,0.0,0.0,0.0,0.0,0.0,0.0,0.0,0.0,0.0,0.0,0.0,0.0,0.0,0.0,0.0,0.0,0.0,0.0,0.0,0.0,0.0,0.0,0.0,0.0,0.0,0.0,0.0,0.0,0.0,0.0,0.0,0.0,0.0,0.0,0.0,0.0,0.0,0.0,0.0,0.0,0.0,0.0,0.0,0.0,0.0,0.0,0.0,0.0,0.0,0.0,0.0,0.0,0.0,0.0,0.0,0.0,0.0,0.0,0.0,0.0,0.0,0.0,0.0,0.0,0.0,0.0,0.0,0.0,0.0,0.0,-1.9585,-1.9704,-1.986,-2.003,-1.9573,-1.8668,0.0,0.0,0.0,0.0,0.0,0.0,0.0,0.0,0.0,0.0,0.0,0.0,0.0,0.0,0.0,0.0,0.0,0.0,0.0,0.0,0.0,0.0,0.0,0.0,0.0,0.0,0.0,0.0,0.0,0.0,0.0,0.0,0.0,0.0,0.0,0.0,0.0,0.0,0.0,0.0,0.0,0.0,0.0,0.0,0.0,0.0,0.0,0.0,0.0,0.0,0.0,0.0,0.0,0.0,0.0,0.0,0.0,0.0,0.0,0.0,0.0,0.0,0.0,0.0,0.0,0.0,0.0,0.0,0.0,0.0,0.0,0.0,0.0,0.0,0.0,0.0,0.0,0.0,0.0,0.0,0.0,0.0,0.0,0.0,0.0,0.0,0.0,0.0,0.0,0.0,0.0,0.0,0.0,0.0,0.0,0.0,0.0,0.0,0.0,0.0,0.0,0.0,0.0,0.0,0.0,0.0,0.0,0.0,0.0,-1.8311,-1.9412,-1.968,-1.8936,-2.1539,-2.1018,0.0,0.0,0.0,0.0,0.0,0.0,0.0,0.0,0.0,0.0,0.0,0.0,0.0,0.0,0.0,0.0,0.0,0.0,0.0,0.0,0.0,0.0,0.0,0.0,0.0,0.0,0.0,0.0,0.0,0.0,0.0,0.0,0.0,0.0,0.0,0.0,0.0,0.0,0.0,0.0,0.0,0.0,0.0,0.0,0.0,0.0,0.0,0.0,0.0,0.0,0.0,0.0,0.0,0.0,0.0,0.0,0.0,0.0,0.0,0.0,0.0,0.0,0.0,0.0,0.0,0.0,0.0,0.0,0.0,0.0,0.0,0.0,0.0,0.0,0.0,0.0,0.0,0.0,0.0,0.0,0.0,0.0,0.0,0.0,0.0,0.0,0.0,0.0,0.0,0.0,0.0,0.0,0.0,0.0,0.0,0.0,0.0,0.0,0.0,0.0,0.0,0.0,0.0,0.0,0.0,0.0,0.0,0.0,0.0,0.0,-2.0913,-2.0726,-2.052,-2.0935,-2.061,-1.939,0.0,0.0,0.0,0.0,0.0,0.0,0.0,0.0,0.0,0.0,0.0,0.0,0.0,0.0,0.0,0.0,0.0,0.0,0.0,0.0,0.0,0.0,0.0,0.0,0.0,0.0,0.0,0.0,0.0,0.0,0.0,0.0,0.0,0.0,0.0,0.0,0.0,0.0,0.0,0.0,0.0,0.0,0.0,0.0,0.0,0.0,0.0,0.0,0.0,0.0,0.0,0.0,0.0,0.0,0.0,0.0,0.0,0.0,0.0,0.0,0.0,0.0,0.0,0.0,0.0,0.0,0.0,0.0,0.0,0.0,0.0,0.0,0.0,0.0,0.0,0.0,0.0,0.0,0.0,0.0,0.0,0.0,0.0,0.0,0.0,0.0,0.0,0.0,0.0,0.0,0.0,0.0,0.0,0.0,0.0,0.0,0.0,0.0,0.0,0.0,0.0,0.0,0.0,0.0,0.0,0.0,0.0,0.0,0.0,0.0,-2.1705,-2.1488,-2.1476,-2.107,0.0,0.0,0.0,0.0,0.0,0.0,0.0,0.0,0.0,0.0,0.0,0.0,0.0,0.0,0.0,0.0,0.0,0.0,0.0,0.0,0.0,0.0,0.0,0.0,0.0,0.0,0.0,0.0,0.0,0.0,0.0,0.0,0.0,0.0,0.0,0.0,0.0,0.0,0.0,0.0,0.0,0.0,0.0,0.0,0.0,0.0,0.0,0.0,0.0,0.0,0.0,0.0,0.0,0.0,0.0,0.0,0.0,0.0,0.0,0.0,0.0,0.0,0.0,0.0,0.0,0.0,0.0,0.0,0.0,0.0,0.0,0.0,0.0,0.0,0.0,0.0,0.0,0.0,0.0,0.0,0.0,0.0,0.0,0.0,0.0,0.0,0.0,0.0,0.0,0.0,0.0,0.0,0.0,0.0,0.0,0.0,0.0,0.0,0.0,0.0,0.0,0.0,0.0,0.0,0.0,0.0,0.0,0.0,0.0,0.0,0.0,-2.2578,-2.2323,-2.2722,0.0,-2.0502,0.0,0.0,0.0,0.0,0.0,0.0,0.0,0.0,0.0,0.0,0.0,0.0,0.0,0.0,0.0,0.0,0.0,0.0,0.0,0.0,0.0,0.0,0.0,0.0,0.0,0.0,0.0,0.0,0.0,0.0,0.0,0.0,0.0,0.0,0.0,0.0,0.0,0.0,0.0,0.0,0.0,0.0,0.0,0.0,0.0,0.0,0.0,0.0,0.0,0.0,0.0,0.0,0.0,0.0,0.0,0.0,0.0,0.0,0.0,0.0,0.0,0.0,0.0,0.0,0.0,0.0,0.0,0.0,0.0,0.0,0.0,0.0,0.0,0.0,0.0,0.0,0.0,0.0,0.0,0.0,0.0,0.0,0.0,0.0,0.0,0.0,0.0,0.0,0.0,0.0,0.0,0.0,0.0,0.0,0.0,0.0,0.0,0.0,0.0,0.0,0.0,0.0,0.0,0.0,0.0,0.0,0.0,0.0,0.0,0.0,0.0,0.0,-2.3599,-2.2813,-2.2544,0.0,0.0,0.0,0.0,0.0,0.0,0.0,0.0,0.0,0.0,0.0,0.0,0.0,0.0,0.0,0.0,0.0,0.0,0.0,0.0,0.0,0.0,0.0,0.0,0.0,0.0,0.0,0.0,0.0,0.0,0.0,0.0,0.0,0.0,0.0,0.0,0.0,0.0,0.0,0.0,0.0,0.0,0.0,0.0,0.0,0.0,0.0,0.0,0.0,0.0,0.0,0.0,0.0,0.0,0.0,0.0,0.0,0.0,0.0,0.0,0.0,0.0,0.0,0.0,0.0,0.0,0.0,0.0,0.0,0.0,0.0,0.0,0.0,0.0,0.0,0.0,0.0,0.0,0.0,0.0,0.0,0.0,0.0,0.0,0.0,0.0,0.0,0.0,0.0,0.0,0.0,0.0,0.0,0.0,0.0,0.0,0.0,0.0,0.0,0.0,0.0,0.0,0.0,0.0,0.0,0.0,0.0,0.0,0.0,0.0,-2.4025,-2.5546,-2.4533,-2.384,-2.359,0.0,0.0,0.0,0.0,0.0,0.0,0.0,0.0,0.0,0.0,0.0,0.0,0.0,0.0,0.0,0.0,0.0,0.0,0.0,0.0,0.0,0.0,0.0,0.0,0.0,0.0,0.0,0.0,0.0,0.0,0.0,0.0,0.0,0.0,0.0,0.0,0.0,0.0,0.0,0.0,0.0,0.0,0.0,0.0,0.0,0.0,0.0,0.0,0.0,0.0,0.0,0.0,0.0,0.0,0.0,0.0,0.0,0.0,0.0,0.0,0.0,0.0,0.0,0.0,0.0,0.0,0.0,0.0,0.0,0.0,0.0,0.0,0.0,0.0,0.0,0.0,0.0,0.0,0.0,0.0,0.0,0.0,0.0,0.0,0.0,0.0,0.0,0.0,0.0,0.0,0.0,0.0,0.0,0.0,0.0,0.0,0.0,0.0,0.0,0.0,0.0,0.0,0.0,0.0,0.0,0.0,0.0,0.0,0.0,0.0,0.0,0.0,0.0,0.0,-2.3763,0.0,0.0,0.0,0.0,0.0,0.0,0.0,0.0,0.0,0.0,0.0,0.0,0.0,0.0,0.0,0.0,0.0,0.0,0.0,0.0,0.0,0.0,0.0,0.0,0.0,0.0,0.0,0.0,0.0,0.0,0.0,0.0,0.0,0.0,0.0,0.0,0.0,0.0,0.0,0.0,0.0,0.0,0.0,0.0,0.0,0.0,0.0,0.0,0.0,0.0,0.0,0.0,0.0,0.0,0.0,0.0,0.0,0.0,0.0,0.0,0.0,0.0,0.0,0.0,0.0,0.0,0.0,0.0,0.0,0.0,0.0,0.0,0.0,0.0,0.0,0.0,0.0,0.0,0.0,0.0,0.0,0.0,0.0,0.0,0.0,0.0,0.0,0.0,0.0,0.0,0.0,0.0,0.0,0.0,0.0,0.0,0.0,0.0,0.0,0.0,0.0,0.0,0.0,0.0,0.0,0.0,0.0,0.0,0.0,0.0,0.0,0.0,0.0,0.0,0.0,0.0,0.0,0.0,0.0,0.0,0.0,0.0,0.0,0.0,0.0,0.0,0.0,0.0,0.0,0.0,0.0,0.0,0.0,0.0,0.0,0.0,0.0,0.0,0.0,0.0,0.0,0.0,0.0,0.0,0.0,0.0,0.0,0.0,0.0,0.0,0.0,0.0,0.0,0.0,0.0,0.0,0.0,0.0,0.0,0.0,0.0,0.0,0.0,0.0,0.0,0.0,0.0,0.0,0.0,0.0,0.0,0.0,0.0,0.0,0.0,0.0,0.0,0.0,0.0,0.0,0.0,0.0,0.0,0.0,0.0,0.0,0.0,0.0,0.0,0.0,0.0,0.0,0.0,0.0,0.0,0.0,0.0,0.0,0.0,0.0,0.0,0.0,0.0,0.0,0.0,0.0,0.0,0.0,0.0,0.0,0.0,0.0,0.0,0.0,0.0,0.0,0.0,0.0,0.0,0.0,0.0,0.0,0.0,0.0,0.0,0.0,0.0,0.0,0.0,0.0,0.0,0.0,0.0,0.0,0.0,0.0,0.0,0.0,0.0,0.0,0.0,0.0,0.0,0.0,0.0,0.0,0.0,0.0,0.0,0.0,0.0,0.0,0.0,0.0,0.0,0.0,0.0,0.0,0.0,0.0,0.0,0.0,0.0,0.0,0.0,0.0,0.0,0.0,0.0,0.0,0.0,0.0,0.0,0.0,0.0,0.0,0.0,0.0,0.0,0.0,0.0,0.0,0.0,0.0,0.0,0.0,0.0,0.0,0.0,0.0,0.0,0.0,0.0,0.0,0.0,0.0,0.0,0.0,0.0,0.0,0.0,0.0,0.0,0.0,0.0,0.0,0.0,0.0,0.0,0.0,0.0,0.0,0.0,0.0,0.0,0.0,0.0,0.0,0.0,0.0,0.0,0.0,0.0,0.0,0.0,0.0,0.0,0.0,0.0,0.0,0.0,0.0,0.0,0.0,0.0,0.0,0.0,0.0,0.0,0.0,0.0,0.0,0.0,0.0,0.0,0.0,0.0,0.0,0.0,0.0,0.0,0.0,0.0,0.0,0.0,0.0,0.0,0.0,0.0,0.0,0.0,0.0,0.0,0.0,0.0,0.0,0.0,0.0,0.0,0.0,0.0,0.0,0.0,0.0,0.0,0.0,0.0,0.0,0.0,0.0,0.0,0.0,0.0,0.0,0.0,0.0,0.0,0.0,0.0,0.0,0.0,0.0,0.0,0.0,0.0,0.0,0.0,0.0,0.0,0.0,0.0,0.0,0.0,0.0,0.0,0.0,0.0,0.0,0.0,0.0,0.0,0.0,0.0,0.0,0.0,0.0,0.0,0.0,0.0,0.0,0.0,0.0,0.0,0.0,0.0,0.0,0.0,0.0,0.0,0.0,0.0,0.0,0.0,0.0,0.0,0.0,0.0,0.0,0.0,0.0,0.0,0.0,0.0,0.0,0.0,0.0,0.0,0.0,0.0,0.0,0.0,0.0,0.0,0.0,0.0,0.0,0.0,0.0,0.0,0.0,0.0,0.0,0.0,0.0,0.0,0.0,0.0,0.0,0.0,0.0,0.0,0.0,0.0,0.0,0.0,0.0,0.0,0.0,0.0,0.0,0.0,0.0,0.0,0.0,0.0,0.0,0.0,0.0,0.0,0.0,0.0,0.0,0.0,0.0,0.0,0.0,0.0,0.0,0.0,0.0,0.0,0.0,0.0,0.0,0.0,0.0,0.0,0.0,0.0,0.0,0.0,0.0,0.0,0.0,0.0,0.0,0.0,0.0,0.0,0.0,0.0,0.0,0.0,0.0,0.0,0.0,0.0,0.0,0.0,0.0,0.0,0.0,0.0,0.0,0.0,0.0,0.0,0.0,0.0,0.0,0.0,0.0,0.0,0.0,0.0,0.0,0.0,0.0,0.0,0.0,0.0,0.0,0.0,0.0,0.0,0.0,0.0,0.0,0.0,0.0,0.0,0.0,0.0,0.0,0.0,0.0,0.0,0.0,0.0,0.0,0.0,0.0,0.0,0.0,0.0,0.0,0.0,0.0,0.0,0.0,0.0,0.0,0.0,0.0,0.0,0.0,0.0,0.0,0.0,0.0,0.0,0.0,0.0,0.0,0.0,0.0,0.0,0.0,0.0,0.0,0.0,0.0,0.0,0.0,0.0,0.0,0.0,0.0,0.0,0.0,0.0,0.0,0.0,0.0,0.0,0.0,0.0,0.0,0.0,0.0,0.0,0.0,0.0,0.0,0.0,0.0,0.0,0.0,0.0,0.0,0.0,0.0,0.0,0.0,0.0,0.0,0.0,0.0,0.0,0.0,0.0,0.0,0.0,0.0,0.0,0.0,0.0,0.0,0.0,0.0,0.0,0.0,0.0,0.0,0.0,0.0,0.0,0.0,0.0,0.0,0.0,0.0,0.0,0.0,0.0,0.0,0.0,0.0,0.0,0.0,0.0,0.0,0.0,0.0,0.0,0.0,0.0,0.0,0.0,0.0,0.0,0.0,0.0,0.0,0.0,0.0,0.0,0.0,0.0,0.0,0.0,0.0,0.0,0.0,0.0,0.0,0.0,0.0,0.0,0.0,0.0,0.0,0.0,0.0,0.0,0.0,0.0,0.0,0.0,0.0,0.0,0.0,0.0,0.0,0.0,0.0,0.0,0.0,0.0,0.0,0.0,0.0,0.0,0.0,0.0,0.0,0.0,0.0,0.0,0.0,0.0,0.0,0.0,0.0,0.0,0.0,0.0,0.0,0.0,0.0,0.0,0.0,0.0,0.0,0.0,0.0,0.0,0.0,0.0,0.0,0.0,0.0,0.0,0.0,0.0,0.0,0.0,0.0,0.0,0.0,0.0,0.0,0.0,0.0,0.0,0.0,0.0,0.0,0.0,0.0,0.0,0.0,0.0,0.0,0.0,0.0,0.0,0.0,0.0,0.0,0.0,0.0,0.0,0.0,0.0,0.0,0.0,0.0,0.0,0.0,0.0,0.0,0.0,0.0,0.0,0.0,0.0,0.0,0.0,0.0,0.0,0.0,0.0,0.0,0.0,0.0,0.0,0.0,0.0,0.0,0.0,0.0,0.0,0.0,0.0,0.0,0.0,0.0,0.0,0.0,0.0,0.0,0.0,0.0,0.0,0.0,0.0,0.0,0.0,0.0,0.0,0.0,0.0,0.0,0.0,0.0,0.0,0.0,0.0,0.0,0.0,0.0,0.0,0.0,0.0,0.0,0.0,0.0,0.0,0.0,0.0,0.0,0.0,0.0,0.0,0.0,0.0,0.0,0.0,0.0,0.0,0.0,0.0,0.0,0.0,0.0,0.0,0.0,0.0,0.0,0.0,0.0,0.0,0.0,0.0,0.0,0.0,0.0,0.0,0.0,0.0,0.0,0.0,0.0,0.0,0.0,0.0,0.0,0.0,0.0,0.0,0.0,0.0,0.0,0.0,0.0,0.0,0.0,0.0,0.0,0.0,0.0,0.0,0.0,0.0,0.0,0.0,0.0,0.0,0.0,0.0,0.0,0.0,0.0,0.0,0.0,0.0,0.0,0.0,0.0,0.0,0.0,0.0,0.0,0.0,0.0,0.0,0.0,0.0,0.0,0.0,0.0,0.0,0.0,0.0,0.0,0.0,0.0,0.0,0.0,0.0,0.0,0.0,0.0,0.0,0.0,0.0,0.0,0.0,0.0,0.0,0.0,0.0,0.0,0.0,0.0,0.0,0.0,0.0,0.0,0.0,0.0,0.0,0.0,0.0,0.0,0.0,0.0,0.0,0.0,0.0,0.0,0.0,0.0,0.0,0.0,0.0,0.0,0.0,0.0,0.0,0.0,0.0,0.0,0.0,0.0,0.0,0.0]}],[{"header":{"parameterUnit":"kt","parameterCategory":2,"dx":1,"dy":1,"la1":29.587661999999998,"la2":31.0,"lo1":-88.76705300000003,"lo2":-86.6583820000003,"nx":115,"ny":88,"refTime":"2022-10-13T12:00:00:Z","depth":0,"parameterNumber":2,"parameterNumberName":"V-component_of_WINDS"},"data":[9.478,9.4605,9.4481,9.4392,9.4356,9.4428,9.4321,9.4084,9.4321,9.4392,9.4392,9.4606,9.4746,9.457,9.478,9.5075,9.5327,9.5396,9.5507,9.5648,9.5664,9.5659,9.5706,9.5852,9.6043,9.614,9.6155,9.6222,9.617,9.6186,9.6237,9.6237,9.6237,9.6237,9.6237,9.6237,9.6237,9.642,9.7003,9.7603,9.7186,9.8098,9.8807,10.0085,10.1853,10.2202,10.2767,10.4647,10.5474,10.6159,10.6507,10.6791,10.7191,10.7631,10.8087,10.8251,10.8251,10.8251,10.8251,10.8251,10.8251,10.8251,10.8251,10.8251,10.8176,10.8176,10.7391,10.7391,10.6783,10.6783,10.682,10.682,10.7343,10.7343,10.7615,10.7653,10.8027,10.8176,10.8176,10.8176,10.7952,10.7503,10.7391,10.6857,10.6857,10.6633,10.6596,10.6596,10.6035,10.6371,10.6409,10.5586,10.4838,10.4427,10.3679,10.2996,10.2099,10.1314,10.0379,9.9417,9.8791,9.8566,9.8529,9.8529,9.8529,9.8529,9.8529,9.8529,9.8529,9.8529,9.8529,9.8529,9.8529,9.8716,9.8866,9.502,9.4916,9.4604,9.4446,9.4428,9.4463,9.4428,9.4357,9.4338,9.432,9.4356,9.4694,9.4816,9.4868,9.4969,9.5191,9.5343,9.5429,9.554,9.5664,9.5754,9.58,9.5899,9.6006,9.614,9.6186,9.6237,9.6237,9.6237,9.6237,9.6237,9.6237,9.6237,9.6237,9.6237,9.6237,9.6237,9.6383,9.6909,9.7311,9.8427,9.9741,10.0027,10.094,10.2384,10.3954,10.4427,10.4789,10.4197,10.4664,10.5094,10.5413,10.5916,10.6763,10.7387,10.7568,10.7456,10.7578,10.7765,10.7615,10.7765,10.7989,10.8251,10.8214,10.8102,10.7428,10.6147,10.5437,10.4464,10.4128,10.4165,10.4352,10.5212,10.5736,10.6184,10.6531,10.7316,10.8027,10.8027,10.8027,10.7241,10.6222,10.5586,10.4614,10.4315,10.4016,10.3941,10.4016,10.4315,10.495,10.4651,10.3829,10.3193,10.338,10.3343,10.2473,10.1426,10.0753,10.0454,9.9417,9.8641,9.8566,9.8529,9.8529,9.8529,9.8529,9.8529,9.8529,9.8529,9.8529,9.8529,9.8529,9.8529,9.8529,9.8529,9.5357,9.526,9.4935,9.4744,9.4728,9.4762,9.4656,9.4499,9.4553,9.4589,9.4624,9.4623,9.4747,9.4868,9.492,9.5109,9.5376,9.5429,9.5588,9.5691,9.5795,9.5909,9.6006,9.6119,9.6201,9.6237,9.6237,9.6237,9.6237,9.6237,9.6237,9.6237,9.6237,9.6237,9.6237,9.6237,9.6237,9.6274,9.7274,9.7858,9.8479,9.9036,9.9557,10.0326,10.1112,10.1773,10.2718,10.3219,10.3072,10.3512,10.3726,10.4022,10.4444,10.5269,10.5603,10.5698,10.5736,10.5549,10.5474,10.5399,10.5324,10.5287,10.5474,10.5885,10.5997,10.5447,10.4165,10.3941,10.2969,10.2772,10.2772,10.2819,10.3604,10.4165,10.4577,10.4988,10.5661,10.6184,10.6147,10.6072,10.5474,10.4577,10.4203,10.3305,10.3156,10.2969,10.3333,10.3632,10.3632,10.3978,10.252,10.1399,10.0698,10.0651,10.1613,10.1351,10.0594,10.0641,10.0529,9.9529,9.8641,9.8566,9.8529,9.8529,9.8529,9.8529,9.8529,9.8529,9.8529,9.8529,9.8529,9.8529,9.8529,9.8529,9.8529,9.5568,9.5478,9.5191,9.5003,9.4937,9.502,9.4865,9.4622,9.4815,9.492,9.4973,9.478,9.478,9.5041,9.5075,9.5213,9.5462,9.556,9.5648,9.5769,9.5909,9.6058,9.6149,9.6186,9.6201,9.6237,9.6237,9.6237,9.6237,9.6237,9.6237,9.6237,9.6237,9.6237,9.6237,9.6237,9.6237,9.6274,9.6967,9.7514,9.7895,9.8138,9.8764,9.9549,10.0588,10.1193,10.1415,10.1831,10.1946,10.2131,10.2321,10.2528,10.2847,10.3295,10.3408,10.3408,10.3781,10.3894,10.3931,10.4006,10.4016,10.3754,10.3679,10.3482,10.3071,10.2558,10.2221,10.2146,10.2034,10.1997,10.1959,10.1997,10.2184,10.251,10.2847,10.3221,10.3595,10.3669,10.3669,10.3408,10.3108,10.2847,10.2735,10.2483,10.2371,10.2296,10.2323,10.2323,10.2072,10.181,10.0361,9.995,9.8978,9.9033,9.9734,9.9949,9.9752,9.9752,9.9781,9.9342,9.8716,9.8604,9.8529,9.8529,9.8529,9.8529,9.8529,9.8529,9.8529,9.8529,9.8529,9.8529,9.8529,9.8529,9.8529,9.5611,9.5564,9.5205,9.5071,9.5054,9.5054,9.5001,9.5001,9.502,9.5157,9.5277,9.5124,9.5071,9.521,9.528,9.5363,9.5478,9.562,9.5727,9.5847,9.5976,9.6104,9.6186,9.6237,9.6237,9.6237,9.6237,9.6237,9.6237,9.6237,9.6237,9.6237,9.6237,9.6237,9.6237,9.6237,9.632,9.643,9.6767,9.6972,9.7169,9.7797,9.8728,9.9251,10.0273,10.1318,10.136,10.1052,10.0527,10.0139,10.002,10.0043,10.1099,10.2136,10.2819,10.2969,10.267,10.2632,10.2558,10.252,10.2782,10.2959,10.3333,10.2819,10.181,10.0987,10.0277,10.0062,10.0249,10.0239,10.0277,10.0314,10.0576,10.095,10.1202,10.1511,10.1847,10.2072,10.2034,10.1959,10.1613,10.1212,10.1062,10.0726,10.0511,9.9613,9.9464,9.9539,9.9426,9.9464,9.8978,9.894,9.8613,9.8733,9.9192,9.9286,9.9032,9.8893,9.8847,9.8566,9.8604,9.8566,9.8529,9.8529,9.8529,9.8529,9.8529,9.8529,9.8529,9.8529,9.8529,9.8529,9.8529,9.8529,9.8529,9.5706,9.5596,9.5373,9.5191,9.5071,9.5035,9.5035,9.5035,9.5035,9.5105,9.5191,9.5105,9.5105,9.5224,9.5277,9.5327,9.5462,9.5584,9.5743,9.5852,9.5945,9.6073,9.6186,9.6237,9.6237,9.6237,9.6237,9.6237,9.6237,9.6237,9.6237,9.6237,9.6237,9.6237,9.6231,9.629,9.6445,9.672,9.6861,9.6901,9.7149,9.758,9.8025,9.8437,9.8769,9.9427,9.9617,9.9527,9.9267,9.9131,9.9001,9.894,9.9426,10.0015,10.0501,10.0688,10.0726,10.08,10.0838,10.0698,10.0539,10.0426,10.0324,10.0586,9.995,9.9688,9.9053,9.8529,9.8529,9.8529,9.8529,9.8604,9.9043,9.9454,9.9641,9.9828,10.0165,10.0539,10.0576,10.0539,10.0239,9.9791,9.9389,9.894,9.8529,9.8529,9.8529,9.8529,9.8529,9.8529,9.8529,9.8529,9.8519,9.848,9.8556,9.8734,9.8725,9.8697,9.8529,9.8529,9.8529,9.8529,9.8529,9.8529,9.8529,9.8529,9.8529,9.8529,9.8529,9.8529,9.8529,9.8529,9.8529,9.8529,9.8529,9.5748,9.5659,9.5507,9.5363,9.5191,9.5205,9.5221,9.5185,9.5221,9.5238,9.5221,9.5172,9.5241,9.5221,9.5238,9.5357,9.5491,9.5588,9.5763,9.5837,9.5976,9.6073,9.6155,9.6237,9.6237,9.6237,9.6237,9.6237,9.6237,9.6237,9.6237,9.6237,9.6237,9.6335,9.6379,9.6408,9.683,9.7137,9.7265,9.7277,9.7364,9.7438,9.7707,9.7953,9.8241,9.8511,9.8765,9.8696,9.8678,9.866,9.8557,9.8529,9.8529,9.8529,9.8529,9.8529,9.8529,9.8529,9.8529,9.8566,9.8753,9.894,9.8828,9.8566,9.8529,9.8679,9.8679,9.8529,9.8529,9.8529,9.8529,9.8529,9.8753,9.8931,9.8968,9.9127,9.9202,9.9426,9.9426,9.9389,9.9352,9.8978,9.8903,9.8529,9.8548,9.8538,9.8529,9.8529,9.8529,9.8529,9.8529,9.852,9.8528,9.849,9.8519,9.8538,9.851,9.8529,9.8529,9.8529,9.8529,9.8529,9.8529,9.8529,9.8529,9.8529,9.8529,9.8529,9.8529,9.8529,9.8529,9.8529,9.8529,9.8529,9.8529,9.5795,9.5748,9.5503,9.5445,9.5445,9.552,9.5564,9.558,9.558,9.5564,9.5564,9.5478,9.5442,9.5548,9.558,9.5616,9.5664,9.5987,9.5945,9.5924,9.6037,9.6119,9.6201,9.6237,9.6237,9.6237,9.6237,9.6237,9.6237,9.6237,9.6237,9.6237,9.6237,9.6423,9.6617,9.6734,9.7018,9.7365,9.7523,9.757,9.7641,9.7558,9.779,9.7957,9.8085,9.8267,9.8433,9.8529,9.8529,9.8529,9.8529,9.8529,9.8529,9.8529,9.8529,9.8529,9.8529,9.8529,9.8529,9.8529,9.8529,9.8529,9.8529,9.8529,9.8529,9.8529,9.8529,9.8529,9.8529,9.8529,9.8529,9.8529,9.8529,9.8529,9.8529,9.8529,9.8529,9.8548,9.8548,9.8548,9.8548,9.8585,9.8594,9.8557,9.8539,9.8539,9.8566,9.8548,9.8548,9.8538,9.852,9.8548,9.8501,9.85,9.849,9.85,9.8519,9.8529,9.8529,9.8529,9.8529,9.8529,9.8529,9.8529,9.8529,9.8529,9.8529,9.8529,9.8529,9.8529,9.8529,9.8529,9.8529,9.8529,9.8529,9.5976,9.5847,9.5722,9.562,9.5478,9.5604,9.5648,9.5632,9.5556,9.5572,9.56,9.5507,9.5523,9.5616,9.5664,9.568,9.5785,9.5945,9.5893,9.614,9.6186,9.6201,9.6237,9.6237,9.6237,9.6237,9.6237,9.6237,9.6237,9.6237,9.6237,9.6237,9.6216,9.6416,9.6687,9.6884,9.7086,9.7558,9.7699,9.7753,9.7978,9.8064,9.8137,9.8277,9.8337,9.8366,9.8491,9.8529,9.8529,9.8529,9.8529,9.8529,9.8529,9.8529,9.8529,9.8529,9.8529,9.8529,9.8529,9.8529,9.8529,9.8529,9.8529,9.8529,9.8529,9.8529,9.8529,9.8529,9.8529,9.8529,9.8529,9.8529,9.8529,9.8529,9.8529,9.8538,9.8548,9.8529,9.8538,9.8566,9.8575,9.8657,9.8692,9.8602,9.8594,9.8584,9.8602,9.8575,9.8604,9.8557,9.8538,9.8529,9.8529,9.852,9.8547,9.8501,9.852,9.8529,9.8529,9.8529,9.8529,9.852,9.8538,9.8529,9.8529,9.8529,9.8529,9.8529,9.8529,9.8529,9.8529,9.8529,9.8529,9.8529,9.8529,9.6104,9.5924,9.5878,9.5722,9.562,9.5763,9.5774,9.5727,9.57,9.57,9.5695,9.56,9.5632,9.5695,9.5759,9.5785,9.5909,9.596,9.6028,9.6222,9.6201,9.6237,9.6237,9.6237,9.6237,9.6237,9.6237,9.6237,9.6237,9.6237,9.6237,9.6237,9.6231,9.6379,9.656,9.683,9.7086,9.7664,9.7824,9.7957,9.8287,9.8344,9.8384,9.8501,9.8501,9.851,9.8529,9.8529,9.8529,9.8529,9.8529,9.8529,9.8529,9.8529,9.8529,9.8529,9.8529,9.8529,9.8529,9.8529,9.8529,9.8529,9.8529,9.8529,9.8529,9.8529,9.8529,9.8529,9.8529,9.8529,9.8529,9.8529,9.8529,9.8529,9.8538,9.8548,9.8548,9.8565,9.8573,9.861,9.8666,9.8736,9.8724,9.8672,9.8719,9.8745,9.869,9.8675,9.8667,9.861,9.8582,9.8603,9.8566,9.8604,9.8613,9.8612,9.8639,9.8594,9.8566,9.8548,9.8539,9.8557,9.8539,9.8538,9.8529,9.8529,9.8529,9.8529,9.8529,9.8529,9.8529,9.8529,9.8529,9.8529,9.8529,9.6222,9.617,9.596,9.5811,9.5831,9.6073,9.6058,9.5878,9.6043,9.6043,9.5899,9.5816,9.5795,9.5883,9.5847,9.596,9.614,9.617,9.6186,9.6222,9.6237,9.6237,9.6237,9.6237,9.6237,9.6237,9.6237,9.6237,9.6237,9.6237,9.6237,9.6237,9.6237,9.6246,9.6297,9.658,9.6954,9.7315,9.7401,9.7618,9.7902,9.8032,9.8226,9.8366,9.8491,9.8529,9.8529,9.8529,9.8529,9.8529,9.8529,9.8529,9.8529,9.8529,9.8529,9.8529,9.8529,9.8529,9.8529,9.8529,9.8529,9.8529,9.8529,9.8529,9.8529,9.8529,9.8529,9.8529,9.8529,9.8529,9.8529,9.8529,9.8529,9.8538,9.8557,9.8539,9.8565,9.8582,9.8672,9.8727,9.8762,9.8758,9.8758,9.8729,9.8829,9.8838,9.8775,9.875,9.8762,9.8724,9.8724,9.869,9.8701,9.8666,9.8621,9.8664,9.8707,9.8617,9.8582,9.8628,9.8619,9.8574,9.852,9.852,9.8538,9.8529,9.8529,9.8529,9.8529,9.8529,9.8529,9.8538,9.8529,9.8529,9.8529,9.6104,9.5976,9.6037,9.5991,9.5878,9.6125,9.6134,9.614,9.6222,9.617,9.6125,9.5909,9.5909,9.6073,9.6089,9.617,9.6186,9.6237,9.6237,9.6237,9.6237,9.6237,9.6237,9.6237,9.6237,9.6237,9.6237,9.6237,9.6237,9.6237,9.6231,9.6231,9.6237,9.6246,9.6275,9.6364,9.6588,9.6898,9.7031,9.7176,9.7557,9.7835,9.8122,9.8148,9.8453,9.852,9.8529,9.8529,9.8529,9.8529,9.8529,9.8529,9.8529,9.8529,9.8529,9.8529,9.8529,9.8529,9.8529,9.8529,9.8529,9.8529,9.8529,9.8529,9.8529,9.8529,9.8529,9.8529,9.8529,9.8529,9.8529,9.8538,9.8548,9.8585,9.8566,9.8612,9.8637,9.8698,9.8779,9.8783,9.8833,9.8882,9.8874,9.8865,9.889,9.8897,9.8874,9.8857,9.8825,9.8808,9.8808,9.88,9.8783,9.8707,9.8628,9.8661,9.8721,9.8678,9.8716,9.8687,9.8661,9.8582,9.8528,9.8538,9.8548,9.8538,9.8548,9.8576,9.8567,9.8548,9.8548,9.8567,9.8567,9.8567,9.8557,9.593,9.5769,9.596,9.5976,9.5862,9.6104,9.6237,9.6237,9.6237,9.6237,9.6222,9.6073,9.6073,9.617,9.6237,9.6237,9.6237,9.6237,9.6237,9.6237,9.6237,9.6237,9.6237,9.6237,9.6237,9.6237,9.6237,9.6237,9.6237,9.6237,9.6261,9.6386,9.6474,9.6502,9.6622,9.6789,9.6884,9.707,9.7073,9.724,9.7582,9.788,9.8043,9.8148,9.8491,9.852,9.8529,9.8529,9.8529,9.8529,9.8529,9.8529,9.8529,9.8529,9.8529,9.8529,9.8529,9.8529,9.8529,9.8529,9.8529,9.8529,9.8529,9.8529,9.8529,9.8529,9.8529,9.8529,9.8529,9.852,9.8529,9.8548,9.8566,9.8612,9.8657,9.8672,9.8724,9.8829,9.8908,9.8874,9.8929,9.896,9.8952,9.8945,9.896,9.8938,9.8968,9.8952,9.8913,9.8882,9.8852,9.8844,9.8844,9.8787,9.8767,9.8775,9.8771,9.88,9.88,9.88,9.88,9.8678,9.8626,9.8582,9.8593,9.8556,9.8575,9.8585,9.8612,9.8648,9.8639,9.864,9.8622,9.8585,9.8585,9.5754,9.5648,9.5769,9.5816,9.5837,9.6058,9.617,9.6155,9.6186,9.6237,9.6237,9.6201,9.6186,9.6237,9.6237,9.6237,9.6237,9.6237,9.6237,9.6237,9.6216,9.6246,9.629,9.6275,9.6231,9.629,9.6216,9.6216,9.6216,9.635,9.6631,9.6789,9.6843,9.706,9.7176,9.7213,9.7289,9.7277,9.7302,9.7535,9.7733,9.7957,9.8096,9.8404,9.8491,9.8529,9.8529,9.8529,9.8529,9.8529,9.8529,9.8529,9.8529,9.8529,9.8529,9.8529,9.8529,9.8529,9.8529,9.8529,9.8529,9.8529,9.8529,9.8529,9.8529,9.8529,9.8529,9.8529,9.852,9.8548,9.8519,9.8564,9.86,9.8681,9.8753,9.8796,9.8838,9.8941,9.8951,9.896,9.8938,9.8938,9.8968,9.8968,9.8938,9.8938,9.8968,9.8968,9.8899,9.8891,9.8907,9.8915,9.8915,9.8891,9.8919,9.8903,9.8857,9.8857,9.8874,9.8882,9.8919,9.8887,9.8792,9.875,9.8644,9.86,9.861,9.8637,9.871,9.8762,9.877,9.8727,9.8701,9.8675,9.8621,9.5675,9.5491,9.5632,9.5632,9.5572,9.5821,9.596,9.5976,9.6134,9.6252,9.6237,9.6267,9.6267,9.6252,9.6297,9.6305,9.6246,9.6237,9.6237,9.6237,9.6246,9.6438,9.6517,9.6408,9.6386,9.6673,9.6445,9.6335,9.6481,9.6734,9.7097,9.7227,9.724,9.7327,9.7389,9.7462,9.7499,9.7499,9.7487,9.7535,9.7616,9.788,9.8032,9.8168,9.8357,9.8529,9.8529,9.8529,9.8529,9.8529,9.8529,9.8529,9.8529,9.8529,9.8529,9.8529,9.8529,9.8529,9.8529,9.8529,9.8529,9.8529,9.8529,9.8529,9.8538,9.8529,9.8529,9.8557,9.8557,9.8565,9.8564,9.8672,9.8724,9.8767,9.8854,9.8908,9.8941,9.8951,9.896,9.8938,9.8938,9.8938,9.8938,9.8938,9.8938,9.8938,9.8938,9.8938,9.893,9.893,9.893,9.893,9.893,9.8945,9.8913,9.8943,9.8943,9.8943,9.8937,9.8945,9.8929,9.8905,9.8919,9.8871,9.8767,9.8716,9.8672,9.8716,9.8787,9.8804,9.8804,9.8796,9.8767,9.8724,9.8681,9.6218,9.6033,9.6086,9.6078,9.6067,9.6233,9.6335,9.64,9.6509,9.6617,9.6659,9.6659,9.6664,9.6748,9.6757,9.672,9.672,9.6761,9.6757,9.6761,9.6775,9.6834,9.6928,9.6871,9.6803,9.7005,9.6857,9.6701,9.683,9.7176,9.7511,9.7606,9.7664,9.7687,9.7946,9.7902,9.7869,9.7895,9.7869,9.7917,9.7972,9.8112,9.8236,9.8257,9.8453,9.852,9.8529,9.8529,9.8529,9.8529,9.8529,9.8529,9.8529,9.8529,9.8529,9.8529,9.8529,9.8529,9.8529,9.8529,9.8529,9.8529,9.8529,9.8557,9.8566,9.8603,9.863,9.8658,9.8666,9.8681,9.8724,9.8813,9.8846,9.8849,9.8905,9.8959,9.8937,9.893,9.8938,9.8938,9.8938,9.8938,9.8938,9.8938,9.8938,9.8938,9.8938,9.8938,9.8938,9.8938,9.8938,9.8938,9.893,9.896,9.8945,9.8967,9.8959,9.8967,9.896,9.8945,9.8952,9.8952,9.8937,9.8897,9.8825,9.8813,9.8787,9.8796,9.8813,9.8821,9.8829,9.8841,9.8882,9.8841,9.8767,9.694,9.681,9.6784,9.6777,9.6738,9.6861,9.6918,9.6941,9.6904,9.7086,9.7073,9.7126,9.7201,9.7252,9.729,9.7389,9.734,9.7314,9.7276,9.7264,9.7252,9.7315,9.7413,9.7438,9.7327,9.7426,9.7365,9.7426,9.7521,9.757,9.7756,9.7978,9.8091,9.8185,9.8384,9.8337,9.8529,9.851,9.8491,9.8491,9.8481,9.8481,9.8501,9.8501,9.852,9.8529,9.8529,9.8529,9.8529,9.8529,9.8529,9.8529,9.8529,9.8529,9.8529,9.8529,9.8529,9.8529,9.8538,9.8548,9.852,9.8529,9.8585,9.8575,9.8602,9.8681,9.8753,9.8787,9.8758,9.8783,9.89,9.8949,9.8951,9.8945,9.896,9.8968,9.8938,9.8938,9.8938,9.8938,9.8938,9.8938,9.8938,9.8938,9.8938,9.8938,9.8938,9.8938,9.8938,9.8938,9.8938,9.8938,9.8938,9.8938,9.896,9.8937,9.8929,9.8937,9.8929,9.8913,9.8897,9.8882,9.8905,9.889,9.8903,9.8846,9.8804,9.8804,9.8829,9.8838,9.8792,9.8865,9.8952,9.8959,9.8924,9.7014,9.681,9.6801,9.6688,9.6568,9.6766,9.6884,9.6884,9.6981,9.7073,9.7036,9.7176,9.7252,9.7277,9.7352,9.7414,9.7389,9.7463,9.745,9.7474,9.7474,9.7618,9.765,9.7592,9.7594,9.779,9.7616,9.7711,9.8075,9.8216,9.8344,9.8384,9.8423,9.8491,9.8547,9.8529,9.8529,9.8529,9.8529,9.8529,9.8529,9.8529,9.8529,9.8529,9.8529,9.8529,9.8529,9.8529,9.8529,9.8529,9.8529,9.8529,9.8529,9.8529,9.8529,9.8529,9.8529,9.8529,9.8548,9.8548,9.8547,9.8574,9.8646,9.8681,9.8724,9.8741,9.8796,9.8758,9.8838,9.8941,9.8957,9.8959,9.896,9.8938,9.8938,9.8938,9.8938,9.8938,9.8938,9.8938,9.8938,9.8938,9.8938,9.8938,9.8938,9.8938,9.8938,9.8938,9.8938,9.8938,9.8938,9.8938,9.8968,9.896,9.8937,9.8905,9.8897,9.889,9.8874,9.8849,9.8833,9.8817,9.8783,9.8767,9.8787,9.8787,9.8804,9.8796,9.8829,9.8838,9.8792,9.8833,9.8929,9.8937,9.8935,9.7708,9.7459,9.7474,9.7328,9.7103,9.7215,9.724,9.729,9.7315,9.7426,9.7487,9.7547,9.7629,9.7782,9.7861,9.7891,9.7946,9.7972,9.7935,9.7946,9.7935,9.8064,9.8185,9.8053,9.8122,9.8133,9.8053,9.8243,9.8538,9.8529,9.851,9.8529,9.8529,9.8529,9.8529,9.8529,9.8529,9.8529,9.8529,9.8529,9.8529,9.8529,9.8529,9.8529,9.8529,9.8529,9.8529,9.8529,9.8529,9.8529,9.8529,9.8529,9.8547,9.8528,9.849,9.8443,9.8443,9.8481,9.8548,9.8556,9.8573,9.8655,9.8707,9.8758,9.8829,9.8846,9.8862,9.8857,9.8913,9.8959,9.8959,9.896,9.8938,9.8938,9.8938,9.8938,9.8938,9.8938,9.8938,9.8938,9.8938,9.8938,9.8938,9.8938,9.8938,9.8938,9.8938,9.8938,9.8938,9.893,9.896,9.8945,9.8951,9.8927,9.8841,9.8817,9.8808,9.88,9.8792,9.8783,9.8767,9.8775,9.8741,9.871,9.8666,9.8657,9.8675,9.8719,9.8796,9.8883,9.8838,9.8779,9.8905,9.896,9.8945,9.8357,9.8195,9.8154,9.8026,9.7813,9.7768,9.7733,9.7768,9.7733,9.7861,9.7917,9.7924,9.8048,9.8233,9.8314,9.8394,9.8357,9.8414,9.8453,9.8462,9.8453,9.8453,9.8472,9.8414,9.8472,9.8529,9.8481,9.8453,9.8529,9.8529,9.8529,9.8529,9.8529,9.8529,9.8529,9.8529,9.8529,9.8529,9.8529,9.8529,9.8529,9.8529,9.8529,9.8529,9.8529,9.8529,9.8529,9.8529,9.8529,9.8529,9.8529,9.8547,9.849,9.8384,9.8354,9.8364,9.8374,9.8415,9.851,9.8537,9.86,9.8698,9.8758,9.8846,9.8924,9.8957,9.8943,9.8907,9.893,9.8938,9.8938,9.8938,9.8938,9.8938,9.8938,9.8938,9.8938,9.8938,9.8938,9.8938,9.8938,9.8938,9.8968,9.8952,9.8945,9.8937,9.8905,9.889,9.889,9.8897,9.8897,9.8919,9.8924,9.8838,9.875,9.8741,9.8716,9.8707,9.869,9.871,9.871,9.8698,9.8681,9.863,9.8575,9.8603,9.8612,9.8621,9.871,9.8892,9.8854,9.8763,9.8874,9.8937,9.8937,9.8364,9.8314,9.8091,9.7983,9.7902,9.7813,9.7779,9.7779,9.7768,9.779,9.7813,9.7939,9.7994,9.8069,9.8263,9.8354,9.8414,9.8462,9.8501,9.851,9.852,9.8529,9.8529,9.8529,9.8529,9.8529,9.8529,9.8529,9.8529,9.8529,9.8529,9.8529,9.8529,9.8529,9.8529,9.8529,9.8529,9.8529,9.8529,9.8529,9.8529,9.8529,9.8529,9.8529,9.852,9.8547,9.851,9.8501,9.851,9.8529,9.8529,9.8433,9.8314,9.8206,9.8226,9.8354,9.8354,9.8396,9.8482,9.8519,9.8555,9.861,9.8787,9.8916,9.8949,9.8905,9.8929,9.8922,9.8922,9.8922,9.8938,9.8938,9.8938,9.8938,9.8938,9.8938,9.8938,9.8938,9.8922,9.8922,9.8937,9.8937,9.8929,9.8905,9.8935,9.8949,9.8854,9.8775,9.8775,9.8775,9.8783,9.8767,9.8758,9.8724,9.8681,9.8701,9.8628,9.8602,9.8603,9.8575,9.8594,9.8594,9.8612,9.8529,9.8557,9.8574,9.8602,9.8619,9.8736,9.8838,9.8879,9.8849,9.8882,9.8951,9.8945,9.762,9.8344,9.8216,9.8091,9.7983,9.788,9.7873,9.7779,9.7768,9.7768,9.779,9.7824,9.7928,9.7946,9.8091,9.8222,9.8284,9.8307,9.8394,9.8443,9.8547,9.8529,9.8529,9.8529,9.8529,9.8529,9.8492,9.8529,9.8529,9.8529,9.8529,9.8529,9.8529,9.8529,9.8529,9.8529,9.8529,9.8529,9.8529,9.8529,9.8529,9.8529,9.8529,9.8529,9.8472,9.8443,9.8433,9.8394,9.8364,9.8364,9.8354,9.8246,9.8075,9.8133,9.8185,9.8246,9.8324,9.8396,9.8482,9.8528,9.861,9.8672,9.875,9.8792,9.8817,9.8833,9.8857,9.882,9.8865,9.8882,9.8959,9.8952,9.8938,9.8938,9.8938,9.8938,9.8968,9.8905,9.8857,9.882,9.8865,9.8865,9.8857,9.8825,9.8846,9.8838,9.8741,9.8724,9.8762,9.8707,9.8707,9.8672,9.8664,9.8646,9.8648,9.8621,9.8538,9.8557,9.8529,9.8548,9.8529,9.8538,9.8548,9.852,9.8519,9.8536,9.8352,9.8716,9.8767,9.8511,9.8409,9.8755,9.8725,9.826,9.8208,9.6734,9.7909,9.8252,9.8206,9.8037,9.7994,9.788,9.7779,9.7768,9.7768,9.7768,9.7768,9.7835,9.7939,9.7983,9.8026,9.8085,9.8175,9.8216,9.8344,9.8443,9.8267,9.7332,9.722,9.7529,9.7893,9.7968,9.8193,9.8492,9.8529,9.8529,9.8529,9.8529,9.8529,9.8529,9.8529,9.8529,9.8529,9.8529,9.8529,9.8529,9.8529,9.8547,9.8481,9.8414,9.8354,9.8314,9.8206,9.8154,9.8133,9.8133,9.8122,9.8043,9.8133,9.8185,9.8263,9.8324,9.8433,9.8548,9.8556,9.8602,9.8655,9.8681,9.8707,9.8716,9.8733,9.875,9.8787,9.8787,9.8792,9.8879,9.8897,9.8876,9.8876,9.8876,9.8921,9.8876,9.8825,9.8804,9.8758,9.8796,9.8787,9.8796,9.8741,9.8716,9.8707,9.8736,9.8727,9.871,9.8664,9.8628,9.8574,9.8565,9.8594,9.8566,9.8585,9.8529,9.8548,9.8538,9.8529,9.8529,9.8538,9.8529,9.8501,9.833,9.8099,9.7749,9.7962,9.7189,9.7462,9.7554,9.7216,9.6961,9.7344,9.7246,9.6014,9.6398,9.7759,9.8257,9.7994,9.7952,9.7567,9.7679,9.7493,9.7493,9.7482,9.7668,9.7319,9.7839,9.7318,9.7834,9.7782,9.758,9.7829,9.7945,9.7717,9.6788,9.4791,9.4679,9.5239,9.6127,9.6286,9.6987,9.7669,9.8155,9.8342,9.808,9.8305,9.8454,9.8267,9.8501,9.8529,9.8529,9.8529,9.8529,9.8529,9.8529,9.8519,9.8414,9.8364,9.8324,9.8206,9.8154,9.8122,9.8005,9.7994,9.8059,9.8154,9.8154,9.8206,9.8287,9.8364,9.8461,9.8529,9.852,9.8567,9.8594,9.8574,9.8564,9.8619,9.8672,9.8753,9.8716,9.8779,9.8733,9.8796,9.8767,9.8783,9.8763,9.8738,9.8775,9.8767,9.8758,9.8787,9.8787,9.8741,9.875,9.8724,9.8635,9.8461,9.7262,9.7489,9.763,9.7883,9.7517,9.7415,9.7753,9.8006,9.8286,9.8277,9.8193,9.7968,9.8417,9.8379,9.7706,9.7706,9.7454,9.7949,9.7929,9.6914,9.6566,9.6642,9.6028,9.5112,9.5179,9.5886,9.5404,9.4961,9.5712,9.5976,9.3633,9.451,9.5211,9.5443,9.5342,9.5267,9.5165,9.5113,9.5135,9.5145,9.5081,9.5044,9.5044,9.5081,9.5124,9.515,9.5081,9.5177,9.5761,9.6293,9.5711,9.4713,9.3848,9.3502,9.3829,9.4576,9.4576,9.4996,9.5557,9.565,9.5603,9.5865,9.6585,9.7061,9.7108,9.7931,9.8529,9.8492,9.8529,9.8529,9.8529,9.8529,9.8462,9.8384,9.8354,9.8263,9.8043,9.8005,9.8016,9.808,9.8091,9.8112,9.8164,9.8216,9.8277,9.8354,9.8423,9.8472,9.852,9.8529,9.8529,9.8538,9.852,9.8548,9.8566,9.8585,9.8658,9.863,9.8658,9.8648,9.8646,9.8655,9.8681,9.8716,9.8683,9.8621,9.8621,9.8518,9.8172,9.746,9.7123,9.6899,9.5795,9.561,9.5583,9.5724,9.5958,9.637,9.6772,9.5986,9.5575,9.5958,9.6286,9.6435,9.6472,9.5977,9.5603,9.7632,9.7744,9.6286,9.579,9.5117,9.546,9.5528,9.5166,9.4903,9.5013,9.4758,9.375,9.3435,9.4028,9.4216,9.4329,9.478,9.4705,9.171,9.2717,9.3259,9.3428,9.3323,9.3324,9.3284,9.3236,9.3334,9.3463,9.3273,9.3172,9.3341,9.3192,9.3287,9.3182,9.3358,9.3324,9.392,9.4458,9.2857,9.2156,9.2671,9.24,9.2362,9.2847,9.2848,9.3091,9.3464,9.3726,9.3642,9.3502,9.48,9.5314,9.5445,9.6435,9.7154,9.722,9.7154,9.7023,9.7023,9.6986,9.7274,9.7511,9.7558,9.7642,9.7913,9.788,9.7856,9.7595,9.7514,9.7731,9.8155,9.7879,9.7844,9.8274,9.8481,9.8529,9.8529,9.8529,9.8529,9.8529,9.8538,9.8529,9.8529,9.8529,9.8529,9.8529,9.8529,9.8567,9.8538,9.8556,9.8584,9.8609,9.7508,9.6902,9.6968,9.7174,9.6809,9.5678,9.5425,9.4874,9.4163,9.3809,9.3809,9.3809,9.3921,9.4182,9.4893,9.4631,9.4444,9.4669,9.4594,9.4631,9.4519,9.3837,9.4369,9.651,9.6099,9.4519,9.3996,9.3547,9.3578,9.3492,9.3613,9.3196,9.3248,9.3052,9.2699,9.1911,9.2121,9.1917,9.2413,9.2923,9.2728,9.0889,9.129,9.2774,9.3138,9.3045,9.3026,9.2922,9.3113,9.3123,9.2937,9.3011,9.2809,9.296,9.3138,9.2839,9.2858,9.3353,9.2989,9.3026,9.2354,9.0619,8.9695,9.0731,8.9953,9.0156,9.1062,9.1165,9.1868,9.283,9.2886,9.3312,9.294,9.3221,9.3519,9.3707,9.3621,9.4108,9.4473,9.4173,9.4218,9.433,9.4049,9.4522,9.5724,9.5881,9.6313,9.7233,9.7638,9.7297,9.6003,9.5907,9.6592,9.7734,9.6977,9.6818,9.7949,9.8417,9.823,9.8379,9.7968,9.808,9.8006,9.8006,9.8529,9.8043,9.7856,9.7893,9.7931,9.8043,9.8202,9.8174,9.8099,9.8108,9.8071,9.5921,9.4444,9.3912,9.4024,9.4108,9.3809,9.3659,9.3472,9.3136,9.3052,9.3089,9.3089,9.3023,9.3098,9.3435,9.3248,9.3426,9.3351,9.3089,9.3136,9.3323,9.2715,9.2762,9.4117,9.3472,9.2724,9.2425,9.2537,9.2674,9.251,9.2364,9.1731,9.1279,9.0658,9.0192,9.0461,9.0205,8.938,8.9545,9.0099,9.0233,8.9267,8.9313,8.9929,9.018,9.0143,9.0208,9.0245,9.0255,9.0347,9.0329,9.0292,9.0245,9.0255,9.0264,9.0291,9.0282,9.0199,9.0282,9.038,9.0192,8.8945,8.8868,8.9197,8.8767,8.8907,8.9347,8.9421,8.974,9.031,9.0328,9.0357,9.0535,9.143,9.199,9.2054,9.2933,9.4091,9.494,9.4959,9.55,9.6145,9.5575,9.5219,9.5457,9.4666,9.4485,9.4931,9.6205,9.6022,9.4555,9.4286,9.4651,9.522,9.4855,9.4669,9.5267,9.5416,9.5416,9.5379,9.5566,9.5379,9.5379,9.5379,9.5416,9.5379,9.5379,9.5379,9.5342,9.5454,9.5342,9.5416,9.5416,9.5342,9.5379,9.4061,9.3613,9.35,9.35,9.3127,9.2229,9.2042,9.1453,9.078,9.0444,9.0452,9.0452,9.0452,9.0639,9.1556,9.1154,9.1453,9.1594,9.1416,9.149,9.179,9.179,9.1565,9.1378,9.1154,9.1042,9.093,9.1163,9.118,9.0949,9.0895,9.027,9.0147,8.9261,8.8967,8.9014,8.9369,8.9068,8.9081,8.9061,8.9061,8.8443,8.8381,8.8362,8.8389,8.8408,8.8496,8.8569,8.8586,8.8671,8.8633,8.8591,8.8608,8.8616,8.8625,8.8612,8.8587,8.8491,8.8537,8.8674,8.8885,8.8824,8.8798,8.8741,8.8608,8.8591,8.8608,8.8591,8.8557,8.8617,8.8609,8.8452,8.8558,8.9649,9.0217,9.03,9.1299,9.2372,9.3605,9.4109,9.4922,9.5893,9.5435,9.5407,9.56,9.4734,9.3203,9.2064,9.3586,9.3847,9.2737,9.3174,9.35,9.3426,9.3052,9.3014,9.3388,9.35,9.35,9.35,9.3575,9.365,9.3538,9.3538,9.35,9.35,9.3613,9.3613,9.3575,9.35,9.35,9.35,9.35,9.3098,9.2126,9.1977,9.1827,9.1715,9.1827,9.1453,9.0593,9.036,8.992,8.9031,8.8778,8.8928,8.889,8.8853,8.9144,8.9995,8.9555,8.9293,9.0032,8.9546,8.9405,8.9966,9.0191,9.0116,9.0041,8.9779,8.9555,8.9368,8.9376,8.9269,8.9132,8.9151,8.9035,8.9066,8.8944,8.8986,8.9048,8.9101,8.9159,8.922,8.922,8.9202,8.8621,8.8612,8.862,8.8603,8.8612,8.8725,8.8782,8.8782,8.8816,8.8802,8.8795,8.8931,8.8939,8.8983,8.8915,8.9,8.8951,8.8871,8.8833,8.8819,8.8841,8.8796,8.8826,8.8802,8.8826,8.8939,8.8856,8.8777,8.8629,8.8452,8.8353,8.8258,8.8368,8.8604,8.84,8.8735,8.8745,8.9536,9.0815,9.1308,9.1046,9.2707,9.3947,9.5168,9.5433,9.3446,8.9276,9.0622,9.1473,9.1361,9.2454,9.3388,9.2902,9.1893,9.1781,9.2828,9.3285,9.3351,9.3276,9.3127,9.294,9.294,9.3239,9.2977,9.2865,9.2977,9.3014,9.294,9.3014,9.3164,9.3089,9.3014,9.2014,8.9405,8.9218,8.9264,8.9031,8.8816,8.8703,8.8844,8.8919,8.8703,8.8666,8.8629,8.8629,8.8629,8.8629,8.8807,8.8919,8.8844,8.8629,8.877,8.877,8.8732,8.8703,8.8703,8.8787,8.887,8.8745,8.8691,8.8723,8.8739,8.8787,8.8818,8.8871,8.8901,8.8965,8.9004,8.9075,8.9095,8.907,8.9115,8.9183,8.9268,8.9279,8.8718,8.8637,8.8616,8.8629,8.8629,8.87,8.8671,8.8716,8.8798,8.8793,8.8854,8.8886,8.8886,8.8886,8.8871,8.8937,8.9021,8.8981,8.9006,8.8954,8.8871,8.8803,8.8796,8.8787,8.8765,8.8864,8.8765,8.8694,8.8637,8.8654,8.8577,8.8527,8.85,8.8481,8.8516,8.8507,8.918,9.0149,9.0775,9.157,9.2438,9.2176,9.2139,9.2671,9.3707,9.2959,9.0547,9.0846,9.0697,8.9696,8.9929,9.0191,9.0191,8.9742,8.9704,9.0116,9.0228,9.0228,9.0228,9.0191,9.0228,9.0228,9.0228,9.0228,9.0191,9.0191,9.0228,9.0228,9.0228,9.0191,9.0228,9.0265,8.9779,8.8957,8.8629,8.8629,8.8629,8.8629,8.8629,8.8629,8.8629,8.8629,8.8629,8.8629,8.8629,8.8629,8.8629,8.8629,8.8629,8.8629,8.8629,8.8629,8.8629,8.8629,8.8679,8.8769,8.8846,8.8907,8.8826,8.8879,8.893,8.8922,8.8937,8.8958,8.8979,8.8993,8.9004,8.9083,8.9121,8.9152,8.9171,8.9207,8.9247,8.9314,8.9336,8.8864,8.8774,8.8731,8.8704,8.8679,8.8708,8.8708,8.8679,8.8806,8.8862,8.8893,8.8901,8.8901,8.8931,8.8901,8.8945,8.9031,8.9054,8.904,8.904,8.8953,8.8893,8.8886,8.8841,8.8811,8.8879,8.8804,8.8751,8.8734,8.8736,8.8671,8.8586,8.8505,8.8505,8.8569,8.854,8.9072,9.0211,9.0921,9.1631,9.2407,9.2229,9.1407,9.0406,9.1266,9.1266,9.0285,9.0294,8.9771,8.8703,8.8629,8.8629,8.8629,8.8629,8.8629,8.8629,8.8629,8.8629,8.8629,8.8629,8.8629,8.8629,8.8629,8.8741,8.8629,8.8629,8.8629,8.8666,8.8666,8.8629,8.8629,8.8629,8.8629,8.8629,8.8629,8.8629,8.8629,8.8629,8.8629,8.8629,8.8629,8.8629,8.8629,8.8629,8.8629,8.8629,8.8629,8.8629,8.8629,8.8629,8.8629,8.8629,8.8629,8.8671,8.8769,8.8834,8.8893,8.893,8.8958,8.9021,8.9028,8.9007,8.9068,8.9088,8.9114,8.9102,8.9189,8.9247,8.9259,8.9276,8.9293,8.9331,8.9383,8.9379,8.9352,8.9034,8.9007,8.8871,8.8824,8.8798,8.879,8.879,8.8819,8.8802,8.8879,8.9006,8.8983,8.8996,8.8782,8.8749,8.8922,8.8974,8.8829,8.8857,8.9058,8.9058,8.9028,8.9034,8.9034,8.9028,8.9014,8.9007,8.8951,8.8864,8.8736,8.8594,8.8479,8.8389,8.8334,8.8461,8.8507,8.8543,8.8948,9.0182,9.1033,9.1183,9.2416,9.1565,8.9069,8.8703,8.8844,8.8741,8.8666,8.8666,8.8629,8.8629,8.8629,8.8629,8.8629,8.8629,8.8629,8.8629,8.8629,8.8629,8.8629,8.8629,8.8629,8.8629,8.8629,8.8629,8.8629,8.8629,8.8629,8.8629,8.8629,8.8629,8.8654,8.8662,8.8654,8.8645,8.8691,8.8645,8.8671,8.8645,8.8654,8.8687,8.8674,8.8679,8.8645,8.8687,8.8695,8.8671,8.8679,8.8704,8.8679,8.8687,8.8695,8.8712,8.8769,8.8996,8.9034,8.9041,8.9068,8.9088,8.9095,8.9068,8.9075,8.9153,8.9208,8.9238,8.9259,8.9341,8.941,8.94,8.9405,8.941,8.9415,8.9383,8.9383,8.9383,8.9033,8.9019,8.8886,8.8795,8.8798,8.8798,8.8795,8.8716,8.879,8.8883,8.8907,8.8894,8.8293,8.7257,8.7205,8.7828,8.8616,8.77,8.7819,8.8951,8.9033,8.9024,8.9034,8.9034,8.9034,8.9034,8.9048,8.8983,8.8972,8.8856,8.8771,8.8723,8.8591,8.856,8.8586,8.8594,8.8603,8.8666,8.9031,8.9368,8.9359,8.9779,8.9555,8.8778,8.8629,8.8629,8.8629,8.8629,8.8629,8.8629,8.8629,8.8629,8.8629,8.8629,8.8629,8.8629,8.8629,8.8629,8.8629,8.8629,8.8629,8.8629,8.8629,8.8629,8.8629,8.8629,8.8629,8.8629,8.8629,8.8629,8.8645,8.8745,8.8771,8.8779,8.8779,8.8779,8.8763,8.8779,8.8763,8.8749,8.8833,8.8915,8.8908,8.8923,8.8864,8.8909,8.8886,8.8915,8.8908,8.8893,8.8893,8.8915,8.8915,8.8951,8.9021,8.9101,8.9184,8.9202,8.9256,8.9291,8.9325,8.9325,8.9358,8.9314,8.9358,8.9395,8.9415,8.9383,8.941,8.9415,8.942,8.9415,8.9383,8.9383,8.9383,8.6964,8.6964,8.6876,8.6808,8.6768,8.6736,8.6725,8.6647,8.6771,8.6774,8.6776,8.6746,8.6267,8.5413,8.5406,8.5833,8.6703,8.5929,8.6106,8.7018,8.7847,8.8148,8.8267,8.8873,8.9242,8.9285,8.9247,8.9198,8.9189,8.9039,8.8993,8.8901,8.8849,8.8763,8.8745,8.8699,8.8695,8.8629,8.8629,8.7955,8.6825,8.6676,8.6676,8.6638,8.6676,8.6638,8.6638,8.6676,8.6937,8.7536,8.761,8.761,8.7573,8.761,8.7349,8.675,8.7199,8.791,8.8591,8.8629,8.8629,8.8629,8.8629,8.8629,8.8629,8.8629,8.8629,8.8629,8.8629,8.8629,8.8637,8.8683,8.8739,8.8747,8.8747,8.8739,8.8739,8.8739,8.8747,8.8747,8.8796,8.8841,8.8894,8.8886,8.8856,8.8856,8.8841,8.8856,8.8841,8.8849,8.8879,8.8944,8.9061,8.9057,8.9055,8.9114,8.9146,8.914,8.9268,8.9347,8.9341,8.9374,8.9383,8.9415,8.941,8.941,8.9383,8.9383,8.9383,8.9383,8.9383,8.9383,8.9383,8.9383,8.9383,8.3996,8.3958,8.4101,8.3862,8.3899,8.3858,8.3901,8.3901,8.3788,8.3687,8.3412,8.3537,8.3633,8.3559,8.3585,8.3742,8.402,8.3935,8.4103,8.4473,8.5892,8.6629,8.6817,8.8275,8.9085,8.8996,8.8912,8.8719,8.8637,8.863,8.8667,8.8617,8.8583,8.8395,8.8354,8.8331,8.8254,8.8205,8.8251,8.6784,8.3962,8.3775,8.3759,8.378,8.3818,8.3735,8.3943,8.3764,8.44,8.5716,8.5857,8.5857,8.5866,8.5874,8.5238,8.3997,8.5134,8.6526,8.7947,8.8171,8.8142,8.8358,8.8292,8.8367,8.8629,8.8329,8.8142,8.8097,8.8217,8.8246,8.8404,8.8579,8.8687,8.8695,8.8712,8.8679,8.8712,8.865,8.8704,8.8666,8.8779,8.8699,8.8802,8.881,8.8771,8.8811,8.8871,8.8864,8.8819,8.8811,8.8841,8.8915,8.9037,8.9134,8.9096,8.9081,8.9133,8.9121,8.9196,8.9274,8.9314,8.9368,8.9383,8.9383,8.9383,8.9383,8.9383,8.9383,8.9383,8.9383,8.9383,8.9383,8.9383,8.9383,8.9405,8.3832,8.3795,8.3801,8.3836,8.3775,8.3759,8.3751,8.3751,8.3714,8.2309,8.029,8.1383,8.1981,8.1958,8.2092,8.2815,8.3791,8.2799,8.2925,8.4122,8.4597,8.4844,8.5002,8.5332,8.5536,8.5574,8.5536,8.5531,8.5515,8.5493,8.5386,8.5257,8.5237,8.5273,8.5195,8.5232,8.5125,8.5039,8.512,8.4789,8.3967,8.393,8.3808,8.3648,8.3586,8.3598,8.3485,8.3476,8.3625,8.397,8.4007,8.4007,8.4015,8.4113,8.4005,8.3707,8.4063,8.4499,8.4835,8.4873,8.5396,8.6593,8.6667,8.7237,8.8217,8.6377,8.491,8.4985,8.6077,8.6713,8.6804,8.7875,8.8795,8.8802,8.8864,8.872,8.8906,8.9041,8.9108,8.9121,8.9202,8.9125,8.9256,8.9262,8.9113,8.9064,8.9256,8.9262,8.9262,8.9256,8.9177,8.9196,8.9196,8.9169,8.9298,8.9325,8.9319,8.9304,8.9352,8.9352,8.9368,8.9389,8.9383,8.9415,8.9415,8.941,8.9415,8.9377,8.941,8.9405,8.941,8.9415,8.9415,8.9415,8.9357,8.154,8.1465,8.1456,8.1517,8.1578,8.1464,8.1441,8.1441,8.151,8.0506,7.9084,7.9932,8.0409,8.0378,8.0462,8.102,8.1797,8.0962,8.1084,8.1947,8.2886,8.3325,8.3473,8.4195,8.4516,8.4553,8.4553,8.4553,8.4549,8.4464,8.4429,8.4356,8.4345,8.4308,8.4253,8.4247,8.4178,8.3969,8.1145,7.9554,7.9424,7.9428,7.9316,7.9195,8.063,8.1321,8.1178,8.117,8.1543,8.2297,8.2297,8.2297,8.2334,8.2386,8.2084,8.1367,8.208,8.2516,8.2553,8.3188,8.3997,8.4861,8.5006,8.5409,8.6201,8.4682,8.3719,8.3653,8.4523,8.5103,8.5076,8.5997,8.6621,8.6613,8.6694,8.6744,8.6721,8.6789,8.6842,8.6844,8.6874,8.696,8.7021,8.7021,8.7209,8.8007,8.8082,8.8453,8.9131,8.8069,8.7266,8.8012,8.8078,8.8392,8.9088,8.9256,8.9256,8.9256,8.9302,8.9336,8.9341,8.9395,8.94,8.9384,8.9379,8.9368,8.9304,8.9304,8.9341,8.9341,8.9358,8.9417,8.9417,8.9379,8.8786,7.8864,7.8749,7.8749,7.8836,7.8961,7.8843,7.8771,7.8763,7.8913,7.9002,7.9146,7.9126,7.9132,7.9138,7.9194,7.9162,7.9168,7.9268,7.9348,7.9434,8.1053,8.1841,8.1921,8.3346,8.4017,8.4021,8.398,8.4017,8.4011,8.3865,8.3833,8.3817,8.386,8.3768,8.3672,8.3667,8.361,8.3382,7.7879,7.4916,7.4827,7.4791,7.4406,7.3761,7.6939,7.8387,7.7538,7.8147,7.8883,7.9608,7.9645,7.9645,7.9645,7.9542,7.9327,7.8677,7.9894,8.0685,8.0723,8.1915,8.2779,8.2872,8.3192,8.3184,8.2805,8.2968,8.2992,8.2818,8.3224,8.3555,8.3478,8.387,8.4206,8.4131,8.4071,8.4018,8.422,8.4255,8.4259,8.4326,8.403,8.4227,8.4517,8.4435,8.5019,8.5902,8.6279,8.6649,8.7377,8.6018,8.5175,8.6148,8.6428,8.6944,8.7728,8.8316,8.8123,8.8353,8.828,8.8163,8.8163,8.8236,8.8268,8.8576,8.8344,8.8359,8.832,8.8566,8.8276,8.8163,8.8197,8.8376,8.8306,8.8365,8.7669,7.8889,7.8906,7.8899,7.895,7.9072,7.9091,7.8976,7.8913,0.0,0.0,0.0,7.9213,7.9257,7.9306,7.9394,7.9428,7.9428,7.9485,7.9452,7.9495,7.9833,7.9998,8.0002,8.0318,8.0444,8.0402,8.044,8.044,8.044,8.0422,8.0413,8.0371,8.0395,8.0377,8.0358,8.0358,8.0348,8.0249,7.92,7.8525,7.8372,7.8269,7.623,7.2028,7.6221,7.6637,7.2693,7.6262,7.6618,7.2969,7.2717,7.2754,7.2754,7.2836,7.4514,7.8042,7.8771,7.8954,7.9,7.9224,7.9418,7.9398,8.0728,8.0973,7.9637,7.9593,7.9654,7.9719,8.1029,8.1905,8.1883,8.3105,8.4019,8.4019,8.4058,8.4094,8.4101,8.4241,8.4102,8.4288,8.4125,8.4294,8.4181,8.4149,8.445,8.465,8.4711,8.4906,8.5025,8.4631,8.4205,8.4603,8.4693,8.4844,8.5172,8.5354,8.5209,8.5467,8.5372,8.5206,8.5249,8.5229,8.5234,8.5525,8.5261,8.5368,8.5287,8.5464,8.5206,8.5206,8.5255,8.5261,8.5261,8.5221,8.5009,7.6617,7.658,7.658,7.6629,0.0,7.7622,7.7387,7.6573,7.6674,7.7266,7.8154,7.8172,7.8649,7.9409,7.9495,7.948,7.948,7.948,7.948,7.948,7.948,7.948,7.948,7.948,7.948,7.948,7.948,7.948,7.948,7.948,7.948,7.948,7.948,7.9089,7.8277,7.9051,7.9495,7.9404,7.7808,7.6922,7.6868,7.6731,7.541,7.3051,7.6697,0.0,0.0,0.0,0.0,0.0,0.0,0.0,0.0,0.0,0.0,7.3076,7.0299,6.8834,6.9608,6.9719,7.1231,7.4509,7.556,7.5348,7.3726,7.6782,7.7694,7.5438,7.8316,8.0283,8.0216,8.1058,8.1631,8.1593,8.1652,8.1734,8.1709,8.1764,8.1817,8.1796,8.1802,8.1813,8.1809,8.1777,8.2116,8.2913,8.3091,8.3403,8.4007,8.2961,8.1836,8.1808,8.241,8.3363,8.4108,8.4339,8.4415,8.4339,8.4339,8.4339,8.4339,8.4339,8.4366,8.4375,8.4369,8.4314,8.429,8.4278,8.4246,8.4284,8.4308,8.3911,8.2106,8.1813,8.1801,7.5083,7.4756,7.4718,7.4609,7.4526,7.5448,7.5093,7.3862,7.4264,7.5273,7.6635,7.6677,7.7365,7.8536,7.8574,7.8574,7.8578,7.8574,7.8725,7.9065,7.9065,7.9211,7.948,7.948,7.948,7.948,7.948,7.948,7.948,7.948,7.948,7.948,7.948,7.8815,7.7542,0.0,0.0,0.0,7.562,7.4615,7.4873,7.4506,7.4044,7.3709,7.6759,0.0,7.7308,7.8072,7.8093,7.7082,7.6972,0.0,0.0,0.0,0.0,0.0,0.0,0.0,0.0,0.0,0.0,0.0,6.8983,6.8596,6.8328,7.3197,7.4479,7.0199,7.491,7.8007,7.718,7.7801,7.8469,7.8776,7.8814,7.8996,7.9296,7.9334,7.9314,7.9324,7.9324,7.9347,7.9429,7.9327,7.9898,8.1141,8.1384,8.1917,8.3143,8.106,7.9456,7.9411,8.0577,8.1881,8.3169,8.3282,8.3094,8.3407,8.3407,8.3326,8.3207,8.325,8.334,8.3261,8.3438,8.3307,8.3213,8.3238,8.3063,8.32,8.325,8.2548,7.9842,7.9266,7.9278,7.7729,7.6445,7.6445,7.5679,7.4348,7.3057,7.2416,7.2313,7.3792,7.458,7.4787,7.4936,7.5109,7.5255,7.5293,7.5255,7.5293,7.526,7.6044,7.7436,7.7474,7.8192,7.948,7.948,7.948,7.948,7.948,7.948,7.948,7.948,7.948,7.948,7.948,7.9404,7.9089,7.649,7.4343,7.2936,7.3942,7.5136,7.6449,7.5033,7.3564,7.2226,7.5065,7.5356,7.2674,7.6375,7.6541,7.2367,7.2066,7.2055,7.2018,6.9744,6.841,0.0,6.6255,0.0,0.0,0.0,0.0,0.0,0.0,0.0,0.0,6.7304,6.6508,6.3323,7.0282,7.3666,7.0727,7.3134,7.5493,7.6896,7.7084,7.7685,7.9071,7.9296,7.9302,7.9308,7.9308,7.9308,7.9251,7.932,7.9289,7.9639,7.9636,7.9605,7.9871,7.952,7.9176,7.9308,7.9502,7.991,8.0148,8.011,8.0154,8.0079,8.0191,7.9966,8.0154,8.0116,8.0035,8.0029,8.0173,8.0092,7.9942,8.0048,8.0011,8.0149,8.0199,7.9949,7.9208,7.9095,7.9159,7.6121,7.5405,7.4497,7.3658,7.2824,7.1216,7.0516,7.0541,7.1332,7.1625,7.171,7.2718,7.367,7.45,7.4533,7.4509,7.4503,7.4545,7.4969,7.5742,7.5746,7.6162,7.6803,7.6803,7.6841,7.6803,7.6803,7.6803,7.6841,7.6803,7.6757,7.6692,7.6692,7.5735,7.3977,7.4277,7.4071,7.3372,7.4013,7.5102,7.6572,7.5076,7.4708,7.5686,7.624,7.6184,7.5569,7.7521,7.7585,7.5372,7.5249,7.4783,7.3659,6.6118,6.2849,0.0,0.0,0.0,0.0,0.0,0.0,0.0,0.0,0.0,0.0,0.0,6.2005,6.4244,7.0378,7.2113,6.6869,6.9423,7.1738,7.2501,7.1758,7.2585,7.6126,7.5658,7.5464,7.6352,7.6508,7.6884,7.7761,7.7911,7.825,7.919,7.7697,7.6505,7.6549,7.7286,7.7776,7.7845,7.8533,7.9077,7.9115,7.9115,7.9071,7.9077,7.9108,7.9115,7.9077,7.9108,7.9077,7.9071,7.9071,7.9077,7.9108,7.9115,7.9115,7.9108,7.9115,7.9051,7.8917,7.8961,7.8988,7.4383,7.4189,7.1669,7.0783,7.0964,6.9354,6.8946,6.9395,6.9395,6.942,6.9506,7.0754,7.1592,7.2054,7.1677,7.1696,7.2124,7.2501,7.3156,7.3983,7.3979,7.4243,7.4583,7.4621,7.4583,7.4583,7.4621,7.4583,7.4621,7.4621,7.4112,7.3213,7.2459,7.0777,6.8436,7.0747,7.24,7.3179,7.3119,7.3619,7.4778,7.369,7.4754,7.8235,7.6827,7.6834,7.8711,7.8726,7.865,7.8544,7.7049,7.5411,7.3518,6.2248,0.0,0.0,0.0,0.0,0.0,0.0,0.0,0.0,0.0,5.5616,4.8991,0.0,5.7333,0.0,6.825,6.9519,6.5157,6.6359,0.0,0.0,6.6139,6.6589,7.083,7.1189,7.1634,7.2952,7.3752,7.4747,7.6065,7.6199,7.6664,7.7868,7.584,7.4218,7.422,7.5284,7.6011,7.6086,7.6948,7.774,7.7672,7.774,7.7672,7.7778,7.771,7.7785,7.7747,7.7747,7.7747,7.7785,7.774,7.7965,7.8272,7.8378,7.8221,7.7812,7.7724,7.7724,7.7693,7.7707,7.772,7.4258,7.3822,6.8805,6.7706,6.9036,6.7424,6.7742,6.937,6.9375,6.9407,6.942,6.9528,6.8018,6.5204,6.3692,0.0,6.5401,6.6942,6.9279,7.2106,7.2106,7.2978,7.4438,7.4438,7.4476,7.4438,7.4476,7.4476,7.44,7.4395,7.2855,6.9811,6.682,6.522,6.4934,6.5081,6.6632,6.9557,6.9618,6.9664,6.9802,6.9652,7.1903,7.6585,7.5005,7.5594,7.8695,7.8786,7.8711,7.8501,7.289,6.8826,6.6917,0.0,0.0,0.0,0.0,0.0,0.0,0.0,0.0,0.0,0.0,0.0,0.0,0.0,0.0,5.4675,5.9757,0.0,6.6077,6.3955,0.0,0.0,0.0,6.0681,6.2595,6.6686,6.9461,6.9579,0.0,0.0,7.4619,7.4545,7.451,7.466,7.4303,7.4084,7.4091,7.4159,7.4266,7.4259,7.4372,7.4478,7.4765,7.4615,7.4615,7.469,7.4447,7.4621,7.4615,7.4621,7.4515,7.4621,7.4478,7.4965,7.6547,7.6684,7.6245,7.4715,7.4395,7.4395,7.4507,7.4638,7.476,7.0097,6.6135,6.3005,6.3304,6.5535,6.3038,6.3985,6.7331,6.6422,6.5466,6.4602,6.4598,6.2803,5.982,5.9139,0.0,0.0,0.0,6.5185,6.7495,6.8399,6.9765,7.1328,7.1366,7.1409,7.1409,7.1404,7.1404,7.1366,7.1409,6.6694,5.7726,0.0,0.0,5.869,6.2405,6.5467,6.7706,6.8718,6.924,6.9234,6.9117,7.0484,7.328,7.2679,7.3308,7.5631,7.6609,7.5287,7.1389,6.8588,6.4614,0.0,0.0,0.0,0.0,0.0,0.0,0.0,0.0,0.0,0.0,0.0,4.6731,4.2193,0.0,0.0,0.0,4.9561,5.0563,5.2872,5.569,0.0,0.0,0.0,0.0,0.0,0.0,0.0,6.5932,6.7565,6.9133,7.1173,7.2174,7.2717,7.2712,7.1792,7.1123,7.1131,0.0,7.2533,7.2533,7.3361,7.394,7.3933,7.3083,7.2725,7.3647,7.3834,7.3834,7.3841,7.3906,7.3933,7.3933,7.3933,7.4121,7.4801,7.4093,7.3364,7.3718,7.3814,7.3852,7.3764,7.3785,7.3822,6.4108,0.0,0.0,0.0,0.0,5.9048,6.0351,6.3855,6.2306,6.1015,5.9952,5.9508,0.0,0.0,0.0,0.0,0.0,0.0,6.1751,6.3138,6.6191,6.7947,6.8653,6.8653,6.8691,6.8616,6.8164,6.7448,6.6558,6.5625,5.9903,4.981,0.0,0.0,0.0,0.0,6.4159,6.6643,6.7822,6.8368,6.8399,6.7813,6.8028,6.9158,6.9534,7.0742,7.2853,7.2636,7.031,6.569,6.2228,0.0,0.0,0.0,0.0,0.0,0.0,0.0,0.0,0.0,0.0,0.0,0.0,0.0,0.0,0.0,0.0,0.0,0.0,0.0,4.5559,5.0466,5.2699,0.0,0.0,0.0,0.0,0.0,0.0,0.0,0.0,0.0,6.5765,6.7626,6.9096,0.0,0.0,6.8397,6.8403,6.9329,7.0083,7.0005,7.0577,0.0,7.0953,7.0351,7.0278,7.1353,7.1943,7.1875,7.1039,7.174,7.2067,7.1086,7.1782,7.2351,7.2239,7.0687,6.9658,7.0539,7.0925,7.1007,7.0943,7.1682,7.2182,0.0,0.0,0.0,0.0,0.0,0.0,0.0,0.0,5.7269,5.6543,0.0,5.4912,0.0,0.0,0.0,0.0,0.0,5.6285,0.0,0.0,6.6004,6.843,6.6899,6.6824,6.6899,6.6819,6.5159,6.28,5.9685,5.659,0.0,0.0,0.0,0.0,0.0,0.0,6.1765,6.6264,6.639,6.6399,6.6318,6.4765,6.3955,6.4165,6.5606,6.7849,7.0809,6.6637,6.4034,6.3501,5.2923,0.0,0.0,0.0,0.0,0.0,0.0,0.0,0.0,0.0,0.0,0.0,0.0,0.0,0.0,0.0,0.0,0.0,0.0,0.0,0.0,5.063,0.0,0.0,0.0,0.0,0.0,0.0,0.0,0.0,0.0,0.0,5.8363,6.0434,6.2737,6.4425,0.0,0.0,0.0,0.0,6.6595,6.6535,6.5219,6.4313,6.4223,6.5433,6.6463,6.65,0.0,0.0,6.4792,6.6759,6.7887,6.491,6.699,6.879,6.8678,6.6006,6.4137,6.4104,6.4273,6.4262,6.4321,6.6502,6.8544,0.0,0.0,0.0,0.0,0.0,0.0,0.0,0.0,0.0,5.1515,4.9712,4.9184,0.0,0.0,0.0,0.0,0.0,0.0,0.0,0.0,5.845,6.0253,5.8853,6.0915,6.0821,0.0,5.8243,5.5149,0.0,0.0,0.0,0.0,0.0,0.0,0.0,0.0,5.8424,6.3076,6.4265,6.4767,6.4693,6.3181,6.2776,6.3735,6.3358,6.2637,6.1558,6.0766,5.8847,0.0,0.0,0.0,0.0,0.0,0.0,0.0,0.0,0.0,0.0,0.0,0.0,0.0,0.0,0.0,0.0,0.0,0.0,0.0,0.0,0.0,0.0,0.0,4.7355,0.0,0.0,0.0,0.0,0.0,0.0,0.0,0.0,0.0,5.6713,6.0664,6.3603,6.404,6.4607,6.4947,6.4782,0.0,0.0,0.0,0.0,0.0,0.0,0.0,6.1847,6.2959,6.168,6.0517,6.0647,6.3281,6.5091,6.4043,0.0,0.0,6.0056,5.7963,5.7227,5.7176,5.8911,6.0026,5.8837,6.1218,6.2923,0.0,0.0,0.0,0.0,0.0,0.0,0.0,0.0,0.0,4.6681,4.4352,0.0,0.0,0.0,0.0,0.0,0.0,0.0,0.0,0.0,0.0,0.0,5.3622,5.5723,0.0,0.0,0.0,0.0,0.0,0.0,0.0,0.0,0.0,0.0,0.0,0.0,5.6397,6.0613,6.2315,6.3131,6.305,6.1476,6.1096,6.2012,6.1056,5.8908,5.5563,0.0,0.0,0.0,0.0,0.0,0.0,0.0,0.0,0.0,0.0,0.0,0.0,0.0,0.0,0.0,0.0,0.0,0.0,0.0,0.0,0.0,0.0,0.0,0.0,0.0,4.4772,0.0,0.0,0.0,0.0,0.0,0.0,0.0,0.0,0.0,0.0,0.0,6.0276,6.0639,6.172,6.2608,6.3019,6.3138,6.3175,0.0,0.0,0.0,0.0,0.0,0.0,0.0,0.0,0.0,0.0,0.0,0.0,0.0,0.0,6.2047,5.4887,5.2671,5.1944,5.1961,0.0,0.0,0.0,0.0,0.0,0.0,0.0,0.0,0.0,0.0,0.0,0.0,0.0,0.0,0.0,4.0717,0.0,0.0,3.8931,0.0,0.0,0.0,0.0,0.0,0.0,0.0,0.0,0.0,0.0,0.0,0.0,0.0,0.0,0.0,0.0,0.0,0.0,0.0,0.0,0.0,0.0,5.5719,5.8988,6.0548,6.1389,6.1345,5.9634,5.8768,5.8836,5.8753,5.7139,5.3795,0.0,0.0,0.0,0.0,0.0,0.0,0.0,0.0,0.0,0.0,0.0,0.0,0.0,0.0,0.0,0.0,0.0,0.0,0.0,0.0,0.0,0.0,0.0,0.0,0.0,0.0,4.4576,4.5927,4.6268,0.0,0.0,0.0,0.0,0.0,0.0,0.0,0.0,0.0,0.0,5.7023,5.9618,6.1146,6.1494,6.1525,6.1387,6.0033,5.8933,5.8862,5.9942,6.0457,0.0,0.0,0.0,0.0,0.0,0.0,0.0,0.0,0.0,0.0,0.0,0.0,0.0,0.0,0.0,0.0,0.0,0.0,0.0,0.0,0.0,0.0,0.0,0.0,0.0,0.0,0.0,0.0,0.0,0.0,0.0,0.0,0.0,0.0,0.0,0.0,0.0,0.0,0.0,0.0,0.0,0.0,0.0,0.0,0.0,0.0,0.0,0.0,0.0,0.0,0.0,0.0,0.0,0.0,5.2901,5.725,5.8871,5.9667,5.9629,5.9126,5.8783,5.8725,5.8801,5.7187,0.0,0.0,0.0,0.0,0.0,0.0,0.0,0.0,0.0,0.0,0.0,0.0,0.0,0.0,0.0,0.0,0.0,0.0,0.0,0.0,0.0,0.0,0.0,0.0,0.0,0.0,0.0,0.0,4.8204,4.7877,4.6221,0.0,0.0,0.0,0.0,0.0,0.0,0.0,0.0,0.0,0.0,5.7885,5.9435,5.9709,5.9709,5.966,5.9244,5.8908,5.8846,5.823,5.7596,5.7119,0.0,0.0,0.0,0.0,0.0,0.0,0.0,0.0,0.0,0.0,0.0,0.0,0.0,0.0,0.0,0.0,0.0,0.0,0.0,0.0,0.0,0.0,0.0,0.0,0.0,0.0,0.0,0.0,0.0,0.0,0.0,0.0,0.0,0.0,0.0,0.0,0.0,0.0,0.0,0.0,0.0,0.0,0.0,0.0,0.0,0.0,0.0,0.0,0.0,0.0,0.0,0.0,0.0,5.1228,5.5507,5.7753,5.8846,5.8908,5.8801,5.8735,5.8607,5.8645,5.6455,0.0,0.0,0.0,0.0,0.0,0.0,0.0,0.0,0.0,0.0,0.0,0.0,0.0,0.0,0.0,0.0,0.0,0.0,0.0,0.0,0.0,0.0,0.0,0.0,0.0,0.0,0.0,0.0,4.5211,4.5972,4.5007,0.0,0.0,0.0,0.0,0.0,0.0,0.0,0.0,0.0,0.0,5.6124,5.7683,5.7932,0.0,0.0,5.8318,5.8069,5.8721,5.7926,5.6833,5.555,5.4351,0.0,0.0,0.0,0.0,0.0,0.0,0.0,0.0,0.0,0.0,0.0,0.0,0.0,0.0,0.0,0.0,0.0,0.0,0.0,0.0,0.0,0.0,0.0,0.0,0.0,0.0,0.0,0.0,0.0,0.0,0.0,0.0,0.0,0.0,0.0,0.0,0.0,0.0,0.0,0.0,0.0,0.0,0.0,0.0,0.0,0.0,0.0,0.0,0.0,0.0,0.0,0.0,5.0651,5.399,5.7114,5.8744,5.8846,5.861,5.8484,5.8484,5.8389,5.5235,0.0,0.0,0.0,0.0,0.0,0.0,0.0,0.0,0.0,0.0,0.0,0.0,0.0,0.0,0.0,0.0,0.0,0.0,0.0,0.0,0.0,0.0,0.0,0.0,0.0,0.0,0.0,0.0,0.0,0.0,0.0,0.0,0.0,0.0,0.0,0.0,0.0,0.0,0.0,0.0,0.0,5.4502,5.6275,5.635,5.6816,0.0,5.7169,5.6578,5.8103,5.8442,5.7423,5.4166,0.0,0.0,0.0,0.0,0.0,0.0,0.0,0.0,0.0,0.0,0.0,0.0,0.0,0.0,0.0,0.0,0.0,0.0,0.0,0.0,0.0,0.0,0.0,0.0,0.0,0.0,0.0,0.0,0.0,0.0,0.0,0.0,0.0,0.0,0.0,0.0,0.0,0.0,0.0,0.0,0.0,0.0,0.0,0.0,0.0,0.0,0.0,0.0,0.0,0.0,0.0,0.0,0.0,0.0,5.3869,5.6967,5.8576,5.859,5.8366,5.8212,5.8212,5.818,0.0,0.0,0.0,0.0,0.0,0.0,0.0,0.0,0.0,0.0,0.0,0.0,0.0,0.0,0.0,0.0,0.0,0.0,0.0,0.0,0.0,0.0,0.0,0.0,0.0,0.0,0.0,3.3464,0.0,0.0,0.0,0.0,0.0,0.0,0.0,0.0,0.0,0.0,0.0,0.0,0.0,0.0,5.4887,5.7715,5.6053,5.5024,0.0,0.0,5.4439,5.4857,5.5946,5.6094,0.0,0.0,0.0,0.0,0.0,0.0,0.0,0.0,0.0,0.0,0.0,0.0,0.0,0.0,0.0,0.0,0.0,0.0,0.0,0.0,0.0,0.0,0.0,0.0,0.0,0.0,0.0,0.0,0.0,0.0,0.0,0.0,0.0,0.0,0.0,0.0,0.0,0.0,0.0,0.0,0.0,0.0,0.0,0.0,0.0,0.0,0.0,0.0,0.0,0.0,0.0,0.0,0.0,0.0,4.9733,5.3592,5.6065,5.7687,5.8314,5.8079,5.7922,5.7871,5.7908,5.5138,0.0,0.0,0.0,0.0,0.0,0.0,0.0,0.0,0.0,0.0,0.0,0.0,0.0,0.0,0.0,0.0,0.0,0.0,0.0,0.0,0.0,0.0,0.0,0.0,0.0,0.0,0.0,0.0,0.0,0.0,0.0,0.0,0.0,0.0,0.0,0.0,0.0,0.0,0.0,0.0,0.0,0.0,5.6348,5.4342,0.0,0.0,0.0,5.2786,5.3521,0.0,0.0,0.0,0.0,0.0,0.0,0.0,0.0,0.0,0.0,0.0,0.0,0.0,0.0,0.0,0.0,0.0,0.0,0.0,0.0,0.0,0.0,0.0,0.0,0.0,0.0,0.0,0.0,0.0,0.0,0.0,0.0,0.0,0.0,0.0,0.0,0.0,0.0,0.0,0.0,0.0,0.0,0.0,0.0,0.0,0.0,0.0,0.0,0.0,0.0,0.0,0.0,0.0,0.0,0.0,0.0,0.0,5.3308,5.5154,5.6689,5.7985,5.7792,5.7588,5.7498,5.7571,5.5195,0.0,0.0,0.0,0.0,0.0,0.0,0.0,0.0,0.0,0.0,0.0,0.0,0.0,0.0,0.0,0.0,0.0,0.0,0.0,0.0,0.0,0.0,0.0,0.0,0.0,0.0,0.0,0.0,0.0,0.0,0.0,0.0,0.0,0.0,0.0,0.0,0.0,0.0,0.0,0.0,0.0,5.5399,5.4129,5.2342,5.1149,0.0,0.0,5.1439,5.305,5.4538,0.0,0.0,0.0,0.0,0.0,0.0,0.0,0.0,0.0,0.0,0.0,0.0,0.0,0.0,0.0,0.0,0.0,0.0,0.0,0.0,0.0,0.0,0.0,0.0,0.0,0.0,0.0,0.0,0.0,0.0,0.0,0.0,0.0,0.0,0.0,0.0,0.0,0.0,0.0,0.0,0.0,0.0,0.0,0.0,0.0,0.0,0.0,0.0,0.0,0.0,0.0,0.0,0.0,0.0,0.0,0.0,5.3411,5.6151,5.7575,5.78,5.7452,5.7244,5.7215,5.7251,5.4358,0.0,0.0,0.0,0.0,0.0,0.0,0.0,0.0,0.0,0.0,0.0,0.0,0.0,0.0,0.0,0.0,0.0,0.0,0.0,0.0,0.0,0.0,0.0,0.0,0.0,0.0,0.0,0.0,0.0,0.0,0.0,0.0,0.0,0.0,0.0,0.0,0.0,0.0,0.0,0.0,0.0,5.4543,5.5494,5.3083,0.0,0.0,0.0,0.0,5.1077,5.1525,0.0,0.0,0.0,0.0,0.0,0.0,0.0,0.0,0.0,0.0,0.0,0.0,0.0,0.0,0.0,0.0,0.0,0.0,0.0,0.0,0.0,0.0,0.0,0.0,0.0,0.0,0.0,0.0,0.0,0.0,0.0,0.0,0.0,0.0,0.0,0.0,0.0,0.0,0.0,0.0,0.0,0.0,0.0,0.0,0.0,0.0,0.0,0.0,0.0,0.0,0.0,0.0,0.0,0.0,0.0,0.0,5.4269,5.5949,5.6991,5.7498,5.7263,5.7134,5.714,5.7048,5.4739,0.0,0.0,0.0,0.0,0.0,0.0,0.0,0.0,0.0,0.0,0.0,0.0,0.0,0.0,0.0,0.0,0.0,0.0,0.0,0.0,0.0,0.0,0.0,0.0,0.0,0.0,0.0,0.0,0.0,0.0,0.0,0.0,0.0,0.0,0.0,0.0,0.0,0.0,0.0,0.0,5.3176,5.3959,5.4746,0.0,0.0,0.0,0.0,0.0,0.0,5.0585,5.0764,0.0,0.0,0.0,0.0,0.0,0.0,0.0,0.0,0.0,0.0,0.0,0.0,0.0,0.0,0.0,0.0,0.0,0.0,0.0,0.0,0.0,0.0,0.0,0.0,0.0,0.0,0.0,0.0,0.0,0.0,0.0,0.0,0.0,0.0,0.0,0.0,0.0,0.0,0.0,0.0,0.0,0.0,0.0,0.0,0.0,0.0,0.0,0.0,0.0,0.0,0.0,0.0,0.0,0.0,0.0,5.4695,5.5153,5.6021,5.7311,5.7173,5.71,5.7132,5.6993,5.525,5.1705,0.0,0.0,0.0,0.0,0.0,0.0,0.0,0.0,0.0,0.0,0.0,0.0,0.0,0.0,0.0,0.0,0.0,0.0,0.0,0.0,0.0,0.0,0.0,0.0,0.0,0.0,0.0,0.0,0.0,0.0,0.0,0.0,0.0,0.0,0.0,0.0,0.0,0.0,0.0,5.1896,5.3131,0.0,0.0,0.0,0.0,0.0,0.0,0.0,0.0,5.0512,0.0,0.0,0.0,0.0,0.0,0.0,0.0,0.0,0.0,0.0,0.0,0.0,0.0,0.0,0.0,0.0,0.0,0.0,0.0,0.0,0.0,0.0,0.0,0.0,0.0,0.0,0.0,0.0,0.0,0.0,0.0,0.0,0.0,0.0,0.0,0.0,0.0,0.0,0.0,0.0,0.0,0.0,0.0,0.0,0.0,0.0,0.0,0.0,0.0,0.0,0.0,0.0,0.0,0.0,0.0,0.0,5.3802,5.5804,5.7256,5.7019,5.6891,5.6943,5.688,5.4548,4.9835,0.0,0.0,0.0,0.0,0.0,0.0,0.0,0.0,0.0,0.0,0.0,0.0,0.0,0.0,0.0,0.0,0.0,0.0,0.0,0.0,0.0,0.0,0.0,0.0,0.0,0.0,0.0,0.0,0.0,0.0,0.0,0.0,0.0,0.0,0.0,0.0,0.0,0.0,4.4636,4.8643,0.0,0.0,0.0,0.0,0.0,0.0,0.0,0.0,4.901,0.0,0.0,0.0,0.0,0.0,0.0,0.0,0.0,0.0,0.0,0.0,0.0,0.0,0.0,0.0,0.0,0.0,0.0,0.0,0.0,0.0,0.0,0.0,0.0,0.0,0.0,0.0,0.0,0.0,0.0,0.0,0.0,0.0,0.0,0.0,0.0,0.0,0.0,0.0,0.0,0.0,0.0,0.0,0.0,0.0,0.0,0.0,0.0,0.0,0.0,0.0,0.0,0.0,0.0,0.0,0.0,0.0,0.0,5.4349,5.5797,5.4857,5.4316,5.4346,5.3258,5.1098,0.0,0.0,0.0,0.0,0.0,0.0,0.0,0.0,0.0,0.0,0.0,0.0,0.0,0.0,0.0,0.0,0.0,0.0,0.0,0.0,0.0,0.0,0.0,0.0,0.0,0.0,0.0,0.0,0.0,0.0,0.0,0.0,0.0,0.0,0.0,0.0,0.0,0.0,0.0,0.0,0.0,0.0,0.0,0.0,0.0,0.0,0.0,0.0,0.0,0.0,0.0,0.0,0.0,0.0,0.0,0.0,0.0,0.0,0.0,0.0,0.0,0.0,0.0,0.0,0.0,0.0,0.0,0.0,0.0,0.0,0.0,0.0,0.0,0.0,0.0,0.0,0.0,0.0,0.0,0.0,0.0,0.0,0.0,0.0,0.0,0.0,0.0,0.0,0.0,0.0,0.0,0.0,0.0,0.0,0.0,0.0,0.0,0.0,0.0,0.0,0.0,0.0,0.0,0.0,0.0,0.0,0.0,0.0,5.2536,5.4026,5.2726,5.2028,5.2002,4.9427,4.7398,0.0,0.0,0.0,0.0,0.0,0.0,0.0,0.0,0.0,0.0,0.0,0.0,0.0,0.0,0.0,0.0,0.0,0.0,0.0,0.0,0.0,0.0,0.0,0.0,0.0,0.0,0.0,0.0,0.0,0.0,0.0,0.0,0.0,0.0,0.0,0.0,0.0,0.0,0.0,0.0,0.0,0.0,0.0,0.0,0.0,0.0,0.0,0.0,4.8259,0.0,0.0,0.0,0.0,0.0,0.0,0.0,0.0,0.0,0.0,0.0,0.0,0.0,0.0,0.0,0.0,0.0,0.0,0.0,0.0,0.0,0.0,0.0,0.0,0.0,0.0,0.0,0.0,0.0,0.0,0.0,0.0,0.0,0.0,0.0,0.0,0.0,0.0,0.0,0.0,0.0,0.0,0.0,0.0,0.0,0.0,0.0,0.0,0.0,0.0,0.0,0.0,0.0,0.0,0.0,0.0,0.0,0.0,0.0,5.0857,5.251,5.2018,5.172,5.1608,4.7331,4.4814,0.0,0.0,0.0,0.0,0.0,0.0,0.0,0.0,0.0,0.0,0.0,0.0,0.0,0.0,0.0,0.0,0.0,0.0,0.0,0.0,0.0,0.0,0.0,0.0,0.0,0.0,0.0,0.0,0.0,0.0,0.0,0.0,0.0,0.0,0.0,0.0,0.0,0.0,0.0,0.0,0.0,0.0,0.0,0.0,0.0,0.0,0.0,0.0,0.0,0.0,0.0,0.0,0.0,0.0,0.0,0.0,0.0,0.0,0.0,0.0,0.0,0.0,0.0,0.0,0.0,0.0,0.0,0.0,0.0,0.0,0.0,0.0,0.0,0.0,0.0,0.0,0.0,0.0,0.0,0.0,0.0,0.0,0.0,0.0,0.0,0.0,0.0,0.0,0.0,0.0,0.0,0.0,0.0,0.0,0.0,0.0,0.0,0.0,0.0,0.0,0.0,0.0,0.0,0.0,0.0,0.0,0.0,0.0,4.8092,5.0524,4.9554,4.8905,4.8675,4.495,4.2848,0.0,0.0,0.0,0.0,0.0,0.0,0.0,0.0,0.0,0.0,0.0,0.0,0.0,0.0,0.0,0.0,0.0,0.0,0.0,0.0,0.0,0.0,0.0,0.0,0.0,0.0,0.0,0.0,0.0,0.0,0.0,0.0,0.0,0.0,0.0,0.0,0.0,0.0,0.0,0.0,0.0,0.0,0.0,0.0,0.0,0.0,0.0,0.0,0.0,0.0,0.0,0.0,0.0,0.0,0.0,0.0,0.0,0.0,0.0,0.0,0.0,0.0,0.0,0.0,0.0,0.0,0.0,0.0,0.0,0.0,0.0,0.0,0.0,0.0,0.0,0.0,0.0,0.0,0.0,0.0,0.0,0.0,0.0,0.0,0.0,0.0,0.0,0.0,0.0,0.0,0.0,0.0,0.0,0.0,0.0,0.0,0.0,0.0,0.0,0.0,0.0,0.0,0.0,0.0,0.0,0.0,0.0,0.0,0.0,4.7939,4.7331,4.659,4.5766,4.2744,4.0911,0.0,0.0,0.0,0.0,0.0,0.0,0.0,0.0,0.0,0.0,0.0,0.0,0.0,0.0,0.0,0.0,0.0,0.0,0.0,0.0,0.0,0.0,0.0,0.0,0.0,0.0,0.0,0.0,0.0,0.0,0.0,0.0,0.0,0.0,0.0,0.0,0.0,0.0,0.0,0.0,0.0,0.0,0.0,0.0,0.0,0.0,0.0,0.0,0.0,0.0,0.0,0.0,0.0,0.0,0.0,0.0,0.0,0.0,0.0,0.0,0.0,0.0,0.0,0.0,0.0,0.0,0.0,0.0,0.0,0.0,0.0,0.0,0.0,0.0,0.0,0.0,0.0,0.0,0.0,0.0,0.0,0.0,0.0,0.0,0.0,0.0,0.0,0.0,0.0,0.0,0.0,0.0,0.0,0.0,0.0,0.0,0.0,0.0,0.0,0.0,0.0,0.0,0.0,0.0,0.0,0.0,0.0,0.0,0.0,4.4746,4.6021,4.5864,4.415,4.1094,3.8706,0.0,0.0,0.0,0.0,0.0,0.0,0.0,0.0,0.0,0.0,0.0,0.0,0.0,0.0,0.0,0.0,0.0,0.0,0.0,0.0,0.0,0.0,0.0,0.0,0.0,0.0,0.0,0.0,0.0,0.0,0.0,0.0,0.0,0.0,0.0,0.0,0.0,0.0,0.0,0.0,0.0,0.0,0.0,0.0,0.0,0.0,0.0,0.0,0.0,0.0,0.0,0.0,0.0,0.0,0.0,0.0,0.0,0.0,0.0,0.0,0.0,0.0,0.0,0.0,0.0,0.0,0.0,0.0,0.0,0.0,0.0,0.0,0.0,0.0,0.0,0.0,0.0,0.0,0.0,0.0,0.0,0.0,0.0,0.0,0.0,0.0,0.0,0.0,0.0,0.0,0.0,0.0,0.0,0.0,0.0,0.0,0.0,0.0,0.0,0.0,0.0,0.0,0.0,0.0,0.0,0.0,0.0,0.0,0.0,4.4204,4.5645,4.6038,4.5291,4.1298,3.8792,3.7993,0.0,0.0,0.0,0.0,0.0,0.0,0.0,0.0,0.0,0.0,0.0,0.0,0.0,0.0,0.0,0.0,0.0,0.0,0.0,0.0,0.0,0.0,0.0,0.0,0.0,0.0,0.0,0.0,0.0,0.0,0.0,0.0,0.0,0.0,0.0,0.0,0.0,0.0,0.0,0.0,0.0,0.0,0.0,0.0,0.0,0.0,0.0,0.0,0.0,0.0,0.0,0.0,0.0,0.0,0.0,0.0,0.0,0.0,0.0,0.0,0.0,0.0,0.0,0.0,0.0,0.0,0.0,0.0,0.0,0.0,0.0,0.0,0.0,0.0,0.0,0.0,0.0,0.0,0.0,0.0,0.0,0.0,0.0,0.0,0.0,0.0,0.0,0.0,0.0,0.0,0.0,0.0,0.0,0.0,0.0,0.0,0.0,0.0,0.0,0.0,0.0,0.0,0.0,0.0,0.0,0.0,0.0,0.0,4.3209,4.4686,4.5007,4.3894,4.1146,3.8679,0.0,0.0,0.0,0.0,0.0,0.0,0.0,0.0,0.0,0.0,0.0,0.0,0.0,0.0,0.0,0.0,0.0,0.0,0.0,0.0,0.0,0.0,0.0,0.0,0.0,0.0,0.0,0.0,0.0,0.0,0.0,0.0,0.0,0.0,0.0,0.0,0.0,0.0,0.0,0.0,0.0,0.0,0.0,0.0,0.0,0.0,0.0,0.0,0.0,0.0,0.0,0.0,0.0,0.0,0.0,0.0,0.0,0.0,0.0,0.0,0.0,0.0,0.0,0.0,0.0,0.0,0.0,0.0,0.0,0.0,0.0,0.0,0.0,0.0,0.0,0.0,0.0,0.0,0.0,0.0,0.0,0.0,0.0,0.0,0.0,0.0,0.0,0.0,0.0,0.0,0.0,0.0,0.0,0.0,0.0,0.0,0.0,0.0,0.0,0.0,0.0,0.0,0.0,0.0,0.0,0.0,0.0,0.0,4.308,4.1686,4.3149,4.2645,3.938,4.0361,3.8058,0.0,0.0,0.0,0.0,0.0,0.0,0.0,0.0,0.0,0.0,0.0,0.0,0.0,0.0,0.0,0.0,0.0,0.0,0.0,0.0,0.0,0.0,0.0,0.0,0.0,0.0,0.0,0.0,0.0,0.0,0.0,0.0,0.0,0.0,0.0,0.0,0.0,0.0,0.0,0.0,0.0,0.0,0.0,0.0,0.0,0.0,0.0,0.0,0.0,0.0,0.0,0.0,0.0,0.0,0.0,0.0,0.0,0.0,0.0,0.0,0.0,0.0,0.0,0.0,0.0,0.0,0.0,0.0,0.0,0.0,0.0,0.0,0.0,0.0,0.0,0.0,0.0,0.0,0.0,0.0,0.0,0.0,0.0,0.0,0.0,0.0,0.0,0.0,0.0,0.0,0.0,0.0,0.0,0.0,0.0,0.0,0.0,0.0,0.0,0.0,0.0,0.0,0.0,0.0,0.0,0.0,0.0,0.0,0.0,4.4352,0.0,4.342,0.0,3.9759,3.6708,0.0,0.0,0.0,0.0,0.0,0.0,0.0,0.0,0.0,0.0,0.0,0.0,0.0,0.0,0.0,0.0,0.0,0.0,0.0,0.0,0.0,0.0,0.0,0.0,0.0,0.0,0.0,0.0,0.0,0.0,0.0,0.0,0.0,0.0,0.0,0.0,0.0,0.0,0.0,0.0,0.0,0.0,0.0,0.0,0.0,0.0,0.0,0.0,0.0,0.0,0.0,0.0,0.0,0.0,0.0,0.0,0.0,0.0,0.0,0.0,0.0,0.0,0.0,0.0,0.0,0.0,0.0,0.0,0.0,0.0,0.0,0.0,0.0,0.0,0.0,0.0,0.0,0.0,0.0,0.0,0.0,0.0,0.0,0.0,0.0,0.0,0.0,0.0,0.0,0.0,0.0,0.0,0.0,0.0,0.0,0.0,0.0,0.0,0.0,0.0,0.0,0.0,0.0,0.0,0.0,0.0,0.0,0.0,0.0,4.4184,4.3424,4.3018,4.2772,4.0466,3.7442,0.0,0.0,0.0,0.0,0.0,0.0,0.0,0.0,0.0,0.0,0.0,0.0,0.0,0.0,0.0,0.0,0.0,0.0,0.0,0.0,0.0,0.0,0.0,0.0,0.0,0.0,0.0,0.0,0.0,0.0,0.0,0.0,0.0,0.0,0.0,0.0,0.0,0.0,0.0,0.0,0.0,0.0,0.0,0.0,0.0,0.0,0.0,0.0,0.0,0.0,0.0,0.0,0.0,0.0,0.0,0.0,0.0,0.0,0.0,0.0,0.0,0.0,0.0,0.0,0.0,0.0,0.0,0.0,0.0,0.0,0.0,0.0,0.0,0.0,0.0,0.0,0.0,0.0,0.0,0.0,0.0,0.0,0.0,0.0,0.0,0.0,0.0,0.0,0.0,0.0,0.0,0.0,0.0,0.0,0.0,0.0,0.0,0.0,0.0,0.0,0.0,0.0,0.0,0.0,0.0,0.0,0.0,0.0,0.0,4.18,4.2597,4.1551,3.8665,4.1989,3.9949,0.0,0.0,0.0,0.0,0.0,0.0,0.0,0.0,0.0,0.0,0.0,0.0,0.0,0.0,0.0,0.0,0.0,0.0,0.0,0.0,0.0,0.0,0.0,0.0,0.0,0.0,0.0,0.0,0.0,0.0,0.0,0.0,0.0,0.0,0.0,0.0,0.0,0.0,0.0,0.0,0.0,0.0,0.0,0.0,0.0,0.0,0.0,0.0,0.0,0.0,0.0,0.0,0.0,0.0,0.0,0.0,0.0,0.0,0.0,0.0,0.0,0.0,0.0,0.0,0.0,0.0,0.0,0.0,0.0,0.0,0.0,0.0,0.0,0.0,0.0,0.0,0.0,0.0,0.0,0.0,0.0,0.0,0.0,0.0,0.0,0.0,0.0,0.0,0.0,0.0,0.0,0.0,0.0,0.0,0.0,0.0,0.0,0.0,0.0,0.0,0.0,0.0,0.0,0.0,0.0,0.0,0.0,0.0,0.0,0.0,4.5041,4.3576,4.127,3.995,3.8058,3.5481,0.0,0.0,0.0,0.0,0.0,0.0,0.0,0.0,0.0,0.0,0.0,0.0,0.0,0.0,0.0,0.0,0.0,0.0,0.0,0.0,0.0,0.0,0.0,0.0,0.0,0.0,0.0,0.0,0.0,0.0,0.0,0.0,0.0,0.0,0.0,0.0,0.0,0.0,0.0,0.0,0.0,0.0,0.0,0.0,0.0,0.0,0.0,0.0,0.0,0.0,0.0,0.0,0.0,0.0,0.0,0.0,0.0,0.0,0.0,0.0,0.0,0.0,0.0,0.0,0.0,0.0,0.0,0.0,0.0,0.0,0.0,0.0,0.0,0.0,0.0,0.0,0.0,0.0,0.0,0.0,0.0,0.0,0.0,0.0,0.0,0.0,0.0,0.0,0.0,0.0,0.0,0.0,0.0,0.0,0.0,0.0,0.0,0.0,0.0,0.0,0.0,0.0,0.0,0.0,0.0,0.0,0.0,0.0,0.0,0.0,4.4073,4.2229,4.0179,3.811,0.0,0.0,0.0,0.0,0.0,0.0,0.0,0.0,0.0,0.0,0.0,0.0,0.0,0.0,0.0,0.0,0.0,0.0,0.0,0.0,0.0,0.0,0.0,0.0,0.0,0.0,0.0,0.0,0.0,0.0,0.0,0.0,0.0,0.0,0.0,0.0,0.0,0.0,0.0,0.0,0.0,0.0,0.0,0.0,0.0,0.0,0.0,0.0,0.0,0.0,0.0,0.0,0.0,0.0,0.0,0.0,0.0,0.0,0.0,0.0,0.0,0.0,0.0,0.0,0.0,0.0,0.0,0.0,0.0,0.0,0.0,0.0,0.0,0.0,0.0,0.0,0.0,0.0,0.0,0.0,0.0,0.0,0.0,0.0,0.0,0.0,0.0,0.0,0.0,0.0,0.0,0.0,0.0,0.0,0.0,0.0,0.0,0.0,0.0,0.0,0.0,0.0,0.0,0.0,0.0,0.0,0.0,0.0,0.0,0.0,0.0,4.3546,4.2094,4.1578,0.0,3.5377,0.0,0.0,0.0,0.0,0.0,0.0,0.0,0.0,0.0,0.0,0.0,0.0,0.0,0.0,0.0,0.0,0.0,0.0,0.0,0.0,0.0,0.0,0.0,0.0,0.0,0.0,0.0,0.0,0.0,0.0,0.0,0.0,0.0,0.0,0.0,0.0,0.0,0.0,0.0,0.0,0.0,0.0,0.0,0.0,0.0,0.0,0.0,0.0,0.0,0.0,0.0,0.0,0.0,0.0,0.0,0.0,0.0,0.0,0.0,0.0,0.0,0.0,0.0,0.0,0.0,0.0,0.0,0.0,0.0,0.0,0.0,0.0,0.0,0.0,0.0,0.0,0.0,0.0,0.0,0.0,0.0,0.0,0.0,0.0,0.0,0.0,0.0,0.0,0.0,0.0,0.0,0.0,0.0,0.0,0.0,0.0,0.0,0.0,0.0,0.0,0.0,0.0,0.0,0.0,0.0,0.0,0.0,0.0,0.0,0.0,0.0,0.0,4.0516,3.8777,3.7612,0.0,0.0,0.0,0.0,0.0,0.0,0.0,0.0,0.0,0.0,0.0,0.0,0.0,0.0,0.0,0.0,0.0,0.0,0.0,0.0,0.0,0.0,0.0,0.0,0.0,0.0,0.0,0.0,0.0,0.0,0.0,0.0,0.0,0.0,0.0,0.0,0.0,0.0,0.0,0.0,0.0,0.0,0.0,0.0,0.0,0.0,0.0,0.0,0.0,0.0,0.0,0.0,0.0,0.0,0.0,0.0,0.0,0.0,0.0,0.0,0.0,0.0,0.0,0.0,0.0,0.0,0.0,0.0,0.0,0.0,0.0,0.0,0.0,0.0,0.0,0.0,0.0,0.0,0.0,0.0,0.0,0.0,0.0,0.0,0.0,0.0,0.0,0.0,0.0,0.0,0.0,0.0,0.0,0.0,0.0,0.0,0.0,0.0,0.0,0.0,0.0,0.0,0.0,0.0,0.0,0.0,0.0,0.0,0.0,0.0,4.1717,4.2673,4.0579,3.9046,3.8308,0.0,0.0,0.0,0.0,0.0,0.0,0.0,0.0,0.0,0.0,0.0,0.0,0.0,0.0,0.0,0.0,0.0,0.0,0.0,0.0,0.0,0.0,0.0,0.0,0.0,0.0,0.0,0.0,0.0,0.0,0.0,0.0,0.0,0.0,0.0,0.0,0.0,0.0,0.0,0.0,0.0,0.0,0.0,0.0,0.0,0.0,0.0,0.0,0.0,0.0,0.0,0.0,0.0,0.0,0.0,0.0,0.0,0.0,0.0,0.0,0.0,0.0,0.0,0.0,0.0,0.0,0.0,0.0,0.0,0.0,0.0,0.0,0.0,0.0,0.0,0.0,0.0,0.0,0.0,0.0,0.0,0.0,0.0,0.0,0.0,0.0,0.0,0.0,0.0,0.0,0.0,0.0,0.0,0.0,0.0,0.0,0.0,0.0,0.0,0.0,0.0,0.0,0.0,0.0,0.0,0.0,0.0,0.0,0.0,0.0,0.0,0.0,0.0,0.0,3.7754,0.0,0.0,0.0,0.0,0.0,0.0,0.0,0.0,0.0,0.0,0.0,0.0,0.0,0.0,0.0,0.0,0.0,0.0,0.0,0.0,0.0,0.0,0.0,0.0,0.0,0.0,0.0,0.0,0.0,0.0,0.0,0.0,0.0,0.0,0.0,0.0,0.0,0.0,0.0,0.0,0.0,0.0,0.0,0.0,0.0,0.0,0.0,0.0,0.0,0.0,0.0,0.0,0.0,0.0,0.0,0.0,0.0,0.0,0.0,0.0,0.0,0.0,0.0,0.0,0.0,0.0,0.0,0.0,0.0,0.0,0.0,0.0,0.0,0.0,0.0,0.0,0.0,0.0,0.0,0.0,0.0,0.0,0.0,0.0,0.0,0.0,0.0,0.0,0.0,0.0,0.0,0.0,0.0,0.0,0.0,0.0,0.0,0.0,0.0,0.0,0.0,0.0,0.0,0.0,0.0,0.0,0.0,0.0,0.0,0.0,0.0,0.0,0.0,0.0,0.0,0.0,0.0,0.0,0.0,0.0,0.0,0.0,0.0,0.0,0.0,0.0,0.0,0.0,0.0,0.0,0.0,0.0,0.0,0.0,0.0,0.0,0.0,0.0,0.0,0.0,0.0,0.0,0.0,0.0,0.0,0.0,0.0,0.0,0.0,0.0,0.0,0.0,0.0,0.0,0.0,0.0,0.0,0.0,0.0,0.0,0.0,0.0,0.0,0.0,0.0,0.0,0.0,0.0,0.0,0.0,0.0,0.0,0.0,0.0,0.0,0.0,0.0,0.0,0.0,0.0,0.0,0.0,0.0,0.0,0.0,0.0,0.0,0.0,0.0,0.0,0.0,0.0,0.0,0.0,0.0,0.0,0.0,0.0,0.0,0.0,0.0,0.0,0.0,0.0,0.0,0.0,0.0,0.0,0.0,0.0,0.0,0.0,0.0,0.0,0.0,0.0,0.0,0.0,0.0,0.0,0.0,0.0,0.0,0.0,0.0,0.0,0.0,0.0,0.0,0.0,0.0,0.0,0.0,0.0,0.0,0.0,0.0,0.0,0.0,0.0,0.0,0.0,0.0,0.0,0.0,0.0,0.0,0.0,0.0,0.0,0.0,0.0,0.0,0.0,0.0,0.0,0.0,0.0,0.0,0.0,0.0,0.0,0.0,0.0,0.0,0.0,0.0,0.0,0.0,0.0,0.0,0.0,0.0,0.0,0.0,0.0,0.0,0.0,0.0,0.0,0.0,0.0,0.0,0.0,0.0,0.0,0.0,0.0,0.0,0.0,0.0,0.0,0.0,0.0,0.0,0.0,0.0,0.0,0.0,0.0,0.0,0.0,0.0,0.0,0.0,0.0,0.0,0.0,0.0,0.0,0.0,0.0,0.0,0.0,0.0,0.0,0.0,0.0,0.0,0.0,0.0,0.0,0.0,0.0,0.0,0.0,0.0,0.0,0.0,0.0,0.0,0.0,0.0,0.0,0.0,0.0,0.0,0.0,0.0,0.0,0.0,0.0,0.0,0.0,0.0,0.0,0.0,0.0,0.0,0.0,0.0,0.0,0.0,0.0,0.0,0.0,0.0,0.0,0.0,0.0,0.0,0.0,0.0,0.0,0.0,0.0,0.0,0.0,0.0,0.0,0.0,0.0,0.0,0.0,0.0,0.0,0.0,0.0,0.0,0.0,0.0,0.0,0.0,0.0,0.0,0.0,0.0,0.0,0.0,0.0,0.0,0.0,0.0,0.0,0.0,0.0,0.0,0.0,0.0,0.0,0.0,0.0,0.0,0.0,0.0,0.0,0.0,0.0,0.0,0.0,0.0,0.0,0.0,0.0,0.0,0.0,0.0,0.0,0.0,0.0,0.0,0.0,0.0,0.0,0.0,0.0,0.0,0.0,0.0,0.0,0.0,0.0,0.0,0.0,0.0,0.0,0.0,0.0,0.0,0.0,0.0,0.0,0.0,0.0,0.0,0.0,0.0,0.0,0.0,0.0,0.0,0.0,0.0,0.0,0.0,0.0,0.0,0.0,0.0,0.0,0.0,0.0,0.0,0.0,0.0,0.0,0.0,0.0,0.0,0.0,0.0,0.0,0.0,0.0,0.0,0.0,0.0,0.0,0.0,0.0,0.0,0.0,0.0,0.0,0.0,0.0,0.0,0.0,0.0,0.0,0.0,0.0,0.0,0.0,0.0,0.0,0.0,0.0,0.0,0.0,0.0,0.0,0.0,0.0,0.0,0.0,0.0,0.0,0.0,0.0,0.0,0.0,0.0,0.0,0.0,0.0,0.0,0.0,0.0,0.0,0.0,0.0,0.0,0.0,0.0,0.0,0.0,0.0,0.0,0.0,0.0,0.0,0.0,0.0,0.0,0.0,0.0,0.0,0.0,0.0,0.0,0.0,0.0,0.0,0.0,0.0,0.0,0.0,0.0,0.0,0.0,0.0,0.0,0.0,0.0,0.0,0.0,0.0,0.0,0.0,0.0,0.0,0.0,0.0,0.0,0.0,0.0,0.0,0.0,0.0,0.0,0.0,0.0,0.0,0.0,0.0,0.0,0.0,0.0,0.0,0.0,0.0,0.0,0.0,0.0,0.0,0.0,0.0,0.0,0.0,0.0,0.0,0.0,0.0,0.0,0.0,0.0,0.0,0.0,0.0,0.0,0.0,0.0,0.0,0.0,0.0,0.0,0.0,0.0,0.0,0.0,0.0,0.0,0.0,0.0,0.0,0.0,0.0,0.0,0.0,0.0,0.0,0.0,0.0,0.0,0.0,0.0,0.0,0.0,0.0,0.0,0.0,0.0,0.0,0.0,0.0,0.0,0.0,0.0,0.0,0.0,0.0,0.0,0.0,0.0,0.0,0.0,0.0,0.0,0.0,0.0,0.0,0.0,0.0,0.0,0.0,0.0,0.0,0.0,0.0,0.0,0.0,0.0,0.0,0.0,0.0,0.0,0.0,0.0,0.0,0.0,0.0,0.0,0.0,0.0,0.0,0.0,0.0,0.0,0.0,0.0,0.0,0.0,0.0,0.0,0.0,0.0,0.0,0.0,0.0,0.0,0.0,0.0,0.0,0.0,0.0,0.0,0.0,0.0,0.0,0.0,0.0,0.0,0.0,0.0,0.0,0.0,0.0,0.0,0.0,0.0,0.0,0.0,0.0,0.0,0.0,0.0,0.0,0.0,0.0,0.0,0.0,0.0,0.0,0.0,0.0,0.0,0.0,0.0,0.0,0.0,0.0,0.0,0.0,0.0,0.0,0.0,0.0,0.0,0.0,0.0,0.0,0.0,0.0,0.0,0.0,0.0,0.0,0.0,0.0,0.0,0.0,0.0,0.0,0.0,0.0,0.0,0.0,0.0,0.0,0.0,0.0,0.0,0.0,0.0,0.0,0.0,0.0,0.0,0.0,0.0,0.0,0.0,0.0,0.0,0.0,0.0,0.0,0.0,0.0,0.0,0.0,0.0,0.0,0.0,0.0,0.0,0.0,0.0,0.0,0.0,0.0,0.0,0.0,0.0,0.0,0.0,0.0,0.0,0.0,0.0,0.0,0.0,0.0,0.0,0.0,0.0,0.0,0.0,0.0,0.0,0.0,0.0,0.0,0.0,0.0,0.0,0.0,0.0,0.0,0.0,0.0,0.0,0.0,0.0,0.0,0.0,0.0,0.0,0.0,0.0,0.0,0.0,0.0,0.0,0.0,0.0,0.0,0.0,0.0,0.0,0.0,0.0,0.0,0.0,0.0,0.0,0.0,0.0,0.0,0.0,0.0,0.0,0.0,0.0,0.0,0.0,0.0,0.0,0.0,0.0,0.0,0.0,0.0,0.0,0.0,0.0,0.0,0.0,0.0,0.0,0.0,0.0,0.0,0.0,0.0,0.0,0.0,0.0,0.0,0.0,0.0,0.0,0.0,0.0,0.0,0.0,0.0,0.0,0.0,0.0,0.0,0.0,0.0,0.0,0.0,0.0,0.0,0.0,0.0,0.0,0.0,0.0,0.0,0.0,0.0,0.0,0.0,0.0,0.0,0.0,0.0,0.0,0.0,0.0,0.0,0.0,0.0,0.0,0.0,0.0,0.0,0.0,0.0,0.0,0.0,0.0,0.0,0.0,0.0,0.0,0.0,0.0,0.0,0.0,0.0,0.0,0.0,0.0,0.0,0.0,0.0,0.0,0.0,0.0,0.0,0.0,0.0,0.0,0.0,0.0,0.0,0.0,0.0,0.0,0.0,0.0,0.0,0.0,0.0,0.0,0.0,0.0,0.0,0.0,0.0,0.0,0.0,0.0,0.0,0.0,0.0,0.0,0.0,0.0,0.0,0.0,0.0,0.0,0.0,0.0,0.0,0.0,0.0,0.0,0.0,0.0,0.0]}]]]